| time (UTC) | temp C | wind direction | speed KPH | gust KPH | rain 1hr cm | rain 24hr cm | rain mn cm | humidity % | barometer mb |
| 20260510131017 | 13 | 360 | 0.0 | 3.2 | 0.00 | 0.41 | 0.00 | 96 | 1010.0 |
| 20260510130852 | 13 | 0 | 0.0 | 3.2 | 0.00 | 0.41 | 0.00 | 97 | 1009.4 |
| 20260510130847 | 13 | 0 | 0.0 | 3.2 | 0.00 | 0.41 | 0.00 | 96 | 1009.8 |
| 20260510130748 | 13 | 0 | 0.0 | 3.2 | 0.00 | 0.41 | 0.00 | 96 | 1009.6 |
| 20260510130730 | 13 | 0 | 0.0 | 3.2 | 0.00 | 0.41 | 0.00 | 96 | 1009.4 |
| 20260510130547 | 13 | 0 | 0.0 | 3.2 | 0.00 | 0.41 | 0.00 | 97 | 1009.7 |
| 20260510130517 | 13 | 360 | 0.0 | 3.2 | 0.00 | 0.41 | 0.00 | 97 | 1009.7 |
| 20260510130500 | 13 | 0 | 0.0 | 3.2 | 0.00 | 0.41 | 0.00 | 97 | 1009.9 |
| 20260510130455 | 13 | 0 | 0.0 | 3.2 | 0.00 | 0.41 | 0.00 | 97 | 1009.7 |
| 20260510130245 | 13 | 0 | 0.0 | 3.2 | 0.00 | 0.41 | 0.00 | 97 | 1010.0 |
| 20260510130220 | 13 | 0 | 0.0 | 1.6 | 0.00 | 0.41 | 0.00 | 97 | 1010.2 |
| 20260510130213 | 13 | 0 | 0.0 | 1.6 | 0.00 | 0.41 | 0.00 | 97 | 1010.2 |
| 20260510130203 | 13 | 0 | 0.0 | 1.6 | 0.00 | 0.41 | 0.00 | 97 | 1010.2 |
| 20260510130017 | 13 | 360 | 0.0 | 0.0 | 0.00 | 0.41 | 0.00 | 97 | 1010.2 |
| 20260510125842 | 13 | 0 | 0.0 | 1.6 | 0.00 | 0.41 | 0.00 | 97 | 1010.3 |
| 20260510125742 | 13 | 0 | 0.0 | 1.6 | 0.00 | 0.41 | 0.00 | 97 | 1010.3 |
| 20260510125621 | 13 | 0 | 0.0 | 1.6 | 0.00 | 0.41 | 0.00 | 97 | 1010.3 |
| 20260510125541 | 13 | 0 | 0.0 | 1.6 | 0.00 | 0.41 | 0.00 | 97 | 1010.4 |
| 20260510125517 | 13 | 360 | 0.0 | 0.0 | 0.00 | 0.41 | 0.00 | 97 | 1010.4 |
| 20260510125441 | 13 | 0 | 0.0 | 1.6 | 0.00 | 0.41 | 0.00 | 97 | 1010.4 |
| 20260510125344 | 13 | 0 | 0.0 | 1.6 | 0.00 | 0.41 | 0.00 | 97 | 1010.4 |
| 20260510125339 | 13 | 263 | 0.0 | 0.0 | 0.00 | 0.41 | 0.00 | 97 | 1010.5 |
| 20260510125240 | 13 | 0 | 0.0 | 1.6 | 0.00 | 0.41 | 0.00 | 97 | 1010.5 |
| 20260510125225 | 13 | 263 | 0.0 | 0.0 | 0.00 | 0.41 | 0.00 | 97 | 1010.5 |
| 20260510125039 | 13 | 263 | 0.0 | 0.0 | 0.00 | 0.41 | 0.00 | 97 | 1010.4 |
| 20260510125017 | 13 | 263 | 0.0 | 0.0 | 0.00 | 0.41 | 0.00 | 97 | 1010.4 |
| 20260510124936 | 13 | 263 | 0.0 | 0.0 | 0.00 | 0.41 | 0.00 | 97 | 1010.4 |
| 20260510124836 | 13 | 263 | 0.0 | 0.0 | 0.00 | 0.41 | 0.00 | 97 | 1010.4 |
| 20260510124736 | 13 | 263 | 0.0 | 0.0 | 0.00 | 0.41 | 0.00 | 97 | 1010.3 |
| 20260510124656 | 13 | 263 | 0.0 | 0.0 | 0.00 | 0.41 | 0.00 | 97 | 1010.0 |
| 20260510124646 | 13 | 263 | 0.0 | 0.0 | 0.00 | 0.41 | 0.00 | 97 | 1010.1 |
| 20260510124517 | 13 | 263 | 0.0 | 0.0 | 0.00 | 0.41 | 0.00 | 97 | 1009.9 |
| 20260510124435 | 13 | 263 | 0.0 | 0.0 | 0.00 | 0.41 | 0.00 | 97 | 1009.9 |
| 20260510124335 | 13 | 0 | 0.0 | 0.0 | 0.00 | 0.41 | 0.00 | 97 | 1009.8 |
| 20260510124234 | 13 | 0 | 0.0 | 0.0 | 0.00 | 0.41 | 0.00 | 97 | 1009.3 |
| 20260510124120 | 13 | 0 | 0.0 | 0.0 | 0.00 | 0.41 | 0.00 | 97 | 1009.2 |
| 20260510124033 | 13 | 0 | 0.0 | 0.0 | 0.00 | 0.41 | 0.00 | 97 | 1009.8 |
| 20260510124017 | 13 | 360 | 0.0 | 0.0 | 0.00 | 0.41 | 0.00 | 97 | 1009.7 |
| 20260510123933 | 13 | 0 | 0.0 | 0.0 | 0.00 | 0.41 | 0.00 | 97 | 1009.7 |
| 20260510123846 | 13 | 266 | 0.0 | 0.0 | 0.00 | 0.41 | 0.00 | 97 | 1010.3 |
| 20260510123841 | 13 | 266 | 0.0 | 0.0 | 0.00 | 0.41 | 0.00 | 97 | 1010.2 |
| 20260510123631 | 13 | 272 | 0.0 | 0.0 | 0.00 | 0.41 | 0.00 | 97 | 1010.2 |
| 20260510123618 | 13 | 272 | 0.0 | 0.0 | 0.00 | 0.41 | 0.00 | 97 | 1010.2 |
| 20260510123532 | 13 | 273 | 0.0 | 0.0 | 0.00 | 0.41 | 0.00 | 97 | 1010.2 |
| 20260510123430 | 13 | 273 | 0.0 | 0.0 | 0.00 | 0.41 | 0.00 | 97 | 1010.2 |
| 20260510123330 | 13 | 273 | 0.0 | 0.0 | 0.00 | 0.41 | 0.00 | 97 | 1010.1 |
| 20260510123229 | 13 | 273 | 0.0 | 0.0 | 0.00 | 0.41 | 0.00 | 97 | 1010.1 |
| 20260510123117 | 12 | 273 | 0.0 | 0.0 | 0.00 | 0.41 | 0.00 | 97 | 1010.1 |
| 20260510123043 | 12 | 273 | 0.0 | 0.0 | 0.00 | 0.41 | 0.00 | 97 | 1010.1 |
| 20260510123037 | 12 | 273 | 0.0 | 0.0 | 0.00 | 0.41 | 0.00 | 97 | 1010.1 |
| 20260510122827 | 12 | 273 | 0.0 | 0.0 | 0.00 | 0.41 | 0.00 | 97 | 1009.9 |
| 20260510122727 | 12 | 273 | 0.0 | 0.0 | 0.00 | 0.41 | 0.00 | 97 | 1009.9 |
| 20260510122644 | 12 | 272 | 0.0 | 0.0 | 0.00 | 0.41 | 0.00 | 97 | 1009.7 |
| 20260510122639 | 12 | 272 | 0.0 | 0.0 | 0.00 | 0.41 | 0.00 | 97 | 1009.8 |
| 20260510122635 | 12 | 273 | 0.0 | 0.0 | 0.00 | 0.41 | 0.00 | 97 | 1009.8 |
| 20260510122518 | 12 | 271 | 0.0 | 0.0 | 0.00 | 0.41 | 0.00 | 97 | 1009.7 |
| 20260510122424 | 12 | 0 | 0.0 | 0.0 | 0.00 | 0.41 | 0.00 | 97 | 1009.7 |
| 20260510122324 | 12 | 0 | 0.0 | 0.0 | 0.00 | 0.41 | 0.00 | 97 | 1009.3 |
| 20260510122223 | 12 | 0 | 0.0 | 0.0 | 0.00 | 0.41 | 0.00 | 97 | 1008.8 |
| 20260510122114 | 12 | 0 | 0.0 | 0.0 | 0.00 | 0.41 | 0.00 | 97 | 1009.4 |
| 20260510122047 | 12 | 360 | 0.0 | 0.0 | 0.00 | 0.41 | 0.00 | 97 | 1010.0 |
| 20260510122022 | 12 | 0 | 0.0 | 0.0 | 0.00 | 0.41 | 0.00 | 97 | 1009.8 |
| 20260510121920 | 12 | 0 | 0.0 | 0.0 | 0.00 | 0.41 | 0.00 | 97 | 1010.0 |
| 20260510121820 | 12 | 0 | 0.0 | 0.0 | 0.00 | 0.41 | 0.00 | 97 | 1010.1 |
| 20260510121719 | 12 | 0 | 0.0 | 0.0 | 0.00 | 0.41 | 0.00 | 97 | 1010.1 |
| 20260510121614 | 12 | 0 | 0.0 | 0.0 | 0.00 | 0.41 | 0.00 | 97 | 1010.2 |
| 20260510121518 | 12 | 0 | 0.0 | 0.0 | 0.00 | 0.41 | 0.00 | 97 | 1010.2 |
| 20260510121418 | 12 | 0 | 0.0 | 0.0 | 0.00 | 0.41 | 0.00 | 97 | 1010.1 |
| 20260510121318 | 12 | 0 | 0.0 | 0.0 | 0.00 | 0.41 | 0.00 | 97 | 1010.0 |
| 20260510121217 | 12 | 0 | 0.0 | 0.0 | 0.00 | 0.41 | 0.00 | 97 | 1010.0 |
| 20260510121113 | 12 | 0 | 0.0 | 0.0 | 0.00 | 0.41 | 0.00 | 97 | 1009.7 |
| 20260510121017 | 12 | 360 | 0.0 | 0.0 | 0.00 | 0.41 | 0.00 | 97 | 1009.7 |
| 20260510121015 | 12 | 0 | 0.0 | 0.0 | 0.00 | 0.41 | 0.00 | 97 | 1009.6 |
| 20260510120916 | 12 | 0 | 0.0 | 0.0 | 0.00 | 0.41 | 0.00 | 97 | 1009.7 |
| 20260510120858 | 12 | 0 | 0.0 | 0.0 | 0.00 | 0.41 | 0.00 | 97 | 1009.9 |
| 20260510120853 | 12 | 0 | 0.0 | 0.0 | 0.00 | 0.41 | 0.00 | 97 | 1009.8 |
| 20260510120845 | 12 | 0 | 0.0 | 0.0 | 0.00 | 0.41 | 0.00 | 97 | 1009.7 |
| 20260510120836 | 12 | 0 | 0.0 | 0.0 | 0.00 | 0.41 | 0.00 | 97 | 1010.0 |
| 20260510120517 | 12 | 360 | 0.0 | 0.0 | 0.00 | 0.41 | 0.00 | 97 | 1009.9 |
| 20260510120412 | 12 | 0 | 0.0 | 0.0 | 0.00 | 0.41 | 0.00 | 97 | 1009.9 |
| 20260510120312 | 12 | 0 | 0.0 | 0.0 | 0.00 | 0.41 | 0.00 | 97 | 1010.0 |
| 20260510120211 | 12 | 0 | 0.0 | 0.0 | 0.00 | 0.41 | 0.00 | 97 | 1009.9 |
| 20260510120110 | 12 | 0 | 0.0 | 0.0 | 0.00 | 0.41 | 0.00 | 97 | 1009.9 |
| 20260510120017 | 12 | 360 | 0.0 | 0.0 | 0.00 | 0.41 | 0.00 | 97 | 1009.9 |
| 20260510120010 | 12 | 0 | 0.0 | 0.0 | 0.00 | 0.41 | 0.00 | 97 | 1009.9 |
| 20260510115909 | 12 | 0 | 0.0 | 0.0 | 0.00 | 0.41 | 0.00 | 97 | 1009.9 |
| 20260510115808 | 12 | 0 | 0.0 | 0.0 | 0.00 | 0.41 | 0.00 | 97 | 1009.9 |
| 20260510115708 | 12 | 0 | 0.0 | 0.0 | 0.00 | 0.41 | 0.00 | 97 | 1009.9 |
| 20260510115607 | 12 | 0 | 0.0 | 0.0 | 0.00 | 0.41 | 0.00 | 97 | 1009.9 |
| 20260510115517 | 12 | 360 | 0.0 | 0.0 | 0.00 | 0.41 | 0.00 | 97 | 1009.9 |
| 20260510115507 | 12 | 0 | 0.0 | 0.0 | 0.00 | 0.41 | 0.00 | 97 | 1009.9 |
| 20260510115406 | 12 | 0 | 0.0 | 0.0 | 0.00 | 0.41 | 0.00 | 97 | 1009.9 |
| 20260510115306 | 11 | 0 | 0.0 | 0.0 | 0.00 | 0.41 | 0.00 | 97 | 1009.9 |
| 20260510115205 | 11 | 0 | 0.0 | 0.0 | 0.00 | 0.41 | 0.00 | 97 | 1009.9 |
| 20260510115112 | 11 | 0 | 0.0 | 0.0 | 0.00 | 0.41 | 0.00 | 97 | 1009.9 |
| 20260510115104 | 11 | 0 | 0.0 | 0.0 | 0.00 | 0.41 | 0.00 | 97 | 1009.9 |
| 20260510115032 | 11 | 360 | 0.0 | 0.0 | 0.00 | 0.41 | 0.00 | 97 | 1009.8 |
| 20260510115004 | 11 | 0 | 0.0 | 0.0 | 0.00 | 0.41 | 0.00 | 97 | 1009.8 |
| 20260510114904 | 11 | 0 | 0.0 | 0.0 | 0.00 | 0.41 | 0.00 | 97 | 1009.9 |
| 20260510114803 | 11 | 0 | 0.0 | 0.0 | 0.00 | 0.41 | 0.00 | 97 | 1009.8 |
| 20260510114701 | 11 | 0 | 0.0 | 0.0 | 0.00 | 0.41 | 0.00 | 97 | 1009.8 |
| 20260510114601 | 11 | 0 | 0.0 | 0.0 | 0.00 | 0.41 | 0.00 | 97 | 1009.7 |
| 20260510114517 | 11 | 360 | 0.0 | 0.0 | 0.00 | 0.41 | 0.00 | 97 | 1009.6 |
| 20260510114501 | 11 | 0 | 0.0 | 0.0 | 0.00 | 0.41 | 0.00 | 97 | 1009.6 |
| 20260510114400 | 11 | 0 | 0.0 | 0.0 | 0.00 | 0.41 | 0.00 | 97 | 1009.6 |
| 20260510114300 | 11 | 0 | 0.0 | 0.0 | 0.00 | 0.41 | 0.00 | 97 | 1009.6 |
| 20260510114200 | 11 | 0 | 0.0 | 0.0 | 0.00 | 0.41 | 0.00 | 97 | 1009.6 |
| 20260510114113 | 11 | 0 | 0.0 | 0.0 | 0.00 | 0.41 | 0.00 | 97 | 1009.6 |
| 20260510114059 | 11 | 0 | 0.0 | 0.0 | 0.00 | 0.41 | 0.00 | 97 | 1009.6 |
| 20260510114017 | 11 | 360 | 0.0 | 0.0 | 0.00 | 0.41 | 0.00 | 97 | 1009.6 |
| 20260510113958 | 11 | 0 | 0.0 | 0.0 | 0.00 | 0.41 | 0.00 | 97 | 1009.6 |
| 20260510113858 | 11 | 0 | 0.0 | 0.0 | 0.00 | 0.41 | 0.00 | 97 | 1009.4 |
| 20260510113757 | 11 | 0 | 0.0 | 0.0 | 0.00 | 0.41 | 0.00 | 97 | 1009.4 |
| 20260510113657 | 11 | 0 | 0.0 | 0.0 | 0.00 | 0.41 | 0.00 | 97 | 1009.5 |
| 20260510113625 | 11 | 0 | 0.0 | 0.0 | 0.00 | 0.41 | 0.00 | 97 | 1009.6 |
| 20260510113618 | 11 | 0 | 0.0 | 0.0 | 0.00 | 0.41 | 0.00 | 97 | 1009.6 |
| 20260510113518 | 11 | 360 | 0.0 | 0.0 | 0.00 | 0.41 | 0.00 | 97 | 1009.6 |
| 20260510113505 | 11 | 0 | 0.0 | 0.0 | 0.00 | 0.41 | 0.00 | 97 | 1009.6 |
| 20260510113342 | 11 | 0 | 0.0 | 0.0 | 0.00 | 0.41 | 0.00 | 97 | 1009.6 |
| 20260510113337 | 11 | 0 | 0.0 | 0.0 | 0.00 | 0.41 | 0.00 | 97 | 1009.5 |
| 20260510113329 | 11 | 0 | 0.0 | 0.0 | 0.00 | 0.41 | 0.00 | 97 | 1009.6 |
| 20260510113054 | 11 | 0 | 0.0 | 0.0 | 0.00 | 0.41 | 0.00 | 97 | 1009.6 |
| 20260510113017 | 11 | 360 | 0.0 | 0.0 | 0.00 | 0.41 | 0.00 | 97 | 1009.7 |
| 20260510112954 | 11 | 0 | 0.0 | 0.0 | 0.00 | 0.41 | 0.00 | 97 | 1009.6 |
| 20260510112853 | 11 | 0 | 0.0 | 0.0 | 0.00 | 0.41 | 0.00 | 97 | 1009.7 |
| 20260510112753 | 11 | 0 | 0.0 | 0.0 | 0.00 | 0.41 | 0.00 | 97 | 1009.7 |
| 20260510112653 | 11 | 0 | 0.0 | 0.0 | 0.00 | 0.41 | 0.00 | 97 | 1009.7 |
| 20260510112612 | 11 | 0 | 0.0 | 0.0 | 0.00 | 0.41 | 0.00 | 97 | 1009.7 |
| 20260510112551 | 11 | 0 | 0.0 | 0.0 | 0.00 | 0.41 | 0.00 | 97 | 1009.7 |
| 20260510112532 | 11 | 360 | 0.0 | 0.0 | 0.00 | 0.41 | 0.00 | 97 | 1009.7 |
| 20260510112451 | 11 | 0 | 0.0 | 0.0 | 0.00 | 0.41 | 0.00 | 97 | 1009.6 |
| 20260510112350 | 11 | 0 | 0.0 | 0.0 | 0.00 | 0.41 | 0.00 | 97 | 1009.6 |
| 20260510112250 | 11 | 0 | 0.0 | 0.0 | 0.00 | 0.41 | 0.00 | 97 | 1009.6 |
| 20260510112149 | 11 | 0 | 0.0 | 0.0 | 0.00 | 0.41 | 0.00 | 97 | 1009.7 |
| 20260510112115 | 11 | 0 | 0.0 | 0.0 | 0.00 | 0.41 | 0.00 | 97 | 1009.8 |
| 20260510112109 | 11 | 0 | 0.0 | 0.0 | 0.00 | 0.41 | 0.00 | 97 | 1009.8 |
| 20260510112017 | 11 | 360 | 0.0 | 0.0 | 0.00 | 0.41 | 0.00 | 97 | 1009.9 |
| 20260510111955 | 11 | 0 | 0.0 | 0.0 | 0.00 | 0.41 | 0.00 | 97 | 1009.8 |
| 20260510111841 | 10 | 0 | 0.0 | 0.0 | 0.00 | 0.41 | 0.00 | 97 | 1009.7 |
| 20260510111837 | 10 | 0 | 0.0 | 0.0 | 0.00 | 0.41 | 0.00 | 97 | 1009.8 |
| 20260510111828 | 10 | 0 | 0.0 | 0.0 | 0.00 | 0.41 | 0.00 | 97 | 1009.7 |
| 20260510111543 | 10 | 0 | 0.0 | 0.0 | 0.00 | 0.41 | 0.00 | 97 | 1009.8 |
| 20260510111517 | 11 | 360 | 0.0 | 0.0 | 0.00 | 0.41 | 0.00 | 97 | 1009.8 |
| 20260510111457 | 10 | 0 | 0.0 | 0.0 | 0.00 | 0.41 | 0.00 | 97 | 1009.8 |
| 20260510111452 | 10 | 0 | 0.0 | 0.0 | 0.00 | 0.41 | 0.00 | 97 | 1009.7 |
| 20260510111242 | 10 | 0 | 0.0 | 0.0 | 0.00 | 0.41 | 0.00 | 97 | 1009.7 |
| 20260510111142 | 10 | 0 | 0.0 | 0.0 | 0.00 | 0.41 | 0.00 | 97 | 1009.7 |
| 20260510111110 | 10 | 0 | 0.0 | 0.0 | 0.00 | 0.41 | 0.00 | 97 | 1009.7 |
| 20260510111056 | 10 | 0 | 0.0 | 0.0 | 0.00 | 0.41 | 0.00 | 97 | 1009.6 |
| 20260510111051 | 10 | 0 | 0.0 | 0.0 | 0.00 | 0.41 | 0.00 | 97 | 1009.7 |
| 20260510111017 | 10 | 360 | 0.0 | 0.0 | 0.00 | 0.41 | 0.00 | 97 | 1009.7 |
| 20260510110841 | 10 | 0 | 0.0 | 0.0 | 0.00 | 0.41 | 0.00 | 97 | 1009.6 |
| 20260510110741 | 10 | 0 | 0.0 | 0.0 | 0.00 | 0.41 | 0.00 | 97 | 1009.6 |
| 20260510110641 | 10 | 0 | 0.0 | 0.0 | 0.00 | 0.41 | 0.00 | 97 | 1009.6 |
| 20260510110609 | 10 | 0 | 0.0 | 0.0 | 0.00 | 0.41 | 0.00 | 97 | 1009.6 |
| 20260510110602 | 10 | 0 | 0.0 | 0.0 | 0.00 | 0.41 | 0.00 | 97 | 1009.6 |
| 20260510110517 | 10 | 360 | 0.0 | 0.0 | 0.00 | 0.41 | 0.00 | 97 | 1009.7 |
| 20260510110448 | 10 | 0 | 0.0 | 0.0 | 0.00 | 0.41 | 0.00 | 97 | 1009.6 |
| 20260510110255 | 10 | 0 | 0.0 | 0.0 | 0.00 | 0.41 | 0.00 | 97 | 1009.6 |
| 20260510110250 | 10 | 0 | 0.0 | 0.0 | 0.00 | 0.41 | 0.00 | 97 | 1009.6 |
| 20260510110108 | 10 | 0 | 0.0 | 0.0 | 0.00 | 0.41 | 0.00 | 97 | 1009.6 |
| 20260510110040 | 10 | 0 | 0.0 | 0.0 | 0.00 | 0.41 | 0.00 | 97 | 1009.6 |
| 20260510110017 | 10 | 360 | 0.0 | 0.0 | 0.00 | 0.41 | 0.00 | 97 | 1009.6 |
| 20260510105939 | 10 | 0 | 0.0 | 0.0 | 0.00 | 0.41 | 0.00 | 97 | 1009.5 |
| 20260510105838 | 10 | 0 | 0.0 | 0.0 | 0.00 | 0.41 | 0.00 | 97 | 1009.6 |
| 20260510105823 | 10 | 0 | 0.0 | 0.0 | 0.00 | 0.41 | 0.00 | 97 | 1009.6 |
| 20260510105737 | 10 | 0 | 0.0 | 0.0 | 0.00 | 0.41 | 0.00 | 97 | 1009.6 |
| 20260510105714 | 10 | 0 | 0.0 | 0.0 | 0.00 | 0.41 | 0.00 | 97 | 1009.6 |
| 20260510105537 | 10 | 0 | 0.0 | 0.0 | 0.00 | 0.41 | 0.00 | 97 | 1009.6 |
| 20260510105516 | 10 | 360 | 0.0 | 0.0 | 0.00 | 0.41 | 0.00 | 97 | 1009.7 |
| 20260510105458 | 10 | 0 | 0.0 | 0.0 | 0.00 | 0.41 | 0.00 | 97 | 1009.6 |
| 20260510105345 | 10 | 0 | 0.0 | 0.0 | 0.00 | 0.41 | 0.00 | 97 | 1009.6 |
| 20260510105135 | 10 | 0 | 0.0 | 0.0 | 0.00 | 0.41 | 0.00 | 97 | 1009.6 |
| 20260510105107 | 10 | 0 | 0.0 | 0.0 | 0.00 | 0.41 | 0.00 | 97 | 1009.7 |
| 20260510105035 | 10 | 0 | 0.0 | 0.0 | 0.00 | 0.41 | 0.00 | 97 | 1009.7 |
| 20260510105017 | 10 | 360 | 0.0 | 0.0 | 0.00 | 0.41 | 0.00 | 97 | 1009.8 |
| 20260510104935 | 10 | 0 | 0.0 | 0.0 | 0.00 | 0.41 | 0.00 | 97 | 1009.7 |
| 20260510104834 | 10 | 0 | 0.0 | 0.0 | 0.00 | 0.41 | 0.00 | 97 | 1009.8 |
| 20260510104734 | 10 | 0 | 0.0 | 0.0 | 0.00 | 0.41 | 0.00 | 97 | 1009.7 |
| 20260510104635 | 10 | 0 | 0.0 | 0.0 | 0.00 | 0.41 | 0.00 | 97 | 1009.7 |
| 20260510104605 | 10 | 0 | 0.0 | 0.0 | 0.00 | 0.41 | 0.00 | 97 | 1009.6 |
| 20260510104534 | 10 | 0 | 0.0 | 0.0 | 0.00 | 0.41 | 0.00 | 97 | 1009.6 |
| 20260510104531 | 10 | 360 | 0.0 | 0.0 | 0.00 | 0.41 | 0.00 | 97 | 1009.7 |
| 20260510104434 | 10 | 0 | 0.0 | 0.0 | 0.00 | 0.41 | 0.00 | 97 | 1009.6 |
| 20260510104333 | 10 | 0 | 0.0 | 0.0 | 0.00 | 0.41 | 0.00 | 97 | 1009.6 |
| 20260510104247 | 10 | 0 | 0.0 | 0.0 | 0.00 | 0.41 | 0.00 | 96 | 1009.6 |
| 20260510104241 | 10 | 0 | 0.0 | 0.0 | 0.00 | 0.41 | 0.00 | 96 | 1009.6 |
| 20260510104103 | 10 | 0 | 0.0 | 0.0 | 0.00 | 0.41 | 0.00 | 96 | 1009.6 |
| 20260510104032 | 10 | 0 | 0.0 | 0.0 | 0.00 | 0.41 | 0.00 | 96 | 1009.6 |
| 20260510104017 | 10 | 360 | 0.0 | 0.0 | 0.00 | 0.41 | 0.00 | 96 | 1009.6 |
| 20260510103945 | 10 | 0 | 0.0 | 0.0 | 0.00 | 0.41 | 0.00 | 96 | 1009.5 |
| 20260510103940 | 10 | 0 | 0.0 | 0.0 | 0.00 | 0.41 | 0.00 | 96 | 1009.5 |
| 20260510103730 | 10 | 0 | 0.0 | 0.0 | 0.00 | 0.41 | 0.00 | 96 | 1009.4 |
| 20260510103649 | 10 | 0 | 0.0 | 0.0 | 0.00 | 0.41 | 0.00 | 96 | 1009.4 |
| 20260510103644 | 10 | 0 | 0.0 | 0.0 | 0.00 | 0.41 | 0.00 | 96 | 1009.5 |
| 20260510103636 | 10 | 0 | 0.0 | 0.0 | 0.00 | 0.41 | 0.00 | 96 | 1009.4 |
| 20260510103548 | 10 | 360 | 0.0 | 0.0 | 0.00 | 0.41 | 0.00 | 96 | 1009.6 |
| 20260510103444 | 10 | 0 | 0.0 | 0.0 | 0.00 | 0.41 | 0.00 | 96 | 1009.5 |
| 20260510103439 | 10 | 0 | 0.0 | 0.0 | 0.00 | 0.41 | 0.00 | 96 | 1009.5 |
| 20260510103229 | 10 | 0 | 0.0 | 0.0 | 0.00 | 0.41 | 0.00 | 96 | 1009.5 |
| 20260510103131 | 10 | 0 | 0.0 | 0.0 | 0.00 | 0.41 | 0.00 | 96 | 1009.6 |
| 20260510103104 | 10 | 0 | 0.0 | 0.0 | 0.00 | 0.41 | 0.00 | 96 | 1009.5 |
| 20260510103029 | 10 | 0 | 0.0 | 0.0 | 0.00 | 0.41 | 0.00 | 96 | 1009.5 |
| 20260510103017 | 10 | 360 | 0.0 | 0.0 | 0.00 | 0.41 | 0.00 | 96 | 1009.6 |
| 20260510102930 | 10 | 0 | 0.0 | 0.0 | 0.00 | 0.41 | 0.00 | 96 | 1009.5 |
| 20260510102828 | 10 | 0 | 0.0 | 0.0 | 0.00 | 0.41 | 0.00 | 96 | 1009.4 |
| 20260510102728 | 10 | 0 | 0.0 | 0.0 | 0.00 | 0.41 | 0.00 | 96 | 1009.4 |
| 20260510102641 | 10 | 0 | 0.0 | 0.0 | 0.00 | 0.41 | 0.00 | 96 | 1009.3 |
| 20260510102636 | 10 | 0 | 0.0 | 0.0 | 0.00 | 0.41 | 0.00 | 96 | 1009.3 |
| 20260510102516 | 10 | 360 | 0.0 | 0.0 | 0.00 | 0.41 | 0.00 | 96 | 1009.4 |
| 20260510102436 | 10 | 0 | 0.0 | 0.0 | 0.00 | 0.41 | 0.00 | 96 | 1009.3 |
| 20260510102427 | 10 | 0 | 0.0 | 0.0 | 0.00 | 0.41 | 0.00 | 96 | 1009.3 |
| 20260510102226 | 10 | 0 | 0.0 | 0.0 | 0.00 | 0.41 | 0.00 | 96 | 1009.3 |
| 20260510102205 | 10 | 0 | 0.0 | 0.0 | 0.00 | 0.41 | 0.00 | 96 | 1009.3 |
| 20260510102025 | 10 | 0 | 0.0 | 0.0 | 0.00 | 0.41 | 0.00 | 96 | 1009.3 |
| 20260510102017 | 10 | 360 | 0.0 | 0.0 | 0.00 | 0.41 | 0.00 | 96 | 1009.5 |
| 20260510101922 | 10 | 0 | 0.0 | 0.0 | 0.00 | 0.41 | 0.00 | 96 | 1009.4 |
| 20260510101837 | 10 | 0 | 0.0 | 0.0 | 0.00 | 0.41 | 0.00 | 96 | 1009.3 |
| 20260510101833 | 10 | 0 | 0.0 | 0.0 | 0.00 | 0.41 | 0.00 | 96 | 1009.3 |
| 20260510101623 | 10 | 0 | 0.0 | 0.0 | 0.00 | 0.41 | 0.00 | 96 | 1009.3 |
| 20260510101557 | 10 | 0 | 0.0 | 0.0 | 0.00 | 0.41 | 0.00 | 96 | 1009.3 |
| 20260510101532 | 10 | 360 | 0.0 | 0.0 | 0.00 | 0.41 | 0.00 | 96 | 1009.3 |
| 20260510101523 | 10 | 0 | 0.0 | 0.0 | 0.00 | 0.41 | 0.00 | 96 | 1009.3 |
| 20260510101422 | 10 | 0 | 0.0 | 0.0 | 0.00 | 0.41 | 0.00 | 96 | 1009.2 |
| 20260510101354 | 10 | 0 | 0.0 | 0.0 | 0.00 | 0.41 | 0.00 | 96 | 1009.3 |
| 20260510101321 | 10 | 0 | 0.0 | 0.0 | 0.00 | 0.41 | 0.00 | 96 | 1009.2 |
| 20260510101247 | 10 | 0 | 0.0 | 0.0 | 0.00 | 0.41 | 0.00 | 96 | 1009.3 |
| 20260510101243 | 10 | 0 | 0.0 | 0.0 | 0.00 | 0.41 | 0.00 | 96 | 1009.2 |
| 20260510101234 | 10 | 0 | 0.0 | 0.0 | 0.00 | 0.41 | 0.00 | 96 | 1009.2 |
| 20260510101017 | 10 | 360 | 0.0 | 0.0 | 0.00 | 0.41 | 0.00 | 96 | 1009.4 |
| 20260510100919 | 10 | 0 | 0.0 | 0.0 | 0.00 | 0.41 | 0.00 | 96 | 1009.3 |
| 20260510100819 | 10 | 0 | 0.0 | 0.0 | 0.00 | 0.41 | 0.00 | 96 | 1009.2 |
| 20260510100718 | 10 | 0 | 0.0 | 0.0 | 0.00 | 0.41 | 0.00 | 96 | 1009.2 |
| 20260510100617 | 10 | 0 | 0.0 | 0.0 | 0.00 | 0.41 | 0.00 | 96 | 1009.1 |
| 20260510100554 | 10 | 0 | 0.0 | 0.0 | 0.00 | 0.41 | 0.00 | 96 | 1009.2 |
| 20260510100517 | 10 | 0 | 0.0 | 0.0 | 0.00 | 0.41 | 0.00 | 96 | 1009.2 |
| 20260510100417 | 10 | 0 | 0.0 | 0.0 | 0.00 | 0.41 | 0.00 | 96 | 1009.2 |
| 20260510100327 | 10 | 0 | 0.0 | 0.0 | 0.00 | 0.41 | 0.00 | 96 | 1009.2 |
| 20260510100321 | 10 | 0 | 0.0 | 0.0 | 0.00 | 0.41 | 0.00 | 96 | 1009.2 |
| 20260510100317 | 10 | 0 | 0.0 | 0.0 | 0.00 | 0.41 | 0.00 | 96 | 1009.2 |
| 20260510100308 | 10 | 0 | 0.0 | 0.0 | 0.00 | 0.41 | 0.00 | 96 | 1009.2 |
| 20260510100016 | 10 | 360 | 0.0 | 0.0 | 0.00 | 0.41 | 0.00 | 96 | 1009.4 |
| 20260510095915 | 10 | 0 | 0.0 | 0.0 | 0.00 | 0.41 | 0.00 | 96 | 1009.3 |
| 20260510095811 | 10 | 0 | 0.0 | 0.0 | 0.00 | 0.41 | 0.00 | 96 | 1009.3 |
| 20260510095724 | 10 | 0 | 0.0 | 0.0 | 0.00 | 0.41 | 0.00 | 97 | 1009.3 |
| 20260510095720 | 10 | 0 | 0.0 | 0.0 | 0.00 | 0.41 | 0.00 | 96 | 1009.3 |
| 20260510095552 | 10 | 0 | 0.0 | 0.0 | 0.00 | 0.41 | 0.00 | 97 | 1009.4 |
| 20260510095524 | 10 | 0 | 0.0 | 0.0 | 0.00 | 0.41 | 0.00 | 97 | 1009.4 |
| 20260510095520 | 10 | 0 | 0.0 | 0.0 | 0.00 | 0.41 | 0.00 | 96 | 1009.4 |
| 20260510095517 | 10 | 360 | 0.0 | 0.0 | 0.00 | 0.41 | 0.00 | 96 | 1009.5 |
| 20260510095310 | 10 | 0 | 0.0 | 0.0 | 0.00 | 0.41 | 0.00 | 96 | 1009.3 |
| 20260510095210 | 10 | 0 | 0.0 | 0.0 | 0.00 | 0.41 | 0.00 | 96 | 1009.3 |
| 20260510095110 | 10 | 0 | 0.0 | 0.0 | 0.00 | 0.41 | 0.00 | 96 | 1009.3 |
| 20260510095053 | 10 | 0 | 0.0 | 0.0 | 0.00 | 0.41 | 0.00 | 96 | 1009.3 |
| 20260510095017 | 10 | 360 | 0.0 | 0.0 | 0.00 | 0.41 | 0.00 | 96 | 1009.4 |
| 20260510095010 | 10 | 0 | 0.0 | 0.0 | 0.00 | 0.41 | 0.00 | 96 | 1009.3 |
| 20260510094909 | 10 | 0 | 0.0 | 0.0 | 0.00 | 0.41 | 0.00 | 96 | 1009.4 |
| 20260510094808 | 10 | 0 | 0.0 | 0.0 | 0.00 | 0.41 | 0.00 | 96 | 1009.3 |
| 20260510094708 | 10 | 0 | 0.0 | 0.0 | 0.00 | 0.41 | 0.00 | 96 | 1009.3 |
| 20260510094645 | 10 | 0 | 0.0 | 0.0 | 0.00 | 0.41 | 0.00 | 96 | 1009.3 |
| 20260510094641 | 10 | 0 | 0.0 | 0.0 | 0.00 | 0.41 | 0.00 | 96 | 1009.3 |
| 20260510094633 | 10 | 0 | 0.0 | 0.0 | 0.00 | 0.41 | 0.00 | 96 | 1009.3 |
| 20260510094629 | 10 | 0 | 0.0 | 0.0 | 0.00 | 0.41 | 0.00 | 96 | 1009.3 |
| 20260510094624 | 10 | 0 | 0.0 | 0.0 | 0.00 | 0.41 | 0.00 | 96 | 1009.3 |
| 20260510094614 | 10 | 0 | 0.0 | 0.0 | 0.00 | 0.41 | 0.00 | 96 | 1009.2 |
| 20260510094518 | 10 | 360 | 0.0 | 0.0 | 0.00 | 0.41 | 0.00 | 96 | 1009.3 |
| 20260510094137 | 10 | 0 | 0.0 | 0.0 | 0.00 | 0.41 | 0.00 | 96 | 1009.3 |
| 20260510094129 | 10 | 0 | 0.0 | 0.0 | 0.00 | 0.41 | 0.00 | 96 | 1009.4 |
| 20260510094124 | 10 | 0 | 0.0 | 0.0 | 0.00 | 0.41 | 0.00 | 96 | 1009.4 |
| 20260510094032 | 10 | 360 | 0.0 | 0.0 | 0.00 | 0.41 | 0.00 | 96 | 1009.4 |
| 20260510093805 | 10 | 0 | 0.0 | 0.0 | 0.00 | 0.41 | 0.00 | 96 | 1009.2 |
| 20260510093705 | 10 | 0 | 0.0 | 0.0 | 0.00 | 0.41 | 0.00 | 96 | 1009.3 |
| 20260510093604 | 10 | 0 | 0.0 | 0.0 | 0.00 | 0.41 | 0.00 | 96 | 1009.3 |
| 20260510093550 | 10 | 0 | 0.0 | 0.0 | 0.00 | 0.41 | 0.00 | 96 | 1009.3 |
| 20260510093518 | 10 | 360 | 0.0 | 0.0 | 0.00 | 0.41 | 0.00 | 96 | 1009.3 |
| 20260510093504 | 10 | 0 | 0.0 | 0.0 | 0.00 | 0.41 | 0.00 | 96 | 1009.2 |
| 20260510093403 | 10 | 0 | 0.0 | 0.0 | 0.00 | 0.41 | 0.00 | 96 | 1009.2 |
| 20260510093308 | 10 | 0 | 0.0 | 0.0 | 0.00 | 0.41 | 0.00 | 96 | 1009.3 |
| 20260510093303 | 10 | 0 | 0.0 | 0.0 | 0.00 | 0.41 | 0.00 | 96 | 1009.2 |
| 20260510093203 | 10 | 0 | 0.0 | 0.0 | 0.00 | 0.41 | 0.00 | 96 | 1009.2 |
| 20260510093154 | 10 | 0 | 0.0 | 0.0 | 0.00 | 0.41 | 0.00 | 96 | 1009.3 |
| 20260510093016 | 10 | 360 | 0.0 | 0.0 | 0.00 | 0.41 | 0.00 | 96 | 1009.3 |
| 20260510093002 | 10 | 0 | 0.0 | 0.0 | 0.00 | 0.41 | 0.00 | 96 | 1009.2 |
| 20260510092859 | 10 | 0 | 0.0 | 0.0 | 0.00 | 0.41 | 0.00 | 96 | 1009.2 |
| 20260510092812 | 10 | 0 | 0.0 | 0.0 | 0.00 | 0.41 | 0.00 | 96 | 1009.2 |
| 20260510092808 | 10 | 0 | 0.0 | 0.0 | 0.00 | 0.41 | 0.00 | 96 | 1009.2 |
| 20260510092616 | 10 | 0 | 0.0 | 0.0 | 0.00 | 0.41 | 0.00 | 96 | 1009.0 |
| 20260510092607 | 10 | 0 | 0.0 | 0.0 | 0.00 | 0.41 | 0.00 | 96 | 1009.1 |
| 20260510092517 | 10 | 360 | 0.0 | 0.0 | 0.00 | 0.41 | 0.00 | 96 | 1009.1 |
| 20260510092357 | 10 | 0 | 0.0 | 0.0 | 0.00 | 0.41 | 0.00 | 96 | 1008.9 |
| 20260510092257 | 10 | 0 | 0.0 | 0.0 | 0.00 | 0.41 | 0.00 | 96 | 1008.8 |
| 20260510092156 | 10 | 0 | 0.0 | 0.0 | 0.00 | 0.41 | 0.00 | 96 | 1008.8 |
| 20260510092045 | 10 | 0 | 0.0 | 0.0 | 0.00 | 0.41 | 0.00 | 96 | 1008.8 |
| 20260510092017 | 10 | 360 | 0.0 | 0.0 | 0.00 | 0.41 | 0.00 | 96 | 1009.0 |
| 20260510091956 | 10 | 0 | 0.0 | 0.0 | 0.00 | 0.41 | 0.00 | 96 | 1008.9 |
| 20260510091855 | 10 | 0 | 0.0 | 0.0 | 0.00 | 0.41 | 0.00 | 96 | 1008.9 |
| 20260510091755 | 10 | 0 | 0.0 | 0.0 | 0.00 | 0.41 | 0.00 | 97 | 1008.8 |
| 20260510091655 | 10 | 0 | 0.0 | 0.0 | 0.00 | 0.41 | 0.00 | 96 | 1008.9 |
| 20260510091602 | 10 | 360 | 0.0 | 0.0 | 0.00 | 0.41 | 0.00 | 96 | 1008.9 |
| 20260510091543 | 10 | 0 | 0.0 | 0.0 | 0.00 | 0.41 | 0.00 | 96 | 1008.8 |
| 20260510091454 | 10 | 0 | 0.0 | 0.0 | 0.00 | 0.41 | 0.00 | 96 | 1008.8 |
| 20260510091406 | 10 | 0 | 0.0 | 0.0 | 0.00 | 0.41 | 0.00 | 96 | 1008.8 |
| 20260510091402 | 10 | 0 | 0.0 | 0.0 | 0.00 | 0.41 | 0.00 | 96 | 1008.8 |
| 20260510091151 | 10 | 0 | 0.0 | 0.0 | 0.00 | 0.41 | 0.00 | 97 | 1008.8 |
| 20260510091043 | 10 | 0 | 0.0 | 0.0 | 0.00 | 0.41 | 0.00 | 97 | 1008.8 |
| 20260510091018 | 10 | 0 | 0.0 | 0.0 | 0.00 | 0.41 | 0.00 | 96 | 1008.9 |
| 20260510091013 | 10 | 0 | 0.0 | 0.0 | 0.00 | 0.41 | 0.00 | 96 | 1008.9 |
| 20260510091009 | 10 | 0 | 0.0 | 0.0 | 0.00 | 0.41 | 0.00 | 97 | 1008.8 |
| 20260510090649 | 10 | 0 | 0.0 | 0.0 | 0.00 | 0.41 | 0.00 | 96 | 1008.9 |
| 20260510090639 | 10 | 0 | 0.0 | 0.0 | 0.00 | 0.41 | 0.00 | 96 | 1008.9 |
| 20260510090625 | 10 | 0 | 0.0 | 0.0 | 0.00 | 0.41 | 0.00 | 96 | 1008.9 |
| 20260510090517 | 10 | 360 | 0.0 | 0.0 | 0.00 | 0.41 | 0.00 | 96 | 1009.0 |
| 20260510090357 | 10 | 0 | 0.0 | 0.0 | 0.00 | 0.41 | 0.00 | 96 | 1008.9 |
| 20260510090148 | 10 | 0 | 0.0 | 0.0 | 0.00 | 0.41 | 0.00 | 96 | 1009.0 |
| 20260510090040 | 10 | 0 | 0.0 | 0.0 | 0.00 | 0.41 | 0.00 | 96 | 1009.1 |
| 20260510090017 | 10 | 360 | 0.0 | 0.0 | 0.00 | 0.41 | 0.00 | 96 | 1009.2 |
| 20260510085946 | 10 | 0 | 0.0 | 0.0 | 0.00 | 0.41 | 0.00 | 96 | 1009.1 |
| 20260510085846 | 10 | 0 | 0.0 | 0.0 | 0.00 | 0.41 | 0.00 | 96 | 1009.2 |
| 20260510085811 | 10 | 0 | 0.0 | 0.0 | 0.00 | 0.41 | 0.00 | 96 | 1009.1 |
| 20260510085806 | 10 | 0 | 0.0 | 0.0 | 0.00 | 0.41 | 0.00 | 96 | 1009.2 |
| 20260510085802 | 10 | 0 | 0.0 | 0.0 | 0.00 | 0.41 | 0.00 | 96 | 1009.1 |
| 20260510085643 | 10 | 0 | 0.0 | 0.0 | 0.00 | 0.41 | 0.00 | 96 | 1009.2 |
| 20260510085517 | 10 | 360 | 0.0 | 0.0 | 0.00 | 0.41 | 0.00 | 96 | 1009.3 |
| 20260510085443 | 10 | 0 | 0.0 | 0.0 | 0.00 | 0.41 | 0.00 | 96 | 1009.2 |
| 20260510085413 | 10 | 0 | 0.0 | 0.0 | 0.00 | 0.41 | 0.00 | 96 | 1009.3 |
| 20260510085243 | 10 | 0 | 0.0 | 0.0 | 0.00 | 0.41 | 0.00 | 96 | 1009.3 |
| 20260510085152 | 10 | 0 | 0.0 | 0.0 | 0.00 | 0.41 | 0.00 | 96 | 1009.2 |
| 20260510085142 | 10 | 0 | 0.0 | 0.0 | 0.00 | 0.41 | 0.00 | 96 | 1009.2 |
| 20260510085017 | 10 | 360 | 0.0 | 0.0 | 0.00 | 0.41 | 0.00 | 96 | 1009.3 |
| 20260510084942 | 10 | 0 | 0.0 | 0.0 | 0.00 | 0.41 | 0.00 | 96 | 1009.2 |
| 20260510084854 | 10 | 0 | 0.0 | 0.0 | 0.00 | 0.41 | 0.00 | 96 | 1009.2 |
| 20260510084850 | 10 | 0 | 0.0 | 0.0 | 0.00 | 0.41 | 0.00 | 96 | 1009.2 |
| 20260510084640 | 10 | 0 | 0.0 | 0.0 | 0.00 | 0.41 | 0.00 | 96 | 1009.2 |
| 20260510084559 | 10 | 0 | 0.0 | 0.0 | 0.00 | 0.41 | 0.00 | 96 | 1009.2 |
| 20260510084551 | 10 | 0 | 0.0 | 0.0 | 0.00 | 0.41 | 0.00 | 96 | 1009.2 |
| 20260510084517 | 10 | 360 | 0.0 | 0.0 | 0.00 | 0.41 | 0.00 | 96 | 1009.3 |
| 20260510084339 | 10 | 0 | 0.0 | 0.0 | 0.00 | 0.41 | 0.00 | 96 | 1009.3 |
| 20260510084239 | 10 | 0 | 0.0 | 0.0 | 0.00 | 0.41 | 0.00 | 96 | 1009.3 |
| 20260510084138 | 10 | 0 | 0.0 | 0.0 | 0.00 | 0.41 | 0.00 | 97 | 1009.3 |
| 20260510084035 | 10 | 0 | 0.0 | 0.0 | 0.00 | 0.41 | 0.00 | 96 | 1009.4 |
| 20260510084017 | 10 | 360 | 0.0 | 0.0 | 0.00 | 0.41 | 0.00 | 96 | 1009.5 |
| 20260510083940 | 10 | 0 | 0.0 | 0.0 | 0.00 | 0.41 | 0.00 | 96 | 1009.4 |
| 20260510083935 | 10 | 0 | 0.0 | 0.0 | 0.00 | 0.41 | 0.00 | 97 | 1009.3 |
| 20260510083930 | 10 | 0 | 0.0 | 0.0 | 0.00 | 0.41 | 0.00 | 97 | 1009.2 |
| 20260510083922 | 10 | 0 | 0.0 | 0.0 | 0.00 | 0.41 | 0.00 | 97 | 1009.3 |
| 20260510083546 | 10 | 0 | 0.0 | 0.0 | 0.00 | 0.41 | 0.00 | 97 | 1009.2 |
| 20260510083517 | 10 | 360 | 0.0 | 0.0 | 0.00 | 0.41 | 0.00 | 97 | 1009.3 |
| 20260510083335 | 10 | 0 | 0.0 | 0.0 | 0.00 | 0.41 | 0.00 | 97 | 1009.2 |
| 20260510083235 | 10 | 0 | 0.0 | 4.8 | 0.00 | 0.41 | 0.00 | 97 | 1009.3 |
| 20260510083134 | 10 | 0 | 0.0 | 4.8 | 0.00 | 0.41 | 0.00 | 97 | 1009.4 |
| 20260510083052 | 10 | 0 | 0.0 | 4.8 | 0.00 | 0.41 | 0.00 | 97 | 1009.3 |
| 20260510083044 | 10 | 0 | 0.0 | 4.8 | 0.00 | 0.41 | 0.00 | 97 | 1009.4 |
| 20260510083017 | 10 | 360 | 0.0 | 4.8 | 0.00 | 0.41 | 0.00 | 97 | 1009.4 |
| 20260510082832 | 10 | 0 | 0.0 | 4.8 | 0.00 | 0.41 | 0.00 | 97 | 1009.2 |
| 20260510082732 | 10 | 0 | 0.0 | 4.8 | 0.00 | 0.41 | 0.00 | 97 | 1009.2 |
| 20260510082632 | 10 | 0 | 0.0 | 4.8 | 0.00 | 0.41 | 0.00 | 96 | 1009.3 |
| 20260510082531 | 10 | 0 | 0.0 | 4.8 | 0.00 | 0.41 | 0.00 | 96 | 1009.5 |
| 20260510082517 | 10 | 360 | 0.0 | 4.8 | 0.00 | 0.41 | 0.00 | 96 | 1009.6 |
| 20260510082456 | 10 | 0 | 0.0 | 0.0 | 0.00 | 0.41 | 0.00 | 96 | 1009.2 |
| 20260510082450 | 10 | 0 | 0.0 | 4.8 | 0.00 | 0.41 | 0.00 | 96 | 1009.5 |
| 20260510082337 | 10 | 0 | 0.0 | 4.8 | 0.00 | 0.41 | 0.00 | 96 | 1009.5 |
| 20260510082328 | 10 | 0 | 0.0 | 3.2 | 0.00 | 0.41 | 0.00 | 96 | 1009.4 |
| 20260510082210 | 10 | 0 | 0.0 | 0.0 | 0.00 | 0.41 | 0.00 | 96 | 1009.1 |
| 20260510082117 | 10 | 360 | 0.0 | 0.0 | 0.00 | 0.41 | 0.00 | 96 | 1009.2 |
| 20260510081950 | 10 | 0 | 0.0 | 0.0 | 0.00 | 0.41 | 0.00 | 97 | 1009.5 |
| 20260510081946 | 10 | 0 | 0.0 | 0.0 | 0.00 | 0.41 | 0.00 | 96 | 1009.1 |
| 20260510081628 | 10 | 0 | 0.0 | 0.0 | 0.00 | 0.41 | 0.00 | 97 | 1009.5 |
| 20260510081527 | 10 | 0 | 0.0 | 0.0 | 0.00 | 0.41 | 0.00 | 97 | 1009.5 |
| 20260510081517 | 10 | 360 | 0.0 | 0.0 | 0.00 | 0.41 | 0.00 | 97 | 1009.5 |
| 20260510081427 | 10 | 0 | 0.0 | 0.0 | 0.00 | 0.41 | 0.00 | 97 | 1009.4 |
| 20260510081326 | 9 | 0 | 0.0 | 0.0 | 0.00 | 0.41 | 0.00 | 97 | 1009.1 |
| 20260510081226 | 9 | 0 | 0.0 | 0.0 | 0.00 | 0.41 | 0.00 | 97 | 1008.9 |
| 20260510081123 | 9 | 0 | 0.0 | 0.0 | 0.00 | 0.41 | 0.00 | 97 | 1009.0 |
| 20260510081023 | 9 | 0 | 0.0 | 0.0 | 0.00 | 0.41 | 0.00 | 97 | 1009.1 |
| 20260510081017 | 9 | 360 | 0.0 | 0.0 | 0.00 | 0.41 | 0.00 | 96 | 1009.4 |
| 20260510080922 | 9 | 0 | 0.0 | 0.0 | 0.00 | 0.41 | 0.00 | 96 | 1009.3 |
| 20260510080822 | 9 | 0 | 0.0 | 0.0 | 0.00 | 0.41 | 0.00 | 96 | 1009.4 |
| 20260510080722 | 9 | 0 | 0.0 | 0.0 | 0.00 | 0.41 | 0.00 | 96 | 1009.4 |
| 20260510080622 | 9 | 0 | 0.0 | 0.0 | 0.00 | 0.41 | 0.00 | 96 | 1009.1 |
| 20260510080521 | 9 | 0 | 0.0 | 0.0 | 0.00 | 0.41 | 0.00 | 96 | 1008.9 |
| 20260510080517 | 9 | 360 | 0.0 | 0.0 | 0.00 | 0.41 | 0.00 | 96 | 1009.1 |
| 20260510080434 | 9 | 0 | 0.0 | 0.0 | 0.00 | 0.41 | 0.00 | 96 | 1009.1 |
| 20260510080429 | 9 | 0 | 0.0 | 0.0 | 0.00 | 0.41 | 0.00 | 96 | 1009.0 |
| 20260510080220 | 9 | 0 | 0.0 | 0.0 | 0.00 | 0.41 | 0.00 | 96 | 1009.3 |
| 20260510080119 | 9 | 0 | 0.0 | 0.0 | 0.00 | 0.41 | 0.00 | 96 | 1009.3 |
| 20260510080040 | 9 | 0 | 0.0 | 0.0 | 0.00 | 0.41 | 0.00 | 96 | 1009.3 |
| 20260510080032 | 9 | 360 | 0.0 | 0.0 | 0.00 | 0.41 | 0.00 | 96 | 1009.1 |
| 20260510075927 | 9 | 0 | 0.0 | 0.0 | 0.00 | 0.41 | 0.00 | 96 | 1009.0 |
| 20260510075718 | 9 | 0 | 0.0 | 0.0 | 0.00 | 0.41 | 0.00 | 96 | 1008.6 |
| 20260510075617 | 9 | 0 | 0.0 | 0.0 | 0.00 | 0.41 | 0.00 | 96 | 1008.5 |
| 20260510075517 | 9 | 360 | 0.0 | 0.0 | 0.00 | 0.41 | 0.00 | 96 | 1008.5 |
| 20260510075514 | 9 | 0 | 0.0 | 0.0 | 0.00 | 0.41 | 0.00 | 96 | 1008.5 |
| 20260510075414 | 9 | 0 | 0.0 | 0.0 | 0.00 | 0.41 | 0.00 | 96 | 1008.5 |
| 20260510075313 | 9 | 0 | 0.0 | 0.0 | 0.00 | 0.41 | 0.00 | 96 | 1008.5 |
| 20260510075226 | 9 | 0 | 0.0 | 0.0 | 0.00 | 0.41 | 0.00 | 96 | 1008.5 |
| 20260510075222 | 9 | 0 | 0.0 | 0.0 | 0.00 | 0.41 | 0.00 | 96 | 1008.5 |
| 20260510075017 | 9 | 360 | 0.0 | 0.0 | 0.00 | 0.41 | 0.00 | 96 | 1008.5 |
| 20260510075011 | 9 | 0 | 0.0 | 0.0 | 0.00 | 0.41 | 0.00 | 96 | 1008.5 |
| 20260510074936 | 9 | 0 | 0.0 | 0.0 | 0.00 | 0.41 | 0.00 | 96 | 1008.4 |
| 20260510074931 | 9 | 0 | 0.0 | 0.0 | 0.00 | 0.41 | 0.00 | 96 | 1008.4 |
| 20260510074927 | 9 | 0 | 0.0 | 0.0 | 0.00 | 0.41 | 0.00 | 96 | 1008.5 |
| 20260510074608 | 9 | 0 | 0.0 | 0.0 | 0.00 | 0.41 | 0.00 | 96 | 1008.5 |
| 20260510074526 | 9 | 0 | 0.0 | 0.0 | 0.00 | 0.41 | 0.00 | 96 | 1008.5 |
| 20260510074518 | 9 | 360 | 0.0 | 0.0 | 0.00 | 0.41 | 0.00 | 96 | 1008.4 |
| 20260510074508 | 9 | 0 | 0.0 | 0.0 | 0.00 | 0.41 | 0.00 | 96 | 1008.4 |
| 20260510074407 | 9 | 0 | 0.0 | 0.0 | 0.00 | 0.41 | 0.00 | 96 | 1008.4 |
| 20260510074308 | 9 | 0 | 0.0 | 0.0 | 0.00 | 0.41 | 0.00 | 96 | 1008.3 |
| 20260510074208 | 9 | 0 | 0.0 | 0.0 | 0.00 | 0.41 | 0.00 | 96 | 1008.4 |
| 20260510074107 | 9 | 0 | 0.0 | 0.0 | 0.00 | 0.41 | 0.00 | 96 | 1008.4 |
| 20260510074017 | 9 | 360 | 0.0 | 0.0 | 0.00 | 0.41 | 0.00 | 96 | 1008.4 |
| 20260510074007 | 9 | 0 | 0.0 | 0.0 | 0.00 | 0.41 | 0.00 | 96 | 1008.4 |
| 20260510073906 | 9 | 0 | 0.0 | 0.0 | 0.00 | 0.41 | 0.00 | 96 | 1008.5 |
| 20260510073806 | 9 | 0 | 0.0 | 0.0 | 0.00 | 0.41 | 0.00 | 96 | 1008.5 |
| 20260510073706 | 9 | 0 | 0.0 | 0.0 | 0.00 | 0.41 | 0.00 | 96 | 1008.5 |
| 20260510073619 | 9 | 0 | 0.0 | 0.0 | 0.00 | 0.41 | 0.00 | 96 | 1008.5 |
| 20260510073610 | 9 | 0 | 0.0 | 0.0 | 0.00 | 0.41 | 0.00 | 96 | 1008.5 |
| 20260510073548 | 9 | 360 | 0.0 | 0.0 | 0.00 | 0.41 | 0.00 | 96 | 1008.5 |
| 20260510073405 | 9 | 0 | 0.0 | 0.0 | 0.00 | 0.41 | 0.00 | 96 | 1008.5 |
| 20260510073305 | 9 | 0 | 0.0 | 0.0 | 0.00 | 0.41 | 0.00 | 96 | 1008.5 |
| 20260510073231 | 9 | 0 | 0.0 | 0.0 | 0.00 | 0.41 | 0.00 | 96 | 1008.5 |
| 20260510073118 | 9 | 0 | 0.0 | 0.0 | 0.00 | 0.41 | 0.00 | 96 | 1008.5 |
| 20260510073109 | 9 | 0 | 0.0 | 0.0 | 0.00 | 0.41 | 0.00 | 96 | 1008.5 |
| 20260510073017 | 9 | 360 | 0.0 | 0.0 | 0.00 | 0.41 | 0.00 | 96 | 1008.5 |
| 20260510072903 | 9 | 0 | 0.0 | 0.0 | 0.00 | 0.41 | 0.00 | 96 | 1008.5 |
| 20260510072824 | 9 | 0 | 0.0 | 0.0 | 0.00 | 0.41 | 0.00 | 96 | 1008.5 |
| 20260510072711 | 9 | 0 | 0.0 | 0.0 | 0.00 | 0.41 | 0.00 | 96 | 1008.5 |
| 20260510072523 | 8 | 0 | 0.0 | 0.0 | 0.00 | 0.41 | 0.00 | 96 | 1008.5 |
| 20260510072517 | 8 | 360 | 0.0 | 0.0 | 0.00 | 0.41 | 0.00 | 96 | 1008.4 |
| 20260510072501 | 8 | 0 | 0.0 | 0.0 | 0.00 | 0.41 | 0.00 | 96 | 1008.4 |
| 20260510072402 | 8 | 0 | 0.0 | 0.0 | 0.00 | 0.41 | 0.00 | 96 | 1008.5 |
| 20260510072305 | 8 | 0 | 0.0 | 0.0 | 0.00 | 0.41 | 0.00 | 96 | 1008.5 |
| 20260510072201 | 8 | 0 | 0.0 | 0.0 | 0.00 | 0.41 | 0.00 | 96 | 1008.5 |
| 20260510072101 | 8 | 0 | 0.0 | 0.0 | 0.00 | 0.41 | 0.00 | 96 | 1008.5 |
| 20260510072025 | 8 | 0 | 0.0 | 0.0 | 0.00 | 0.41 | 0.00 | 96 | 1008.5 |
| 20260510072017 | 8 | 360 | 0.0 | 0.0 | 0.00 | 0.41 | 0.00 | 96 | 1008.4 |
| 20260510072000 | 8 | 0 | 0.0 | 0.0 | 0.00 | 0.41 | 0.00 | 96 | 1008.4 |
| 20260510071900 | 8 | 0 | 0.0 | 0.0 | 0.00 | 0.41 | 0.00 | 96 | 1008.5 |
| 20260510071759 | 8 | 0 | 0.0 | 0.0 | 0.00 | 0.41 | 0.00 | 96 | 1008.5 |
| 20260510071659 | 8 | 0 | 0.0 | 0.0 | 0.00 | 0.41 | 0.00 | 96 | 1008.5 |
| 20260510071559 | 8 | 0 | 0.0 | 0.0 | 0.00 | 0.41 | 0.00 | 96 | 1008.5 |
| 20260510071532 | 8 | 360 | 0.0 | 0.0 | 0.00 | 0.41 | 0.00 | 96 | 1008.5 |
| 20260510071522 | 8 | 0 | 0.0 | 0.0 | 0.00 | 0.41 | 0.00 | 96 | 1008.5 |
| 20260510071512 | 8 | 0 | 0.0 | 0.0 | 0.00 | 0.41 | 0.00 | 96 | 1008.5 |
| 20260510071508 | 8 | 0 | 0.0 | 0.0 | 0.00 | 0.41 | 0.00 | 96 | 1008.5 |
| 20260510071459 | 8 | 0 | 0.0 | 0.0 | 0.00 | 0.41 | 0.00 | 96 | 1008.5 |
| 20260510071155 | 8 | 0 | 0.0 | 0.0 | 0.00 | 0.41 | 0.00 | 96 | 1008.5 |
| 20260510071127 | 8 | 0 | 0.0 | 0.0 | 0.00 | 0.41 | 0.00 | 96 | 1008.5 |
| 20260510071047 | 8 | 360 | 0.0 | 0.0 | 0.00 | 0.41 | 0.00 | 96 | 1008.5 |
| 20260510071004 | 8 | 0 | 0.0 | 0.0 | 0.00 | 0.41 | 0.00 | 96 | 1008.5 |
| 20260510071000 | 8 | 0 | 0.0 | 0.0 | 0.00 | 0.41 | 0.00 | 96 | 1008.5 |
| 20260510070751 | 8 | 0 | 0.0 | 0.0 | 0.00 | 0.41 | 0.00 | 96 | 1008.5 |
| 20260510070744 | 8 | 0 | 0.0 | 0.0 | 0.00 | 0.41 | 0.00 | 96 | 1008.5 |
| 20260510070650 | 8 | 0 | 0.0 | 0.0 | 0.00 | 0.41 | 0.00 | 96 | 1008.5 |
| 20260510070627 | 8 | 0 | 0.0 | 0.0 | 0.00 | 0.41 | 0.00 | 96 | 1008.5 |
| 20260510070517 | 8 | 360 | 0.0 | 0.0 | 0.00 | 0.41 | 0.00 | 96 | 1008.5 |
| 20260510070449 | 8 | 0 | 0.0 | 0.0 | 0.00 | 0.41 | 0.00 | 96 | 1008.5 |
| 20260510070350 | 8 | 0 | 0.0 | 0.0 | 0.00 | 0.41 | 0.00 | 96 | 1008.6 |
| 20260510070250 | 8 | 0 | 0.0 | 0.0 | 0.00 | 0.41 | 0.00 | 96 | 1008.6 |
| 20260510070149 | 8 | 0 | 0.0 | 0.0 | 0.00 | 0.41 | 0.00 | 96 | 1008.6 |
| 20260510070046 | 8 | 0 | 0.0 | 0.0 | 0.00 | 0.41 | 0.00 | 96 | 1008.6 |
| 20260510070022 | 8 | 0 | 0.0 | 0.0 | 0.00 | 0.41 | 0.00 | 96 | 1008.6 |
| 20260510070017 | 8 | 360 | 0.0 | 0.0 | 0.00 | 0.41 | 0.00 | 96 | 1008.6 |
| 20260510065948 | 8 | 0 | 0.0 | 0.0 | 0.00 | 0.41 | 0.00 | 96 | 1008.6 |
| 20260510065845 | 8 | 0 | 0.0 | 0.0 | 0.00 | 0.41 | 0.00 | 96 | 1008.6 |
| 20260510065745 | 8 | 0 | 0.0 | 0.0 | 0.00 | 0.41 | 0.00 | 96 | 1008.6 |
| 20260510065645 | 8 | 0 | 0.0 | 0.0 | 0.00 | 0.41 | 0.00 | 96 | 1008.6 |
| 20260510065532 | 8 | 360 | 0.0 | 0.0 | 0.00 | 0.41 | 0.00 | 96 | 1008.7 |
| 20260510065519 | 8 | 0 | 0.0 | 0.0 | 0.00 | 0.41 | 0.00 | 96 | 1008.6 |
| 20260510065444 | 8 | 0 | 0.0 | 0.0 | 0.00 | 0.41 | 0.00 | 96 | 1008.7 |
| 20260510065344 | 8 | 0 | 0.0 | 0.0 | 0.00 | 0.41 | 0.00 | 96 | 1008.7 |
| 20260510065243 | 8 | 0 | 0.0 | 0.0 | 0.00 | 0.41 | 0.00 | 96 | 1008.6 |
| 20260510065143 | 8 | 0 | 0.0 | 0.0 | 0.00 | 0.41 | 0.00 | 96 | 1008.6 |
| 20260510065102 | 8 | 0 | 0.0 | 0.0 | 0.00 | 0.41 | 0.00 | 96 | 1008.6 |
| 20260510065052 | 8 | 0 | 0.0 | 0.0 | 0.00 | 0.41 | 0.00 | 96 | 1008.7 |
| 20260510065017 | 8 | 360 | 0.0 | 0.0 | 0.00 | 0.41 | 0.00 | 96 | 1008.6 |
| 20260510064842 | 8 | 0 | 0.0 | 0.0 | 0.00 | 0.41 | 0.00 | 96 | 1008.6 |
| 20260510064810 | 8 | 0 | 0.0 | 0.0 | 0.00 | 0.41 | 0.00 | 96 | 1008.4 |
| 20260510064742 | 8 | 0 | 0.0 | 0.0 | 0.00 | 0.41 | 0.00 | 96 | 1008.5 |
| 20260510064713 | 8 | 0 | 0.0 | 0.0 | 0.00 | 0.41 | 0.00 | 96 | 1008.5 |
| 20260510064705 | 8 | 0 | 0.0 | 0.0 | 0.00 | 0.41 | 0.00 | 96 | 1008.5 |
| 20260510064656 | 8 | 0 | 0.0 | 0.0 | 0.00 | 0.41 | 0.00 | 96 | 1008.4 |
| 20260510064547 | 8 | 360 | 0.0 | 0.0 | 0.00 | 0.41 | 0.00 | 96 | 1008.5 |
| 20260510064341 | 8 | 0 | 0.0 | 0.0 | 0.00 | 0.41 | 0.00 | 96 | 1008.5 |
| 20260510064240 | 8 | 0 | 0.0 | 0.0 | 0.00 | 0.41 | 0.00 | 96 | 1008.4 |
| 20260510064140 | 8 | 0 | 0.0 | 0.0 | 0.00 | 0.41 | 0.00 | 96 | 1008.4 |
| 20260510064018 | 8 | 360 | 0.0 | 0.0 | 0.00 | 0.41 | 0.00 | 96 | 1008.4 |
| 20260510064014 | 8 | 0 | 0.0 | 0.0 | 0.00 | 0.41 | 0.00 | 96 | 1008.4 |
| 20260510063939 | 8 | 0 | 0.0 | 0.0 | 0.00 | 0.41 | 0.00 | 96 | 1008.4 |
| 20260510063838 | 8 | 0 | 0.0 | 0.0 | 0.00 | 0.41 | 0.00 | 96 | 1008.3 |
| 20260510063738 | 8 | 0 | 0.0 | 0.0 | 0.00 | 0.41 | 0.00 | 96 | 1008.3 |
| 20260510063637 | 8 | 0 | 0.0 | 0.0 | 0.00 | 0.41 | 0.00 | 96 | 1008.3 |
| 20260510063517 | 8 | 360 | 0.0 | 0.0 | 0.00 | 0.41 | 0.00 | 96 | 1008.3 |
| 20260510063515 | 8 | 0 | 0.0 | 0.0 | 0.00 | 0.41 | 0.00 | 96 | 1008.3 |
| 20260510063436 | 8 | 0 | 0.0 | 0.0 | 0.00 | 0.41 | 0.00 | 96 | 1008.3 |
| 20260510063337 | 8 | 0 | 0.0 | 0.0 | 0.00 | 0.41 | 0.00 | 96 | 1008.3 |
| 20260510063253 | 8 | 0 | 0.0 | 0.0 | 0.00 | 0.41 | 0.00 | 96 | 1008.2 |
| 20260510063249 | 8 | 0 | 0.0 | 0.0 | 0.00 | 0.41 | 0.00 | 96 | 1008.1 |
| 20260510063245 | 8 | 0 | 0.0 | 0.0 | 0.00 | 0.41 | 0.00 | 96 | 1008.3 |
| 20260510063119 | 8 | 0 | 0.0 | 0.0 | 0.00 | 0.41 | 0.00 | 96 | 1008.1 |
| 20260510063017 | 8 | 360 | 0.0 | 0.0 | 0.00 | 0.41 | 0.00 | 96 | 1008.2 |
| 20260510062933 | 8 | 0 | 0.0 | 0.0 | 0.00 | 0.41 | 0.00 | 96 | 1008.2 |
| 20260510062833 | 8 | 0 | 0.0 | 0.0 | 0.00 | 0.41 | 0.00 | 96 | 1008.1 |
| 20260510062732 | 8 | 0 | 0.0 | 0.0 | 0.00 | 0.41 | 0.00 | 96 | 1008.1 |
| 20260510062632 | 8 | 0 | 0.0 | 0.0 | 0.00 | 0.41 | 0.00 | 96 | 1008.1 |
| 20260510062518 | 8 | 360 | 0.0 | 0.0 | 0.00 | 0.41 | 0.00 | 96 | 1008.0 |
| 20260510062514 | 8 | 0 | 0.0 | 0.0 | 0.00 | 0.41 | 0.00 | 96 | 1008.1 |
| 20260510062430 | 8 | 0 | 0.0 | 0.0 | 0.00 | 0.41 | 0.00 | 96 | 1008.0 |
| 20260510062347 | 8 | 0 | 0.0 | 0.0 | 0.00 | 0.41 | 0.00 | 96 | 1008.0 |
| 20260510062343 | 8 | 0 | 0.0 | 0.0 | 0.00 | 0.41 | 0.00 | 96 | 1008.0 |
| 20260510062339 | 8 | 0 | 0.0 | 0.0 | 0.00 | 0.41 | 0.00 | 96 | 1008.0 |
| 20260510062157 | 8 | 0 | 0.0 | 0.0 | 0.00 | 0.41 | 0.00 | 96 | 1007.9 |
| 20260510062151 | 8 | 0 | 0.0 | 0.0 | 0.00 | 0.41 | 0.00 | 96 | 1008.0 |
| 20260510062142 | 8 | 0 | 0.0 | 0.0 | 0.00 | 0.41 | 0.00 | 96 | 1008.0 |
| 20260510062017 | 8 | 360 | 0.0 | 0.0 | 0.00 | 0.41 | 0.00 | 96 | 1007.9 |
| 20260510061827 | 8 | 0 | 0.0 | 0.0 | 0.00 | 0.41 | 0.00 | 96 | 1007.9 |
| 20260510061732 | 8 | 0 | 0.0 | 0.0 | 0.00 | 0.41 | 0.00 | 96 | 1008.0 |
| 20260510061727 | 8 | 0 | 0.0 | 0.0 | 0.00 | 0.41 | 0.00 | 96 | 1008.0 |
| 20260510061627 | 8 | 0 | 0.0 | 0.0 | 0.00 | 0.41 | 0.00 | 96 | 1008.0 |
| 20260510061618 | 8 | 0 | 0.0 | 0.0 | 0.00 | 0.41 | 0.00 | 96 | 1008.0 |
| 20260510061517 | 8 | 360 | 0.0 | 0.0 | 0.00 | 0.41 | 0.00 | 96 | 1008.0 |
| 20260510061426 | 8 | 0 | 0.0 | 0.0 | 0.00 | 0.41 | 0.00 | 96 | 1008.0 |
| 20260510061326 | 8 | 0 | 0.0 | 0.0 | 0.00 | 0.41 | 0.00 | 96 | 1008.0 |
| 20260510061225 | 8 | 0 | 0.0 | 0.0 | 0.00 | 0.41 | 0.00 | 96 | 1008.0 |
| 20260510061125 | 8 | 0 | 0.0 | 0.0 | 0.00 | 0.41 | 0.00 | 96 | 1008.0 |
| 20260510061019 | 8 | 0 | 0.0 | 0.0 | 0.00 | 0.41 | 0.00 | 96 | 1008.0 |
| 20260510061017 | 8 | 360 | 0.0 | 0.0 | 0.00 | 0.41 | 0.00 | 96 | 1008.0 |
| 20260510060951 | 8 | 0 | 0.0 | 0.0 | 0.00 | 0.41 | 0.00 | 96 | 1008.0 |
| 20260510060946 | 8 | 0 | 0.0 | 0.0 | 0.00 | 0.41 | 0.00 | 96 | 1008.0 |
| 20260510060832 | 8 | 0 | 0.0 | 0.0 | 0.00 | 0.41 | 0.00 | 96 | 1008.0 |
| 20260510060659 | 8 | 0 | 0.0 | 0.0 | 0.00 | 0.41 | 0.00 | 96 | 1008.0 |
| 20260510060649 | 8 | 0 | 0.0 | 0.0 | 0.00 | 0.41 | 0.00 | 96 | 1008.0 |
| 20260510060517 | 8 | 360 | 0.0 | 0.0 | 0.00 | 0.41 | 0.00 | 96 | 1008.0 |
| 20260510060430 | 8 | 0 | 0.0 | 0.0 | 0.00 | 0.41 | 0.00 | 96 | 1008.0 |
| 20260510060234 | 8 | 0 | 0.0 | 0.0 | 0.00 | 0.41 | 0.00 | 95 | 1008.0 |
| 20260510060230 | 8 | 0 | 0.0 | 0.0 | 0.00 | 0.41 | 0.00 | 95 | 1008.0 |
| 20260510060020 | 8 | 0 | 0.0 | 0.0 | 0.00 | 0.41 | 0.00 | 95 | 1008.1 |
| 20260510060017 | 8 | 360 | 0.0 | 0.0 | 0.00 | 0.41 | 0.00 | 95 | 1008.0 |
| 20260510060011 | 8 | 0 | 0.0 | 0.0 | 0.00 | 0.41 | 0.00 | 95 | 1008.0 |
| 20260510055920 | 8 | 0 | 0.0 | 0.0 | 0.00 | 0.41 | 0.00 | 95 | 1008.0 |
| 20260510055818 | 8 | 0 | 0.0 | 0.0 | 0.00 | 0.41 | 0.00 | 95 | 1008.1 |
| 20260510055718 | 8 | 0 | 0.0 | 0.0 | 0.00 | 0.41 | 0.00 | 95 | 1008.1 |
| 20260510055617 | 8 | 0 | 0.0 | 0.0 | 0.00 | 0.41 | 0.00 | 95 | 1008.1 |
| 20260510055517 | 8 | 360 | 0.0 | 0.0 | 0.00 | 0.41 | 0.00 | 95 | 1008.2 |
| 20260510055510 | 8 | 0 | 0.0 | 0.0 | 0.00 | 0.41 | 0.00 | 95 | 1008.2 |
| 20260510055416 | 8 | 0 | 0.0 | 0.0 | 0.00 | 0.41 | 0.00 | 95 | 1008.2 |
| 20260510055316 | 8 | 0 | 0.0 | 0.0 | 0.00 | 0.41 | 0.00 | 95 | 1008.2 |
| 20260510055215 | 8 | 0 | 0.0 | 0.0 | 0.00 | 0.41 | 0.00 | 95 | 1008.2 |
| 20260510055115 | 8 | 0 | 0.0 | 0.0 | 0.00 | 0.41 | 0.00 | 95 | 1008.2 |
| 20260510055017 | 8 | 360 | 0.0 | 0.0 | 0.00 | 0.41 | 0.00 | 95 | 1008.2 |
| 20260510055009 | 8 | 0 | 0.0 | 0.0 | 0.00 | 0.41 | 0.00 | 95 | 1008.2 |
| 20260510054927 | 8 | 0 | 0.0 | 0.0 | 0.00 | 0.41 | 0.00 | 95 | 1008.2 |
| 20260510054923 | 8 | 0 | 0.0 | 0.0 | 0.00 | 0.41 | 0.00 | 95 | 1008.2 |
| 20260510054714 | 8 | 0 | 0.0 | 0.0 | 0.00 | 0.41 | 0.00 | 95 | 1008.2 |
| 20260510054613 | 8 | 0 | 0.0 | 0.0 | 0.00 | 0.41 | 0.00 | 95 | 1008.2 |
| 20260510054547 | 8 | 360 | 0.0 | 0.0 | 0.00 | 0.41 | 0.00 | 95 | 1008.2 |
| 20260510054510 | 8 | 0 | 0.0 | 0.0 | 0.00 | 0.41 | 0.00 | 95 | 1008.2 |
| 20260510054445 | 8 | 0 | 0.0 | 0.0 | 0.00 | 0.41 | 0.00 | 95 | 1008.3 |
| 20260510054437 | 8 | 0 | 0.0 | 0.0 | 0.00 | 0.41 | 0.00 | 95 | 1008.2 |
| 20260510054324 | 8 | 0 | 0.0 | 0.0 | 0.00 | 0.41 | 0.00 | 95 | 1008.3 |
| 20260510054121 | 8 | 0 | 0.0 | 0.0 | 0.00 | 0.41 | 0.00 | 95 | 1008.3 |
| 20260510054112 | 8 | 0 | 0.0 | 0.0 | 0.00 | 0.41 | 0.00 | 95 | 1008.3 |
| 20260510054017 | 8 | 360 | 0.0 | 0.0 | 0.00 | 0.41 | 0.00 | 95 | 1008.4 |
| 20260510053913 | 8 | 0 | 0.0 | 0.0 | 0.00 | 0.41 | 0.00 | 95 | 1008.4 |
| 20260510053812 | 8 | 0 | 0.0 | 0.0 | 0.00 | 0.41 | 0.00 | 95 | 1008.3 |
| 20260510053725 | 8 | 0 | 0.0 | 0.0 | 0.00 | 0.41 | 0.00 | 95 | 1008.3 |
| 20260510053712 | 8 | 0 | 0.0 | 0.0 | 0.00 | 0.41 | 0.00 | 95 | 1008.3 |
| 20260510053619 | 8 | 0 | 0.0 | 0.0 | 0.00 | 0.41 | 0.00 | 95 | 1008.3 |
| 20260510053610 | 8 | 0 | 0.0 | 0.0 | 0.00 | 0.41 | 0.00 | 95 | 1008.3 |
| 20260510053532 | 8 | 360 | 0.0 | 0.0 | 0.00 | 0.41 | 0.00 | 95 | 1008.3 |
| 20260510053410 | 8 | 0 | 0.0 | 0.0 | 0.00 | 0.41 | 0.00 | 96 | 1008.3 |
| 20260510053309 | 8 | 0 | 0.0 | 0.0 | 0.00 | 0.41 | 0.00 | 96 | 1008.3 |
| 20260510053209 | 8 | 0 | 0.0 | 0.0 | 0.00 | 0.41 | 0.00 | 96 | 1008.3 |
| 20260510053125 | 8 | 0 | 0.0 | 0.0 | 0.00 | 0.41 | 0.00 | 96 | 1008.3 |
| 20260510053119 | 8 | 0 | 0.0 | 0.0 | 0.00 | 0.41 | 0.00 | 96 | 1008.3 |
| 20260510053017 | 8 | 360 | 0.0 | 0.0 | 0.00 | 0.41 | 0.00 | 96 | 1008.3 |
| 20260510053006 | 8 | 0 | 0.0 | 0.0 | 0.00 | 0.41 | 0.00 | 96 | 1008.3 |
| 20260510052907 | 8 | 0 | 0.0 | 0.0 | 0.00 | 0.41 | 0.00 | 95 | 1008.3 |
| 20260510052821 | 8 | 0 | 0.0 | 0.0 | 0.00 | 0.41 | 0.00 | 95 | 1008.3 |
| 20260510052816 | 8 | 0 | 0.0 | 0.0 | 0.00 | 0.41 | 0.00 | 96 | 1008.3 |
| 20260510052605 | 8 | 0 | 0.0 | 0.0 | 0.00 | 0.41 | 0.00 | 95 | 1008.3 |
| 20260510052525 | 8 | 0 | 0.0 | 0.0 | 0.00 | 0.41 | 0.00 | 95 | 1008.3 |
| 20260510052517 | 8 | 360 | 0.0 | 0.0 | 0.00 | 0.41 | 0.00 | 95 | 1008.4 |
| 20260510052515 | 8 | 0 | 0.0 | 0.0 | 0.00 | 0.41 | 0.00 | 95 | 1008.4 |
| 20260510052318 | 8 | 0 | 0.0 | 0.0 | 0.00 | 0.41 | 0.00 | 95 | 1008.4 |
| 20260510052313 | 8 | 0 | 0.0 | 0.0 | 0.00 | 0.41 | 0.00 | 95 | 1008.3 |
| 20260510052102 | 8 | 0 | 0.0 | 0.0 | 0.00 | 0.41 | 0.00 | 95 | 1008.3 |
| 20260510052038 | 8 | 0 | 0.0 | 0.0 | 0.00 | 0.41 | 0.00 | 95 | 1008.3 |
| 20260510052033 | 8 | 0 | 0.0 | 0.0 | 0.00 | 0.41 | 0.00 | 95 | 1008.4 |
| 20260510052020 | 8 | 0 | 0.0 | 0.0 | 0.00 | 0.41 | 0.00 | 95 | 1008.4 |
| 20260510052017 | 8 | 360 | 0.0 | 0.0 | 0.00 | 0.41 | 0.00 | 95 | 1008.4 |
| 20260510051701 | 8 | 0 | 0.0 | 0.0 | 0.00 | 0.41 | 0.00 | 95 | 1008.3 |
| 20260510051600 | 8 | 0 | 0.0 | 0.0 | 0.00 | 0.41 | 0.00 | 95 | 1008.3 |
| 20260510051517 | 8 | 360 | 0.0 | 0.0 | 0.00 | 0.41 | 0.00 | 95 | 1008.4 |
| 20260510051501 | 8 | 0 | 0.0 | 0.0 | 0.00 | 0.41 | 0.00 | 95 | 1008.4 |
| 20260510051400 | 8 | 0 | 0.0 | 0.0 | 0.00 | 0.41 | 0.00 | 95 | 1008.4 |
| 20260510051300 | 8 | 0 | 0.0 | 0.0 | 0.00 | 0.41 | 0.00 | 95 | 1008.4 |
| 20260510051200 | 8 | 0 | 0.0 | 0.0 | 0.00 | 0.41 | 0.00 | 95 | 1008.4 |
| 20260510051059 | 8 | 0 | 0.0 | 0.0 | 0.00 | 0.41 | 0.00 | 95 | 1008.3 |
| 20260510051017 | 8 | 360 | 0.0 | 0.0 | 0.00 | 0.41 | 0.00 | 95 | 1008.3 |
| 20260510051005 | 8 | 0 | 0.0 | 0.0 | 0.00 | 0.41 | 0.00 | 95 | 1008.3 |
| 20260510050958 | 8 | 0 | 0.0 | 0.0 | 0.00 | 0.41 | 0.00 | 95 | 1008.3 |
| 20260510050858 | 8 | 0 | 0.0 | 0.0 | 0.00 | 0.41 | 0.00 | 95 | 1008.3 |
| 20260510050758 | 8 | 0 | 0.0 | 0.0 | 0.00 | 0.41 | 0.00 | 95 | 1008.3 |
| 20260510050657 | 8 | 0 | 0.0 | 0.0 | 0.00 | 0.41 | 0.00 | 95 | 1008.3 |
| 20260510050557 | 8 | 0 | 0.0 | 0.0 | 0.00 | 0.41 | 0.00 | 95 | 1008.3 |
| 20260510050517 | 8 | 360 | 0.0 | 0.0 | 0.00 | 0.41 | 0.00 | 95 | 1008.3 |
| 20260510050504 | 8 | 0 | 0.0 | 0.0 | 0.00 | 0.41 | 0.00 | 95 | 1008.3 |
| 20260510050456 | 8 | 0 | 0.0 | 0.0 | 0.00 | 0.41 | 0.00 | 95 | 1008.3 |
| 20260510050426 | 8 | 0 | 0.0 | 0.0 | 0.00 | 0.41 | 0.00 | 95 | 1008.4 |
| 20260510050419 | 8 | 0 | 0.0 | 0.0 | 0.00 | 0.41 | 0.00 | 95 | 1008.4 |
| 20260510050414 | 8 | 0 | 0.0 | 0.0 | 0.00 | 0.41 | 0.00 | 95 | 1008.4 |
| 20260510050108 | 8 | 0 | 0.0 | 0.0 | 0.00 | 0.41 | 0.00 | 95 | 1008.4 |
| 20260510050059 | 8 | 0 | 0.0 | 0.0 | 0.00 | 0.41 | 0.00 | 95 | 1008.4 |
| 20260510050032 | 8 | 360 | 0.0 | 0.0 | 0.00 | 0.41 | 0.00 | 95 | 1008.4 |
| 20260510045852 | 8 | 0 | 0.0 | 0.0 | 0.00 | 0.41 | 0.00 | 95 | 1008.4 |
| 20260510045751 | 8 | 0 | 0.0 | 0.0 | 0.00 | 0.41 | 0.00 | 95 | 1008.5 |
| 20260510045651 | 8 | 0 | 0.0 | 0.0 | 0.00 | 0.41 | 0.00 | 95 | 1008.5 |
| 20260510045548 | 8 | 0 | 0.0 | 0.0 | 0.00 | 0.41 | 0.00 | 95 | 1008.5 |
| 20260510045517 | 8 | 360 | 0.0 | 0.0 | 0.00 | 0.41 | 0.00 | 95 | 1008.6 |
| 20260510045507 | 8 | 0 | 0.0 | 0.0 | 0.00 | 0.41 | 0.00 | 95 | 1008.5 |
| 20260510045456 | 8 | 0 | 0.0 | 0.0 | 0.00 | 0.41 | 0.00 | 95 | 1008.5 |
| 20260510045247 | 8 | 0 | 0.0 | 0.0 | 0.00 | 0.41 | 0.00 | 95 | 1008.5 |
| 20260510045146 | 8 | 0 | 0.0 | 0.0 | 0.00 | 0.41 | 0.00 | 95 | 1008.5 |
| 20260510045046 | 8 | 0 | 0.0 | 0.0 | 0.00 | 0.41 | 0.00 | 95 | 1008.5 |
| 20260510045017 | 8 | 360 | 0.0 | 0.0 | 0.00 | 0.41 | 0.00 | 95 | 1008.6 |
| 20260510044945 | 8 | 0 | 0.0 | 0.0 | 0.00 | 0.41 | 0.00 | 95 | 1008.5 |
| 20260510044846 | 8 | 0 | 0.0 | 0.0 | 0.00 | 0.41 | 0.00 | 95 | 1008.6 |
| 20260510044745 | 8 | 0 | 0.0 | 0.0 | 0.00 | 0.41 | 0.00 | 95 | 1008.6 |
| 20260510044645 | 8 | 0 | 0.0 | 0.0 | 0.00 | 0.41 | 0.00 | 95 | 1008.6 |
| 20260510044545 | 8 | 0 | 0.0 | 0.0 | 0.00 | 0.41 | 0.00 | 95 | 1008.6 |
| 20260510044528 | 8 | 0 | 0.0 | 0.0 | 0.00 | 0.41 | 0.00 | 95 | 1008.6 |
| 20260510044517 | 8 | 360 | 0.0 | 0.0 | 0.00 | 0.41 | 0.00 | 95 | 1008.7 |
| 20260510044414 | 8 | 0 | 0.0 | 0.0 | 0.00 | 0.41 | 0.00 | 95 | 1008.6 |
| 20260510044301 | 8 | 0 | 0.0 | 0.0 | 0.00 | 0.41 | 0.00 | 95 | 1008.6 |
| 20260510044047 | 8 | 360 | 0.0 | 0.0 | 0.00 | 0.41 | 0.00 | 95 | 1008.7 |
| 20260510043942 | 8 | 0 | 0.0 | 0.0 | 0.00 | 0.41 | 0.00 | 95 | 1008.6 |
| 20260510043841 | 8 | 0 | 0.0 | 0.0 | 0.00 | 0.41 | 0.00 | 95 | 1008.6 |
| 20260510043741 | 8 | 0 | 0.0 | 0.0 | 0.00 | 0.41 | 0.00 | 95 | 1008.6 |
| 20260510043640 | 8 | 0 | 0.0 | 0.0 | 0.00 | 0.41 | 0.00 | 95 | 1008.6 |
| 20260510043547 | 8 | 360 | 0.0 | 0.0 | 0.00 | 0.41 | 0.00 | 95 | 1008.7 |
| 20260510043540 | 8 | 0 | 0.0 | 0.0 | 0.00 | 0.41 | 0.00 | 95 | 1008.6 |
| 20260510043439 | 8 | 0 | 0.0 | 0.0 | 0.00 | 0.41 | 0.00 | 95 | 1008.6 |
| 20260510043339 | 8 | 0 | 0.0 | 0.0 | 0.00 | 0.41 | 0.00 | 95 | 1008.6 |
| 20260510043252 | 8 | 0 | 0.0 | 0.0 | 0.00 | 0.41 | 0.00 | 95 | 1008.7 |
| 20260510043247 | 8 | 0 | 0.0 | 0.0 | 0.00 | 0.41 | 0.00 | 95 | 1008.6 |
| 20260510043047 | 8 | 360 | 0.0 | 0.0 | 0.00 | 0.41 | 0.00 | 95 | 1008.7 |
| 20260510043037 | 8 | 0 | 0.0 | 0.0 | 0.00 | 0.41 | 0.00 | 95 | 1008.6 |
| 20260510042936 | 8 | 0 | 0.0 | 0.0 | 0.00 | 0.41 | 0.00 | 95 | 1008.6 |
| 20260510042836 | 8 | 0 | 0.0 | 0.0 | 0.00 | 0.41 | 0.00 | 95 | 1008.7 |
| 20260510042735 | 8 | 0 | 0.0 | 0.0 | 0.00 | 0.41 | 0.00 | 95 | 1008.6 |
| 20260510042635 | 8 | 0 | 0.0 | 0.0 | 0.00 | 0.41 | 0.00 | 95 | 1008.6 |
| 20260510042535 | 8 | 0 | 0.0 | 0.0 | 0.00 | 0.41 | 0.00 | 95 | 1008.6 |
| 20260510042518 | 8 | 360 | 0.0 | 0.0 | 0.00 | 0.41 | 0.00 | 95 | 1008.7 |
| 20260510042434 | 8 | 0 | 0.0 | 0.0 | 0.00 | 0.41 | 0.00 | 95 | 1008.6 |
| 20260510042333 | 8 | 0 | 0.0 | 0.0 | 0.00 | 0.41 | 0.00 | 95 | 1008.6 |
| 20260510042233 | 8 | 0 | 0.0 | 0.0 | 0.00 | 0.41 | 0.00 | 95 | 1008.6 |
| 20260510042148 | 8 | 0 | 0.0 | 0.0 | 0.00 | 0.41 | 0.00 | 95 | 1008.7 |
| 20260510042142 | 8 | 0 | 0.0 | 0.0 | 0.00 | 0.41 | 0.00 | 95 | 1008.6 |
| 20260510042017 | 8 | 360 | 0.0 | 0.0 | 0.00 | 0.41 | 0.00 | 95 | 1008.7 |
| 20260510041933 | 8 | 0 | 0.0 | 0.0 | 0.00 | 0.41 | 0.00 | 95 | 1008.6 |
| 20260510041833 | 8 | 0 | 0.0 | 0.0 | 0.00 | 0.41 | 0.00 | 95 | 1008.7 |
| 20260510041732 | 8 | 0 | 0.0 | 0.0 | 0.00 | 0.41 | 0.00 | 95 | 1008.7 |
| 20260510041632 | 8 | 0 | 0.0 | 0.0 | 0.00 | 0.41 | 0.00 | 95 | 1008.7 |
| 20260510041530 | 8 | 0 | 0.0 | 0.0 | 0.00 | 0.41 | 0.00 | 95 | 1008.7 |
| 20260510041517 | 8 | 360 | 0.0 | 0.0 | 0.00 | 0.41 | 0.00 | 95 | 1008.8 |
| 20260510041429 | 8 | 0 | 0.0 | 0.0 | 0.00 | 0.41 | 0.00 | 95 | 1008.7 |
| 20260510041344 | 8 | 0 | 0.0 | 0.0 | 0.03 | 0.41 | 0.00 | 95 | 1008.7 |
| 20260510041339 | 8 | 0 | 0.0 | 0.0 | 0.03 | 0.41 | 0.00 | 95 | 1008.6 |
| 20260510041215 | 8 | 0 | 0.0 | 0.0 | 0.03 | 0.41 | 0.00 | 95 | 1008.7 |
| 20260510041129 | 8 | 0 | 0.0 | 0.0 | 0.03 | 0.41 | 0.00 | 95 | 1008.7 |
| 20260510041102 | 8 | 360 | 0.0 | 0.0 | 0.03 | 0.41 | 0.00 | 95 | 1008.8 |
| 20260510041059 | 8 | 0 | 0.0 | 0.0 | 0.03 | 0.41 | 0.00 | 95 | 1008.6 |
| 20260510040928 | 8 | 0 | 0.0 | 0.0 | 0.03 | 0.41 | 0.00 | 95 | 1008.7 |
| 20260510040828 | 8 | 0 | 0.0 | 0.0 | 0.03 | 0.41 | 0.00 | 95 | 1008.6 |
| 20260510040728 | 8 | 0 | 0.0 | 0.0 | 0.03 | 0.41 | 0.00 | 95 | 1008.7 |
| 20260510040627 | 8 | 0 | 0.0 | 0.0 | 0.03 | 0.41 | 0.00 | 95 | 1008.7 |
| 20260510040602 | 8 | 360 | 0.0 | 0.0 | 0.03 | 0.41 | 0.00 | 95 | 1008.8 |
| 20260510040526 | 8 | 0 | 0.0 | 0.0 | 0.03 | 0.41 | 0.00 | 95 | 1008.7 |
| 20260510040440 | 8 | 0 | 0.0 | 0.0 | 0.03 | 0.41 | 0.00 | 95 | 1008.7 |
| 20260510040435 | 8 | 0 | 0.0 | 0.0 | 0.03 | 0.41 | 0.00 | 95 | 1008.7 |
| 20260510040224 | 8 | 0 | 0.0 | 0.0 | 0.03 | 0.41 | 0.00 | 95 | 1008.7 |
| 20260510040125 | 8 | 0 | 0.0 | 0.0 | 0.03 | 0.41 | 0.00 | 95 | 1008.7 |
| 20260510040055 | 8 | 0 | 0.0 | 0.0 | 0.03 | 0.41 | 0.41 | 94 | 1008.8 |
| 20260510040047 | 8 | 360 | 0.0 | 0.0 | 0.03 | 0.41 | 0.00 | 94 | 1008.8 |
| 20260510040042 | 8 | 0 | 0.0 | 0.0 | 0.03 | 0.41 | 0.41 | 94 | 1008.7 |
| 20260510035810 | 8 | 0 | 0.0 | 0.0 | 0.03 | 0.41 | 0.41 | 94 | 1008.7 |
| 20260510035759 | 8 | 0 | 0.0 | 0.0 | 0.03 | 0.41 | 0.41 | 94 | 1008.8 |
| 20260510035646 | 8 | 0 | 0.0 | 0.0 | 0.03 | 0.41 | 0.41 | 94 | 1008.8 |
| 20260510035637 | 8 | 0 | 0.0 | 0.0 | 0.03 | 0.41 | 0.41 | 94 | 1008.7 |
| 20260510035517 | 8 | 360 | 0.0 | 0.0 | 0.03 | 0.41 | 0.41 | 94 | 1008.8 |
| 20260510035322 | 8 | 0 | 0.0 | 0.0 | 0.03 | 0.41 | 0.41 | 94 | 1008.7 |
| 20260510035222 | 8 | 0 | 0.0 | 0.0 | 0.03 | 0.41 | 0.41 | 94 | 1008.7 |
| 20260510035120 | 8 | 0 | 0.0 | 0.0 | 0.03 | 0.41 | 0.41 | 94 | 1008.7 |
| 20260510035101 | 8 | 0 | 0.0 | 0.0 | 0.03 | 0.41 | 0.41 | 94 | 1008.7 |
| 20260510035017 | 8 | 360 | 0.0 | 0.0 | 0.03 | 0.41 | 0.41 | 94 | 1008.8 |
| 20260510034951 | 8 | 0 | 0.0 | 0.0 | 0.03 | 0.41 | 0.41 | 94 | 1008.7 |
| 20260510034937 | 8 | 0 | 0.0 | 0.0 | 0.03 | 0.41 | 0.41 | 94 | 1008.7 |
| 20260510034710 | 8 | 0 | 0.0 | 0.0 | 0.03 | 0.41 | 0.41 | 94 | 1008.7 |
| 20260510034619 | 8 | 0 | 0.0 | 0.0 | 0.03 | 0.41 | 0.41 | 95 | 1008.7 |
| 20260510034550 | 8 | 0 | 0.0 | 0.0 | 0.03 | 0.41 | 0.41 | 95 | 1008.7 |
| 20260510034517 | 8 | 360 | 0.0 | 0.0 | 0.03 | 0.41 | 0.41 | 95 | 1008.8 |
| 20260510034418 | 8 | 0 | 0.0 | 0.0 | 0.03 | 0.41 | 0.41 | 94 | 1008.7 |
| 20260510034317 | 8 | 0 | 0.0 | 0.0 | 0.03 | 0.41 | 0.41 | 94 | 1008.7 |
| 20260510034217 | 8 | 0 | 0.0 | 0.0 | 0.03 | 0.41 | 0.41 | 94 | 1008.7 |
| 20260510034117 | 8 | 0 | 0.0 | 0.0 | 0.03 | 0.41 | 0.41 | 94 | 1008.7 |
| 20260510034017 | 8 | 360 | 0.0 | 0.0 | 0.03 | 0.41 | 0.41 | 94 | 1008.7 |
| 20260510033916 | 8 | 0 | 0.0 | 0.0 | 0.03 | 0.41 | 0.41 | 94 | 1008.6 |
| 20260510033815 | 8 | 0 | 0.0 | 0.0 | 0.03 | 0.41 | 0.41 | 94 | 1008.6 |
| 20260510033715 | 8 | 0 | 0.0 | 0.0 | 0.03 | 0.41 | 0.41 | 94 | 1008.6 |
| 20260510033628 | 8 | 0 | 0.0 | 0.0 | 0.03 | 0.41 | 0.41 | 94 | 1008.6 |
| 20260510033622 | 8 | 0 | 0.0 | 0.0 | 0.03 | 0.41 | 0.41 | 94 | 1008.6 |
| 20260510033517 | 8 | 360 | 0.0 | 0.0 | 0.03 | 0.41 | 0.41 | 94 | 1008.7 |
| 20260510033412 | 8 | 0 | 0.0 | 0.0 | 0.03 | 0.41 | 0.41 | 94 | 1008.6 |
| 20260510033312 | 8 | 0 | 0.0 | 0.0 | 0.03 | 0.41 | 0.41 | 94 | 1008.5 |
| 20260510033212 | 8 | 0 | 0.0 | 0.0 | 0.03 | 0.41 | 0.41 | 94 | 1008.6 |
| 20260510033112 | 8 | 0 | 0.0 | 0.0 | 0.03 | 0.41 | 0.41 | 94 | 1008.4 |
| 20260510033017 | 8 | 360 | 0.0 | 0.0 | 0.03 | 0.41 | 0.41 | 94 | 1008.6 |
| 20260510033011 | 8 | 0 | 0.0 | 0.0 | 0.03 | 0.41 | 0.41 | 94 | 1008.5 |
| 20260510032946 | 8 | 0 | 0.0 | 0.0 | 0.03 | 0.41 | 0.41 | 94 | 1008.5 |
| 20260510032942 | 8 | 0 | 0.0 | 0.0 | 0.03 | 0.41 | 0.41 | 94 | 1008.5 |
| 20260510032936 | 8 | 0 | 0.0 | 0.0 | 0.03 | 0.41 | 0.41 | 94 | 1008.5 |
| 20260510032928 | 8 | 0 | 0.0 | 0.0 | 0.03 | 0.41 | 0.41 | 94 | 1008.4 |
| 20260510032610 | 8 | 0 | 0.0 | 0.0 | 0.03 | 0.41 | 0.41 | 94 | 1008.5 |
| 20260510032547 | 8 | 360 | 0.0 | 0.0 | 0.03 | 0.41 | 0.41 | 94 | 1008.6 |
| 20260510032508 | 8 | 0 | 0.0 | 0.0 | 0.03 | 0.41 | 0.41 | 94 | 1008.5 |
| 20260510032439 | 8 | 0 | 0.0 | 0.0 | 0.03 | 0.41 | 0.41 | 94 | 1008.5 |
| 20260510032408 | 8 | 0 | 0.0 | 0.0 | 0.03 | 0.41 | 0.41 | 94 | 1008.5 |
| 20260510032320 | 8 | 0 | 0.0 | 0.0 | 0.03 | 0.41 | 0.41 | 94 | 1008.5 |
| 20260510032315 | 8 | 0 | 0.0 | 0.0 | 0.03 | 0.41 | 0.41 | 94 | 1008.5 |
| 20260510032105 | 8 | 0 | 0.0 | 0.0 | 0.03 | 0.41 | 0.41 | 94 | 1008.5 |
| 20260510032017 | 8 | 360 | 0.0 | 0.0 | 0.03 | 0.41 | 0.41 | 94 | 1008.5 |
| 20260510032004 | 8 | 0 | 0.0 | 0.0 | 0.03 | 0.41 | 0.41 | 94 | 1008.4 |
| 20260510031919 | 8 | 0 | 0.0 | 0.0 | 0.03 | 0.41 | 0.41 | 94 | 1008.4 |
| 20260510031913 | 8 | 0 | 0.0 | 0.0 | 0.03 | 0.41 | 0.41 | 94 | 1008.4 |
| 20260510031704 | 8 | 0 | 0.0 | 0.0 | 0.03 | 0.41 | 0.41 | 94 | 1008.4 |
| 20260510031604 | 8 | 0 | 0.0 | 0.0 | 0.03 | 0.41 | 0.41 | 94 | 1008.4 |
| 20260510031517 | 8 | 360 | 0.0 | 0.0 | 0.03 | 0.41 | 0.41 | 94 | 1008.5 |
| 20260510031503 | 8 | 0 | 0.0 | 0.0 | 0.03 | 0.41 | 0.41 | 94 | 1008.4 |
| 20260510031437 | 8 | 0 | 0.0 | 0.0 | 0.03 | 0.41 | 0.41 | 94 | 1008.4 |
| 20260510031402 | 8 | 0 | 0.0 | 0.0 | 0.03 | 0.41 | 0.41 | 94 | 1008.4 |
| 20260510031302 | 8 | 0 | 0.0 | 0.0 | 0.00 | 0.38 | 0.38 | 94 | 1008.3 |
| 20260510031202 | 8 | 0 | 0.0 | 0.0 | 0.00 | 0.38 | 0.38 | 94 | 1008.3 |
| 20260510031101 | 8 | 0 | 0.0 | 0.0 | 0.00 | 0.38 | 0.38 | 94 | 1008.2 |
| 20260510031047 | 8 | 360 | 0.0 | 0.0 | 0.00 | 0.38 | 0.38 | 94 | 1008.3 |
| 20260510031001 | 8 | 0 | 0.0 | 0.0 | 0.00 | 0.38 | 0.38 | 94 | 1008.2 |
| 20260510030935 | 8 | 0 | 0.0 | 0.0 | 0.00 | 0.38 | 0.38 | 94 | 1008.2 |
| 20260510030900 | 8 | 0 | 0.0 | 0.0 | 0.00 | 0.38 | 0.38 | 94 | 1008.2 |
| 20260510030758 | 8 | 0 | 0.0 | 0.0 | 0.00 | 0.38 | 0.38 | 94 | 1008.2 |
| 20260510030658 | 8 | 0 | 0.0 | 0.0 | 0.00 | 0.38 | 0.38 | 94 | 1008.2 |
| 20260510030557 | 9 | 0 | 0.0 | 0.0 | 0.00 | 0.38 | 0.38 | 94 | 1008.2 |
| 20260510030517 | 9 | 360 | 0.0 | 0.0 | 0.00 | 0.38 | 0.38 | 94 | 1008.3 |
| 20260510030435 | 9 | 0 | 0.0 | 0.0 | 0.00 | 0.38 | 0.38 | 94 | 1008.2 |
| 20260510030357 | 9 | 0 | 0.0 | 0.0 | 0.00 | 0.38 | 0.38 | 94 | 1008.2 |
| 20260510030256 | 9 | 0 | 0.0 | 0.0 | 0.00 | 0.38 | 0.38 | 94 | 1008.2 |
| 20260510030214 | 9 | 0 | 0.0 | 0.0 | 0.00 | 0.38 | 0.38 | 94 | 1008.2 |
| 20260510030210 | 9 | 0 | 0.0 | 0.0 | 0.00 | 0.38 | 0.38 | 94 | 1008.2 |
| 20260510030205 | 9 | 0 | 0.0 | 0.0 | 0.00 | 0.38 | 0.38 | 94 | 1008.2 |
| 20260510030039 | 9 | 0 | 0.0 | 0.0 | 0.00 | 0.38 | 0.38 | 94 | 1008.2 |
| 20260510030017 | 9 | 360 | 0.0 | 0.0 | 0.00 | 0.38 | 0.38 | 94 | 1008.3 |
| 20260510025854 | 9 | 0 | 0.0 | 0.0 | 0.00 | 0.38 | 0.38 | 94 | 1008.1 |
| 20260510025837 | 9 | 0 | 0.0 | 0.0 | 0.00 | 0.38 | 0.38 | 94 | 1008.1 |
| 20260510025833 | 9 | 0 | 0.0 | 0.0 | 0.00 | 0.38 | 0.38 | 94 | 1008.1 |
| 20260510025827 | 9 | 0 | 0.0 | 0.0 | 0.00 | 0.38 | 0.38 | 94 | 1008.2 |
| 20260510025820 | 9 | 0 | 0.0 | 0.0 | 0.00 | 0.38 | 0.38 | 94 | 1008.1 |
| 20260510025517 | 9 | 360 | 0.0 | 0.0 | 0.00 | 0.38 | 0.38 | 94 | 1008.3 |
| 20260510025432 | 9 | 0 | 0.0 | 0.0 | 0.00 | 0.38 | 0.38 | 94 | 1008.2 |
| 20260510025351 | 9 | 0 | 0.0 | 0.0 | 0.00 | 0.38 | 0.38 | 94 | 1008.1 |
| 20260510025251 | 9 | 0 | 0.0 | 0.0 | 0.00 | 0.38 | 0.38 | 94 | 1008.1 |
| 20260510025151 | 9 | 0 | 0.0 | 0.0 | 0.00 | 0.38 | 0.38 | 94 | 1008.2 |
| 20260510025126 | 9 | 0 | 0.0 | 0.0 | 0.00 | 0.38 | 0.38 | 94 | 1008.1 |
| 20260510025122 | 9 | 0 | 0.0 | 0.0 | 0.00 | 0.38 | 0.38 | 94 | 1008.1 |
| 20260510025114 | 9 | 0 | 0.0 | 0.0 | 0.00 | 0.38 | 0.38 | 94 | 1008.1 |
| 20260510025017 | 9 | 360 | 0.0 | 0.0 | 0.00 | 0.38 | 0.38 | 94 | 1008.2 |
| 20260510025000 | 9 | 0 | 0.0 | 0.0 | 0.00 | 0.38 | 0.38 | 94 | 1008.1 |
| 20260510024804 | 9 | 0 | 0.0 | 0.0 | 0.00 | 0.38 | 0.38 | 94 | 1008.2 |
| 20260510024758 | 9 | 0 | 0.0 | 0.0 | 0.00 | 0.38 | 0.38 | 94 | 1008.2 |
| 20260510024548 | 9 | 0 | 0.0 | 0.0 | 0.00 | 0.38 | 0.38 | 94 | 1008.2 |
| 20260510024517 | 9 | 360 | 0.0 | 0.0 | 0.00 | 0.38 | 0.38 | 94 | 1008.2 |
| 20260510024507 | 9 | 0 | 0.0 | 0.0 | 0.00 | 0.38 | 0.38 | 94 | 1008.2 |
| 20260510024458 | 9 | 0 | 0.0 | 0.0 | 0.00 | 0.38 | 0.38 | 94 | 1008.1 |
| 20260510024247 | 9 | 0 | 0.0 | 0.0 | 0.00 | 0.38 | 0.38 | 94 | 1008.2 |
| 20260510024147 | 9 | 0 | 0.0 | 0.0 | 0.00 | 0.38 | 0.38 | 94 | 1008.2 |
| 20260510024046 | 9 | 0 | 0.0 | 0.0 | 0.00 | 0.38 | 0.38 | 94 | 1008.2 |
| 20260510024017 | 9 | 360 | 0.0 | 0.0 | 0.00 | 0.38 | 0.38 | 93 | 1008.3 |
| 20260510023929 | 9 | 0 | 0.0 | 0.0 | 0.00 | 0.38 | 0.38 | 93 | 1008.2 |
| 20260510023845 | 9 | 0 | 0.0 | 0.0 | 0.00 | 0.38 | 0.38 | 93 | 1008.2 |
| 20260510023745 | 9 | 0 | 0.0 | 0.0 | 0.00 | 0.38 | 0.38 | 93 | 1008.2 |
| 20260510023644 | 9 | 0 | 0.0 | 0.0 | 0.00 | 0.38 | 0.38 | 93 | 1008.2 |
| 20260510023557 | 9 | 0 | 0.0 | 0.0 | 0.00 | 0.38 | 0.38 | 93 | 1008.1 |
| 20260510023552 | 9 | 0 | 0.0 | 0.0 | 0.00 | 0.38 | 0.38 | 93 | 1008.2 |
| 20260510023517 | 9 | 360 | 0.0 | 0.0 | 0.00 | 0.38 | 0.38 | 93 | 1008.2 |
| 20260510023429 | 9 | 0 | 0.0 | 0.0 | 0.00 | 0.38 | 0.38 | 93 | 1008.1 |
| 20260510023344 | 9 | 0 | 0.0 | 0.0 | 0.00 | 0.38 | 0.38 | 93 | 1008.1 |
| 20260510023243 | 9 | 0 | 0.0 | 0.0 | 0.00 | 0.38 | 0.38 | 93 | 1008.1 |
| 20260510023143 | 10 | 0 | 0.0 | 0.0 | 0.00 | 0.38 | 0.38 | 94 | 1008.1 |
| 20260510023056 | 10 | 0 | 0.0 | 0.0 | 0.00 | 0.38 | 0.38 | 94 | 1008.1 |
| 20260510023051 | 10 | 0 | 0.0 | 0.0 | 0.00 | 0.38 | 0.38 | 94 | 1008.1 |
| 20260510023033 | 10 | 360 | 0.0 | 0.0 | 0.00 | 0.38 | 0.38 | 94 | 1008.2 |
| 20260510022928 | 10 | 0 | 0.0 | 0.0 | 0.00 | 0.38 | 0.38 | 94 | 1008.1 |
| 20260510022842 | 10 | 0 | 0.0 | 0.0 | 0.00 | 0.38 | 0.38 | 94 | 1008.1 |
| 20260510022741 | 10 | 0 | 0.0 | 0.0 | 0.00 | 0.38 | 0.38 | 94 | 1008.1 |
| 20260510022648 | 10 | 0 | 0.0 | 0.0 | 0.00 | 0.38 | 0.38 | 94 | 1008.1 |
| 20260510022641 | 10 | 0 | 0.0 | 0.0 | 0.00 | 0.38 | 0.38 | 94 | 1008.1 |
| 20260510022540 | 10 | 0 | 0.0 | 0.0 | 0.00 | 0.38 | 0.38 | 94 | 1008.1 |
| 20260510022530 | 10 | 0 | 0.0 | 0.0 | 0.00 | 0.38 | 0.38 | 94 | 1008.1 |
| 20260510022517 | 10 | 360 | 0.0 | 0.0 | 0.00 | 0.38 | 0.38 | 94 | 1008.2 |
| 20260510022339 | 10 | 0 | 0.0 | 0.0 | 0.00 | 0.38 | 0.38 | 94 | 1008.1 |
| 20260510022239 | 10 | 0 | 0.0 | 0.0 | 0.00 | 0.38 | 0.38 | 94 | 1008.1 |
| 20260510022147 | 10 | 0 | 0.0 | 0.0 | 0.00 | 0.38 | 0.38 | 93 | 1008.1 |
| 20260510022139 | 10 | 0 | 0.0 | 0.0 | 0.00 | 0.38 | 0.38 | 93 | 1008.1 |
| 20260510022040 | 10 | 0 | 0.0 | 0.0 | 0.00 | 0.38 | 0.38 | 93 | 1008.0 |
| 20260510022031 | 10 | 0 | 0.0 | 0.0 | 0.00 | 0.38 | 0.38 | 93 | 1008.1 |
| 20260510022017 | 10 | 360 | 0.0 | 0.0 | 0.00 | 0.38 | 0.38 | 93 | 1008.2 |
| 20260510021837 | 10 | 0 | 0.0 | 0.0 | 0.00 | 0.38 | 0.38 | 94 | 1008.0 |
| 20260510021737 | 10 | 0 | 0.0 | 0.0 | 0.00 | 0.38 | 0.38 | 93 | 1008.0 |
| 20260510021636 | 10 | 0 | 0.0 | 0.0 | 0.00 | 0.38 | 0.38 | 94 | 1008.0 |
| 20260510021535 | 10 | 0 | 0.0 | 0.0 | 0.00 | 0.38 | 0.38 | 94 | 1008.0 |
| 20260510021517 | 10 | 360 | 0.0 | 0.0 | 0.00 | 0.38 | 0.38 | 94 | 1008.2 |
| 20260510021426 | 10 | 0 | 0.0 | 0.0 | 0.00 | 0.38 | 0.38 | 94 | 1008.1 |
| 20260510021333 | 10 | 0 | 0.0 | 0.0 | 0.00 | 0.38 | 0.38 | 94 | 1008.0 |
| 20260510021232 | 10 | 0 | 0.0 | 0.0 | 0.00 | 0.38 | 0.38 | 94 | 1008.0 |
| 20260510021132 | 10 | 0 | 0.0 | 0.0 | 0.00 | 0.38 | 0.38 | 94 | 1008.1 |
| 20260510021032 | 10 | 0 | 0.0 | 0.0 | 0.00 | 0.38 | 0.38 | 94 | 1008.1 |
| 20260510021017 | 10 | 360 | 0.0 | 0.0 | 0.00 | 0.38 | 0.38 | 94 | 1008.2 |
| 20260510020926 | 10 | 0 | 0.0 | 0.0 | 0.00 | 0.38 | 0.38 | 94 | 1008.1 |
| 20260510020831 | 10 | 0 | 0.0 | 0.0 | 0.00 | 0.38 | 0.38 | 94 | 1008.1 |
| 20260510020729 | 10 | 0 | 0.0 | 0.0 | 0.00 | 0.38 | 0.38 | 94 | 1008.0 |
| 20260510020629 | 10 | 0 | 0.0 | 0.0 | 0.00 | 0.38 | 0.38 | 93 | 1008.1 |
| 20260510020529 | 10 | 0 | 0.0 | 0.0 | 0.00 | 0.38 | 0.38 | 93 | 1008.0 |
| 20260510020517 | 10 | 360 | 0.0 | 0.0 | 0.00 | 0.38 | 0.38 | 93 | 1008.2 |
| 20260510020424 | 10 | 0 | 0.0 | 0.0 | 0.00 | 0.38 | 0.38 | 93 | 1008.1 |
| 20260510020328 | 10 | 0 | 0.0 | 0.0 | 0.00 | 0.38 | 0.38 | 93 | 1008.1 |
| 20260510020227 | 10 | 0 | 0.0 | 0.0 | 0.00 | 0.38 | 0.38 | 93 | 1008.0 |
| 20260510020127 | 10 | 0 | 0.0 | 0.0 | 0.00 | 0.38 | 0.38 | 93 | 1008.1 |
| 20260510020032 | 10 | 360 | 0.0 | 0.0 | 0.00 | 0.38 | 0.38 | 93 | 1008.1 |
| 20260510020027 | 10 | 0 | 0.0 | 0.0 | 0.00 | 0.38 | 0.38 | 93 | 1008.0 |
| 20260510015925 | 10 | 0 | 0.0 | 0.0 | 0.00 | 0.38 | 0.38 | 93 | 1008.0 |
| 20260510015839 | 10 | 0 | 0.0 | 0.0 | 0.00 | 0.38 | 0.38 | 93 | 1008.0 |
| 20260510015834 | 10 | 0 | 0.0 | 0.0 | 0.00 | 0.38 | 0.38 | 93 | 1008.1 |
| 20260510015625 | 10 | 0 | 0.0 | 0.0 | 0.00 | 0.38 | 0.38 | 93 | 1008.0 |
| 20260510015525 | 10 | 0 | 0.0 | 0.0 | 0.00 | 0.38 | 0.38 | 93 | 1008.0 |
| 20260510015517 | 10 | 360 | 0.0 | 0.0 | 0.00 | 0.38 | 0.38 | 93 | 1008.1 |
| 20260510015447 | 10 | 0 | 0.0 | 0.0 | 0.00 | 0.38 | 0.38 | 93 | 1008.0 |
| 20260510015332 | 10 | 0 | 0.0 | 0.0 | 0.00 | 0.38 | 0.38 | 93 | 1007.9 |
| 20260510015123 | 10 | 0 | 0.0 | 0.0 | 0.00 | 0.38 | 0.38 | 93 | 1007.9 |
| 20260510015032 | 10 | 360 | 0.0 | 0.0 | 0.00 | 0.38 | 0.38 | 93 | 1008.0 |
| 20260510015022 | 10 | 0 | 0.0 | 0.0 | 0.00 | 0.38 | 0.38 | 93 | 1007.9 |
| 20260510014920 | 10 | 0 | 0.0 | 0.0 | 0.00 | 0.38 | 0.38 | 93 | 1008.0 |
| 20260510014821 | 10 | 0 | 0.0 | 0.0 | 0.00 | 0.38 | 0.38 | 93 | 1008.0 |
| 20260510014718 | 10 | 0 | 0.0 | 0.0 | 0.00 | 0.38 | 0.38 | 93 | 1007.9 |
| 20260510014618 | 10 | 0 | 0.0 | 0.0 | 0.00 | 0.38 | 0.38 | 93 | 1007.9 |
| 20260510014536 | 10 | 0 | 0.0 | 0.0 | 0.00 | 0.38 | 0.38 | 93 | 1008.0 |
| 20260510014531 | 10 | 0 | 0.0 | 0.0 | 0.00 | 0.38 | 0.38 | 93 | 1008.0 |
| 20260510014517 | 10 | 360 | 0.0 | 0.0 | 0.00 | 0.38 | 0.38 | 93 | 1008.0 |
| 20260510014417 | 10 | 0 | 0.0 | 0.0 | 0.00 | 0.38 | 0.38 | 93 | 1008.0 |
| 20260510014318 | 10 | 0 | 0.0 | 0.0 | 0.00 | 0.38 | 0.38 | 93 | 1008.0 |
| 20260510014217 | 10 | 0 | 0.0 | 0.0 | 0.00 | 0.38 | 0.38 | 93 | 1008.0 |
| 20260510014116 | 10 | 0 | 0.0 | 0.0 | 0.00 | 0.38 | 0.38 | 93 | 1008.0 |
| 20260510014017 | 10 | 360 | 0.0 | 0.0 | 0.00 | 0.38 | 0.38 | 93 | 1008.1 |
| 20260510013917 | 10 | 0 | 0.0 | 0.0 | 0.00 | 0.38 | 0.38 | 93 | 1008.1 |
| 20260510013815 | 10 | 0 | 0.0 | 0.0 | 0.00 | 0.38 | 0.38 | 93 | 1008.1 |
| 20260510013715 | 10 | 0 | 0.0 | 0.0 | 0.00 | 0.38 | 0.38 | 93 | 1008.1 |
| 20260510013614 | 10 | 0 | 0.0 | 0.0 | 0.00 | 0.38 | 0.38 | 93 | 1008.1 |
| 20260510013518 | 11 | 360 | 0.0 | 0.0 | 0.00 | 0.38 | 0.38 | 93 | 1008.0 |
| 20260510013514 | 10 | 0 | 0.0 | 0.0 | 0.00 | 0.38 | 0.38 | 93 | 1008.1 |
| 20260510013413 | 10 | 0 | 0.0 | 0.0 | 0.00 | 0.38 | 0.38 | 93 | 1008.0 |
| 20260510013327 | 11 | 0 | 0.0 | 0.0 | 0.00 | 0.38 | 0.38 | 93 | 1008.0 |
| 20260510013322 | 10 | 0 | 0.0 | 0.0 | 0.00 | 0.38 | 0.38 | 93 | 1008.1 |
| 20260510013112 | 11 | 0 | 0.0 | 0.0 | 0.00 | 0.38 | 0.38 | 93 | 1008.0 |
| 20260510013018 | 11 | 360 | 0.0 | 0.0 | 0.00 | 0.38 | 0.38 | 93 | 1008.0 |
| 20260510013012 | 11 | 0 | 0.0 | 0.0 | 0.00 | 0.38 | 0.38 | 93 | 1008.0 |
| 20260510012911 | 11 | 0 | 0.0 | 0.0 | 0.00 | 0.38 | 0.38 | 93 | 1008.0 |
| 20260510012811 | 11 | 0 | 0.0 | 0.0 | 0.00 | 0.38 | 0.38 | 93 | 1008.0 |
| 20260510012723 | 11 | 0 | 0.0 | 0.0 | 0.00 | 0.38 | 0.38 | 93 | 1008.0 |
| 20260510012718 | 11 | 0 | 0.0 | 0.0 | 0.00 | 0.38 | 0.38 | 93 | 1008.0 |
| 20260510012517 | 11 | 360 | 0.0 | 0.0 | 0.00 | 0.38 | 0.38 | 93 | 1007.9 |
| 20260510012508 | 11 | 0 | 0.0 | 0.0 | 0.00 | 0.38 | 0.38 | 93 | 1007.9 |
| 20260510012408 | 11 | 0 | 0.0 | 0.0 | 0.00 | 0.38 | 0.38 | 93 | 1007.9 |
| 20260510012308 | 11 | 0 | 0.0 | 0.0 | 0.00 | 0.38 | 0.38 | 93 | 1007.9 |
| 20260510012207 | 11 | 0 | 0.0 | 0.0 | 0.00 | 0.38 | 0.38 | 93 | 1007.9 |
| 20260510012106 | 11 | 0 | 0.0 | 0.0 | 0.00 | 0.38 | 0.38 | 93 | 1007.9 |
| 20260510012017 | 11 | 360 | 0.0 | 0.0 | 0.00 | 0.38 | 0.38 | 93 | 1008.0 |
| 20260510012005 | 11 | 0 | 0.0 | 0.0 | 0.00 | 0.38 | 0.38 | 93 | 1008.0 |
| 20260510011905 | 11 | 0 | 0.0 | 0.0 | 0.00 | 0.38 | 0.38 | 93 | 1008.0 |
| 20260510011805 | 11 | 0 | 0.0 | 0.0 | 0.00 | 0.38 | 0.38 | 93 | 1008.0 |
| 20260510011704 | 11 | 0 | 0.0 | 0.0 | 0.00 | 0.38 | 0.38 | 93 | 1008.0 |
| 20260510011604 | 11 | 0 | 0.0 | 0.0 | 0.00 | 0.38 | 0.38 | 93 | 1008.0 |
| 20260510011517 | 11 | 360 | 0.0 | 0.0 | 0.00 | 0.38 | 0.38 | 93 | 1008.0 |
| 20260510011501 | 11 | 0 | 0.0 | 0.0 | 0.00 | 0.38 | 0.38 | 93 | 1008.0 |
| 20260510011415 | 11 | 0 | 0.0 | 0.0 | 0.00 | 0.38 | 0.38 | 93 | 1007.9 |
| 20260510011401 | 11 | 0 | 0.0 | 0.0 | 0.00 | 0.38 | 0.38 | 93 | 1007.9 |
| 20260510011301 | 11 | 0 | 0.0 | 0.0 | 0.00 | 0.38 | 0.38 | 93 | 1007.9 |
| 20260510011200 | 11 | 0 | 0.0 | 0.0 | 0.00 | 0.38 | 0.38 | 93 | 1007.9 |
| 20260510011102 | 11 | 0 | 0.0 | 0.0 | 0.00 | 0.38 | 0.38 | 93 | 1007.9 |
| 20260510011017 | 11 | 360 | 0.0 | 0.0 | 0.00 | 0.38 | 0.38 | 93 | 1007.9 |
| 20260510011002 | 11 | 0 | 0.0 | 0.0 | 0.00 | 0.38 | 0.38 | 93 | 1007.9 |
| 20260510010901 | 11 | 0 | 0.0 | 0.0 | 0.00 | 0.38 | 0.38 | 93 | 1007.9 |
| 20260510010801 | 11 | 0 | 0.0 | 0.0 | 0.00 | 0.38 | 0.38 | 93 | 1007.9 |
| 20260510010701 | 11 | 0 | 0.0 | 0.0 | 0.00 | 0.38 | 0.38 | 93 | 1007.9 |
| 20260510010634 | 11 | 0 | 0.0 | 0.0 | 0.00 | 0.38 | 0.38 | 92 | 1007.8 |
| 20260510010600 | 11 | 0 | 0.0 | 0.0 | 0.00 | 0.38 | 0.38 | 93 | 1007.8 |
| 20260510010532 | 11 | 0 | 0.0 | 0.0 | 0.00 | 0.38 | 0.38 | 92 | 1007.8 |
| 20260510010524 | 11 | 0 | 0.0 | 0.0 | 0.00 | 0.38 | 0.38 | 92 | 1007.8 |
| 20260510010517 | 11 | 360 | 0.0 | 0.0 | 0.00 | 0.38 | 0.38 | 93 | 1007.8 |
| 20260510010409 | 11 | 0 | 0.0 | 0.0 | 0.00 | 0.38 | 0.38 | 92 | 1007.8 |
| 20260510010200 | 11 | 0 | 0.0 | 0.0 | 0.00 | 0.38 | 0.38 | 92 | 1007.8 |
| 20260510010059 | 11 | 0 | 0.0 | 0.0 | 0.00 | 0.38 | 0.38 | 92 | 1007.8 |
| 20260510010017 | 11 | 360 | 0.0 | 0.0 | 0.00 | 0.38 | 0.38 | 92 | 1007.7 |
| 20260510005958 | 11 | 0 | 0.0 | 0.0 | 0.00 | 0.38 | 0.38 | 92 | 1007.7 |
| 20260510005912 | 11 | 0 | 0.0 | 0.0 | 0.00 | 0.38 | 0.38 | 92 | 1007.7 |
| 20260510005857 | 11 | 0 | 0.0 | 0.0 | 0.00 | 0.38 | 0.38 | 92 | 1007.7 |
| 20260510005757 | 11 | 0 | 0.0 | 0.0 | 0.00 | 0.38 | 0.38 | 92 | 1007.7 |
| 20260510005656 | 11 | 0 | 0.0 | 0.0 | 0.00 | 0.38 | 0.38 | 92 | 1007.7 |
| 20260510005633 | 11 | 0 | 0.0 | 0.0 | 0.00 | 0.38 | 0.38 | 92 | 1007.6 |
| 20260510005555 | 11 | 0 | 0.0 | 0.0 | 0.00 | 0.38 | 0.38 | 92 | 1007.6 |
| 20260510005520 | 11 | 0 | 0.0 | 0.0 | 0.00 | 0.38 | 0.38 | 92 | 1007.6 |
| 20260510005517 | 11 | 360 | 0.0 | 0.0 | 0.00 | 0.38 | 0.38 | 92 | 1007.6 |
| 20260510005353 | 11 | 0 | 0.0 | 0.0 | 0.00 | 0.38 | 0.38 | 92 | 1007.6 |
| 20260510005253 | 11 | 0 | 0.0 | 0.0 | 0.00 | 0.38 | 0.38 | 92 | 1007.6 |
| 20260510005152 | 11 | 0 | 0.0 | 0.0 | 0.00 | 0.38 | 0.38 | 92 | 1007.6 |
| 20260510005052 | 11 | 0 | 0.0 | 0.0 | 0.00 | 0.38 | 0.38 | 92 | 1007.6 |
| 20260510005047 | 11 | 360 | 0.0 | 0.0 | 0.00 | 0.38 | 0.38 | 92 | 1007.6 |
| 20260510004952 | 11 | 0 | 0.0 | 0.0 | 0.00 | 0.38 | 0.38 | 92 | 1007.6 |
| 20260510004913 | 11 | 0 | 0.0 | 0.0 | 0.00 | 0.38 | 0.38 | 92 | 1007.5 |
| 20260510004849 | 11 | 0 | 0.0 | 0.0 | 0.00 | 0.38 | 0.38 | 92 | 1007.5 |
| 20260510004749 | 11 | 0 | 0.0 | 0.0 | 0.00 | 0.38 | 0.38 | 92 | 1007.5 |
| 20260510004701 | 11 | 0 | 0.0 | 0.0 | 0.00 | 0.38 | 0.38 | 92 | 1007.5 |
| 20260510004657 | 11 | 0 | 0.0 | 0.0 | 0.00 | 0.38 | 0.38 | 92 | 1007.5 |
| 20260510004517 | 12 | 360 | 0.0 | 0.0 | 0.00 | 0.38 | 0.38 | 92 | 1007.5 |
| 20260510004506 | 12 | 0 | 0.0 | 0.0 | 0.00 | 0.38 | 0.38 | 92 | 1007.5 |
| 20260510004455 | 12 | 0 | 0.0 | 0.0 | 0.00 | 0.38 | 0.38 | 92 | 1007.5 |
| 20260510004247 | 12 | 0 | 0.0 | 0.0 | 0.00 | 0.38 | 0.38 | 92 | 1007.5 |
| 20260510004146 | 12 | 0 | 0.0 | 0.0 | 0.00 | 0.38 | 0.38 | 91 | 1007.5 |
| 20260510004045 | 12 | 0 | 0.0 | 0.0 | 0.00 | 0.38 | 0.38 | 91 | 1007.5 |
| 20260510004017 | 12 | 360 | 0.0 | 0.0 | 0.00 | 0.38 | 0.38 | 91 | 1007.5 |
| 20260510003945 | 12 | 0 | 0.0 | 0.0 | 0.00 | 0.38 | 0.38 | 91 | 1007.5 |
| 20260510003913 | 12 | 0 | 0.0 | 0.0 | 0.00 | 0.38 | 0.38 | 91 | 1007.5 |
| 20260510003844 | 12 | 0 | 0.0 | 0.0 | 0.00 | 0.38 | 0.38 | 91 | 1007.5 |
| 20260510003744 | 12 | 0 | 0.0 | 0.0 | 0.00 | 0.38 | 0.38 | 91 | 1007.5 |
| 20260510003641 | 12 | 0 | 0.0 | 0.0 | 0.00 | 0.38 | 0.38 | 91 | 1007.5 |
| 20260510003541 | 12 | 0 | 0.0 | 0.0 | 0.00 | 0.38 | 0.38 | 91 | 1007.5 |
| 20260510003517 | 12 | 360 | 0.0 | 0.0 | 0.00 | 0.38 | 0.38 | 91 | 1007.4 |
| 20260510003441 | 12 | 0 | 0.0 | 0.0 | 0.00 | 0.38 | 0.38 | 91 | 1007.4 |
| 20260510003412 | 12 | 0 | 0.0 | 0.0 | 0.00 | 0.38 | 0.38 | 91 | 1007.5 |
| 20260510003340 | 12 | 0 | 0.0 | 0.0 | 0.00 | 0.38 | 0.38 | 91 | 1007.5 |
| 20260510003240 | 12 | 0 | 0.0 | 0.0 | 0.00 | 0.38 | 0.38 | 91 | 1007.5 |
| 20260510003140 | 12 | 0 | 0.0 | 0.0 | 0.00 | 0.38 | 0.38 | 91 | 1007.5 |
| 20260510003039 | 12 | 0 | 0.0 | 0.0 | 0.00 | 0.38 | 0.38 | 91 | 1007.5 |
| 20260510003018 | 12 | 360 | 0.0 | 0.0 | 0.00 | 0.38 | 0.38 | 91 | 1007.5 |
| 20260510002910 | 12 | 0 | 0.0 | 0.0 | 0.00 | 0.38 | 0.38 | 91 | 1007.5 |
| 20260510002838 | 12 | 0 | 0.0 | 0.0 | 0.00 | 0.38 | 0.38 | 91 | 1007.5 |
| 20260510002738 | 12 | 0 | 0.0 | 0.0 | 0.00 | 0.38 | 0.38 | 91 | 1007.5 |
| 20260510002637 | 12 | 0 | 0.0 | 0.0 | 0.00 | 0.38 | 0.38 | 91 | 1007.6 |
| 20260510002537 | 12 | 0 | 0.0 | 0.0 | 0.00 | 0.38 | 0.38 | 91 | 1007.5 |
| 20260510002517 | 12 | 360 | 0.0 | 0.0 | 0.00 | 0.38 | 0.38 | 91 | 1007.5 |
| 20260510002409 | 12 | 0 | 0.0 | 0.0 | 0.00 | 0.38 | 0.38 | 91 | 1007.5 |
| 20260510002336 | 12 | 0 | 0.0 | 0.0 | 0.00 | 0.38 | 0.38 | 91 | 1007.5 |
| 20260510002236 | 12 | 0 | 0.0 | 0.0 | 0.00 | 0.38 | 0.38 | 91 | 1007.5 |
| 20260510002135 | 12 | 0 | 0.0 | 0.0 | 0.00 | 0.38 | 0.38 | 91 | 1007.5 |
| 20260510002034 | 12 | 0 | 0.0 | 0.0 | 0.00 | 0.38 | 0.38 | 91 | 1007.5 |
| 20260510002017 | 12 | 360 | 0.0 | 0.0 | 0.00 | 0.38 | 0.38 | 91 | 1007.5 |
| 20260510001907 | 12 | 0 | 0.0 | 0.0 | 0.00 | 0.38 | 0.38 | 91 | 1007.5 |
| 20260510001834 | 12 | 0 | 0.0 | 0.0 | 0.00 | 0.38 | 0.38 | 91 | 1007.5 |
| 20260510001734 | 12 | 0 | 0.0 | 0.0 | 0.00 | 0.38 | 0.38 | 91 | 1007.5 |
| 20260510001634 | 12 | 0 | 0.0 | 0.0 | 0.00 | 0.38 | 0.38 | 91 | 1007.5 |
| 20260510001533 | 12 | 0 | 0.0 | 0.0 | 0.00 | 0.38 | 0.38 | 91 | 1007.4 |
| 20260510001517 | 12 | 360 | 0.0 | 0.0 | 0.00 | 0.38 | 0.38 | 91 | 1007.4 |
| 20260510001454 | 12 | 0 | 0.0 | 0.0 | 0.00 | 0.38 | 0.38 | 91 | 1007.4 |
| 20260510001340 | 12 | 0 | 0.0 | 0.0 | 0.00 | 0.38 | 0.38 | 91 | 1007.4 |
| 20260510001131 | 12 | 0 | 0.0 | 0.0 | 0.00 | 0.38 | 0.38 | 91 | 1007.3 |
| 20260510001030 | 12 | 0 | 0.0 | 0.0 | 0.00 | 0.38 | 0.38 | 91 | 1007.4 |
| 20260510001017 | 12 | 360 | 0.0 | 0.0 | 0.00 | 0.38 | 0.38 | 91 | 1007.3 |
| 20260510000930 | 12 | 0 | 0.0 | 0.0 | 0.00 | 0.38 | 0.38 | 91 | 1007.3 |
| 20260510000904 | 12 | 0 | 0.0 | 0.0 | 0.00 | 0.38 | 0.38 | 91 | 1007.4 |
| 20260510000830 | 12 | 0 | 0.0 | 0.0 | 0.00 | 0.38 | 0.38 | 91 | 1007.4 |
| 20260510000729 | 12 | 0 | 0.0 | 0.0 | 0.00 | 0.38 | 0.38 | 91 | 1007.4 |
| 20260510000629 | 12 | 0 | 0.0 | 0.0 | 0.00 | 0.38 | 0.38 | 91 | 1007.4 |
| 20260510000529 | 12 | 0 | 0.0 | 0.0 | 0.00 | 0.38 | 0.38 | 91 | 1007.4 |
| 20260510000517 | 12 | 360 | 0.0 | 0.0 | 0.00 | 0.38 | 0.38 | 91 | 1007.4 |
| 20260510000427 | 12 | 0 | 0.0 | 0.0 | 0.00 | 0.38 | 0.38 | 91 | 1007.4 |
| 20260510000403 | 12 | 0 | 0.0 | 0.0 | 0.00 | 0.38 | 0.38 | 90 | 1007.4 |
| 20260510000327 | 12 | 0 | 0.0 | 0.0 | 0.00 | 0.38 | 0.38 | 90 | 1007.4 |
| 20260510000227 | 12 | 0 | 0.0 | 0.0 | 0.00 | 0.38 | 0.38 | 90 | 1007.3 |
| 20260510000138 | 12 | 0 | 0.0 | 0.0 | 0.00 | 0.38 | 0.38 | 90 | 1007.4 |
| 20260510000134 | 12 | 0 | 0.0 | 0.0 | 0.00 | 0.38 | 0.38 | 90 | 1007.4 |
| 20260510000017 | 12 | 360 | 0.0 | 0.0 | 0.00 | 0.38 | 0.38 | 90 | 1007.4 |
| 20260509235945 | 12 | 0 | 0.0 | 0.0 | 0.00 | 0.38 | 0.38 | 90 | 1007.4 |
| 20260509235939 | 12 | 0 | 0.0 | 0.0 | 0.00 | 0.38 | 0.38 | 90 | 1007.4 |
| 20260509235826 | 12 | 0 | 0.0 | 0.0 | 0.00 | 0.38 | 0.38 | 90 | 1007.4 |
| 20260509235822 | 13 | 0 | 0.0 | 0.0 | 0.00 | 0.38 | 0.38 | 90 | 1007.3 |
| 20260509235816 | 13 | 0 | 0.0 | 0.0 | 0.00 | 0.38 | 0.38 | 90 | 1007.3 |
| 20260509235812 | 13 | 0 | 0.0 | 0.0 | 0.00 | 0.38 | 0.38 | 90 | 1007.3 |
| 20260509235804 | 12 | 0 | 0.0 | 0.0 | 0.00 | 0.38 | 0.38 | 90 | 1007.4 |
| 20260509235532 | 13 | 360 | 0.0 | 0.0 | 0.00 | 0.38 | 0.38 | 90 | 1007.3 |
| 20260509235431 | 13 | 0 | 0.0 | 0.0 | 0.00 | 0.38 | 0.38 | 90 | 1007.3 |
| 20260509235221 | 13 | 0 | 0.0 | 0.0 | 0.00 | 0.38 | 0.38 | 90 | 1007.3 |
| 20260509235119 | 13 | 0 | 0.0 | 0.0 | 0.00 | 0.38 | 0.38 | 90 | 1007.4 |
| 20260509235018 | 13 | 0 | 0.0 | 0.0 | 0.00 | 0.38 | 0.38 | 90 | 1007.3 |
| 20260509234919 | 13 | 0 | 0.0 | 0.0 | 0.00 | 0.38 | 0.38 | 90 | 1007.3 |
| 20260509234859 | 13 | 0 | 0.0 | 0.0 | 0.00 | 0.38 | 0.38 | 90 | 1007.4 |
| 20260509234819 | 13 | 0 | 0.0 | 0.0 | 0.00 | 0.38 | 0.38 | 90 | 1007.4 |
| 20260509234718 | 13 | 0 | 0.0 | 0.0 | 0.00 | 0.38 | 0.38 | 90 | 1007.3 |
| 20260509234618 | 13 | 0 | 0.0 | 0.0 | 0.00 | 0.38 | 0.38 | 90 | 1007.4 |
| 20260509234517 | 13 | 360 | 0.0 | 0.0 | 0.00 | 0.38 | 0.38 | 90 | 1007.4 |
| 20260509234417 | 13 | 0 | 0.0 | 0.0 | 0.00 | 0.38 | 0.38 | 90 | 1007.4 |
| 20260509234359 | 13 | 0 | 0.0 | 0.0 | 0.00 | 0.38 | 0.38 | 90 | 1007.4 |
| 20260509234314 | 13 | 0 | 0.0 | 0.0 | 0.00 | 0.38 | 0.38 | 90 | 1007.4 |
| 20260509234214 | 13 | 0 | 0.0 | 0.0 | 0.00 | 0.38 | 0.38 | 90 | 1007.4 |
| 20260509234113 | 13 | 0 | 0.0 | 0.0 | 0.00 | 0.38 | 0.38 | 90 | 1007.4 |
| 20260509234026 | 13 | 0 | 0.0 | 0.0 | 0.00 | 0.38 | 0.38 | 90 | 1007.5 |
| 20260509234022 | 13 | 0 | 0.0 | 0.0 | 0.00 | 0.38 | 0.38 | 90 | 1007.4 |
| 20260509234017 | 13 | 360 | 0.0 | 0.0 | 0.00 | 0.38 | 0.38 | 90 | 1007.4 |
| 20260509233859 | 13 | 0 | 0.0 | 0.0 | 0.00 | 0.38 | 0.38 | 90 | 1007.5 |
| 20260509233811 | 13 | 0 | 0.0 | 0.0 | 0.00 | 0.38 | 0.38 | 90 | 1007.4 |
| 20260509233711 | 13 | 0 | 0.0 | 0.0 | 0.00 | 0.38 | 0.38 | 90 | 1007.5 |
| 20260509233611 | 13 | 0 | 0.0 | 0.0 | 0.00 | 0.38 | 0.38 | 90 | 1007.4 |
| 20260509233517 | 13 | 360 | 0.0 | 0.0 | 0.00 | 0.38 | 0.38 | 90 | 1007.4 |
| 20260509233510 | 13 | 0 | 0.0 | 0.0 | 0.00 | 0.38 | 0.38 | 90 | 1007.4 |
| 20260509233426 | 13 | 0 | 0.0 | 0.0 | 0.00 | 0.38 | 0.38 | 89 | 1007.4 |
| 20260509233422 | 13 | 0 | 0.0 | 0.0 | 0.00 | 0.38 | 0.38 | 89 | 1007.5 |
| 20260509233416 | 13 | 0 | 0.0 | 0.0 | 0.00 | 0.38 | 0.38 | 89 | 1007.5 |
| 20260509233207 | 13 | 0 | 0.0 | 0.0 | 0.00 | 0.38 | 0.38 | 89 | 1007.5 |
| 20260509233105 | 13 | 0 | 0.0 | 0.0 | 0.00 | 0.38 | 0.38 | 89 | 1007.5 |
| 20260509233017 | 13 | 360 | 0.0 | 0.0 | 0.00 | 0.38 | 0.38 | 89 | 1007.5 |
| 20260509233005 | 13 | 0 | 0.0 | 0.0 | 0.00 | 0.38 | 0.38 | 89 | 1007.5 |
| 20260509232905 | 13 | 0 | 0.0 | 0.0 | 0.00 | 0.38 | 0.38 | 89 | 1007.5 |
| 20260509232858 | 13 | 0 | 0.0 | 0.0 | 0.00 | 0.38 | 0.38 | 89 | 1007.5 |
| 20260509232804 | 13 | 0 | 0.0 | 0.0 | 0.00 | 0.38 | 0.38 | 89 | 1007.5 |
| 20260509232704 | 13 | 0 | 0.0 | 0.0 | 0.00 | 0.38 | 0.38 | 89 | 1007.5 |
| 20260509232602 | 13 | 0 | 0.0 | 0.0 | 0.00 | 0.38 | 0.38 | 89 | 1007.4 |
| 20260509232517 | 13 | 360 | 0.0 | 0.0 | 0.00 | 0.38 | 0.38 | 89 | 1007.4 |
| 20260509232502 | 13 | 0 | 0.0 | 0.0 | 0.00 | 0.38 | 0.38 | 89 | 1007.4 |
| 20260509232401 | 13 | 0 | 0.0 | 0.0 | 0.00 | 0.38 | 0.38 | 89 | 1007.4 |
| 20260509232354 | 13 | 0 | 0.0 | 0.0 | 0.00 | 0.38 | 0.38 | 89 | 1007.4 |
| 20260509232300 | 13 | 0 | 0.0 | 0.0 | 0.00 | 0.38 | 0.38 | 89 | 1007.4 |
| 20260509232200 | 13 | 0 | 0.0 | 0.0 | 0.00 | 0.38 | 0.38 | 89 | 1007.4 |
| 20260509232059 | 13 | 0 | 0.0 | 0.0 | 0.00 | 0.38 | 0.38 | 89 | 1007.4 |
| 20260509232032 | 13 | 360 | 0.0 | 0.0 | 0.00 | 0.38 | 0.38 | 89 | 1007.4 |
| 20260509231959 | 13 | 0 | 0.0 | 0.0 | 0.00 | 0.38 | 0.38 | 89 | 1007.4 |
| 20260509231853 | 13 | 0 | 0.0 | 0.0 | 0.00 | 0.38 | 0.38 | 89 | 1007.4 |
| 20260509231758 | 13 | 0 | 0.0 | 0.0 | 0.00 | 0.38 | 0.38 | 89 | 1007.3 |
| 20260509231658 | 13 | 0 | 0.0 | 0.0 | 0.00 | 0.38 | 0.38 | 89 | 1007.4 |
| 20260509231558 | 13 | 0 | 0.0 | 0.0 | 0.00 | 0.38 | 0.38 | 89 | 1007.4 |
| 20260509231517 | 13 | 360 | 0.0 | 0.0 | 0.00 | 0.38 | 0.38 | 89 | 1007.4 |
| 20260509231509 | 13 | 0 | 0.0 | 0.0 | 0.00 | 0.38 | 0.38 | 90 | 1007.4 |
| 20260509231505 | 13 | 0 | 0.0 | 0.0 | 0.00 | 0.38 | 0.38 | 89 | 1007.4 |
| 20260509231352 | 13 | 0 | 0.0 | 0.0 | 0.00 | 0.38 | 0.38 | 90 | 1007.4 |
| 20260509231256 | 13 | 0 | 0.0 | 0.0 | 0.00 | 0.38 | 0.38 | 90 | 1007.4 |
| 20260509231155 | 13 | 0 | 0.0 | 0.0 | 0.00 | 0.38 | 0.38 | 90 | 1007.4 |
| 20260509231054 | 13 | 0 | 0.0 | 0.0 | 0.00 | 0.38 | 0.38 | 90 | 1007.4 |
| 20260509231017 | 13 | 360 | 0.0 | 0.0 | 0.00 | 0.38 | 0.38 | 89 | 1007.4 |
| 20260509230954 | 13 | 0 | 0.0 | 0.0 | 0.00 | 0.38 | 0.38 | 89 | 1007.4 |
| 20260509230849 | 13 | 0 | 0.0 | 0.0 | 0.00 | 0.38 | 0.38 | 89 | 1007.4 |
| 20260509230753 | 13 | 0 | 0.0 | 0.0 | 0.00 | 0.38 | 0.38 | 89 | 1007.4 |
| 20260509230653 | 13 | 0 | 0.0 | 0.0 | 0.00 | 0.38 | 0.38 | 89 | 1007.4 |
| 20260509230553 | 13 | 0 | 0.0 | 1.6 | 0.00 | 0.38 | 0.38 | 89 | 1007.4 |
| 20260509230517 | 13 | 360 | 0.0 | 1.6 | 0.00 | 0.38 | 0.38 | 89 | 1007.4 |
| 20260509230506 | 13 | 0 | 0.0 | 1.6 | 0.00 | 0.38 | 0.38 | 89 | 1007.3 |
| 20260509230502 | 13 | 0 | 0.0 | 1.6 | 0.00 | 0.38 | 0.38 | 89 | 1007.4 |
| 20260509230347 | 13 | 0 | 0.0 | 1.6 | 0.00 | 0.38 | 0.38 | 89 | 1007.3 |
| 20260509230251 | 13 | 0 | 0.0 | 1.6 | 0.00 | 0.38 | 0.38 | 89 | 1007.3 |
| 20260509230150 | 13 | 0 | 0.0 | 1.6 | 0.00 | 0.38 | 0.38 | 89 | 1007.3 |
| 20260509230050 | 13 | 0 | 0.0 | 1.6 | 0.00 | 0.38 | 0.38 | 89 | 1007.3 |
| 20260509230017 | 13 | 360 | 0.0 | 1.6 | 0.00 | 0.38 | 0.38 | 89 | 1007.3 |
| 20260509225950 | 13 | 0 | 0.0 | 1.6 | 0.00 | 0.38 | 0.38 | 89 | 1007.3 |
| 20260509225846 | 13 | 0 | 0.0 | 6.4 | 0.00 | 0.38 | 0.38 | 89 | 1007.4 |
| 20260509225748 | 13 | 0 | 0.0 | 6.4 | 0.00 | 0.38 | 0.38 | 89 | 1007.4 |
| 20260509225648 | 13 | 0 | 0.0 | 6.4 | 0.00 | 0.38 | 0.38 | 89 | 1007.4 |
| 20260509225601 | 13 | 0 | 0.0 | 6.4 | 0.00 | 0.38 | 0.38 | 90 | 1007.4 |
| 20260509225557 | 13 | 0 | 0.0 | 6.4 | 0.00 | 0.38 | 0.38 | 89 | 1007.4 |
| 20260509225517 | 13 | 360 | 0.0 | 6.4 | 0.00 | 0.38 | 0.38 | 89 | 1007.3 |
| 20260509225405 | 13 | 0 | 0.0 | 6.4 | 0.00 | 0.38 | 0.38 | 90 | 1007.4 |
| 20260509225356 | 13 | 0 | 0.0 | 6.4 | 0.00 | 0.38 | 0.38 | 90 | 1007.5 |
| 20260509225145 | 13 | 0 | 0.0 | 6.4 | 0.00 | 0.38 | 0.38 | 90 | 1007.5 |
| 20260509225045 | 13 | 0 | 0.0 | 6.4 | 0.00 | 0.38 | 0.38 | 90 | 1007.5 |
| 20260509225017 | 13 | 360 | 0.0 | 6.4 | 0.00 | 0.38 | 0.38 | 90 | 1007.4 |
| 20260509224945 | 13 | 0 | 0.0 | 6.4 | 0.00 | 0.38 | 0.38 | 91 | 1007.5 |
| 20260509224845 | 13 | 0 | 0.0 | 0.0 | 0.00 | 0.38 | 0.38 | 91 | 1007.4 |
| 20260509224742 | 13 | 0 | 0.0 | 0.0 | 0.00 | 0.38 | 0.38 | 90 | 1007.4 |
| 20260509224641 | 13 | 0 | 0.0 | 0.0 | 0.00 | 0.38 | 0.38 | 90 | 1007.4 |
| 20260509224604 | 13 | 0 | 0.0 | 0.0 | 0.00 | 0.38 | 0.38 | 90 | 1007.5 |
| 20260509224541 | 13 | 0 | 0.0 | 0.0 | 0.00 | 0.38 | 0.38 | 90 | 1007.5 |
| 20260509224517 | 13 | 360 | 0.0 | 0.0 | 0.00 | 0.38 | 0.38 | 90 | 1007.4 |
| 20260509224455 | 13 | 0 | 0.0 | 0.0 | 0.00 | 0.38 | 0.38 | 90 | 1007.5 |
| 20260509224340 | 13 | 0 | 0.0 | 0.0 | 0.00 | 0.38 | 0.38 | 90 | 1007.5 |
| 20260509224252 | 13 | 0 | 0.0 | 0.0 | 0.00 | 0.38 | 0.38 | 90 | 1007.4 |
| 20260509224248 | 13 | 0 | 0.0 | 0.0 | 0.00 | 0.38 | 0.38 | 90 | 1007.4 |
| 20260509224039 | 13 | 0 | 0.0 | 0.0 | 0.00 | 0.38 | 0.38 | 90 | 1007.5 |
| 20260509224017 | 13 | 360 | 0.0 | 0.0 | 0.00 | 0.38 | 0.38 | 90 | 1007.3 |
| 20260509223937 | 13 | 0 | 0.0 | 0.0 | 0.00 | 0.38 | 0.38 | 90 | 1007.4 |
| 20260509223837 | 13 | 0 | 0.0 | 0.0 | 0.00 | 0.38 | 0.38 | 90 | 1007.4 |
| 20260509223749 | 13 | 0 | 0.0 | 0.0 | 0.00 | 0.38 | 0.38 | 90 | 1007.4 |
| 20260509223745 | 13 | 0 | 0.0 | 0.0 | 0.00 | 0.38 | 0.38 | 90 | 1007.4 |
| 20260509223536 | 13 | 0 | 0.0 | 0.0 | 0.00 | 0.38 | 0.38 | 90 | 1007.4 |
| 20260509223517 | 13 | 360 | 0.0 | 0.0 | 0.00 | 0.38 | 0.38 | 90 | 1007.2 |
| 20260509223436 | 13 | 0 | 0.0 | 0.0 | 0.00 | 0.38 | 0.38 | 90 | 1007.3 |
| 20260509223335 | 13 | 0 | 0.0 | 0.0 | 0.00 | 0.38 | 0.38 | 90 | 1007.3 |
| 20260509223235 | 13 | 0 | 0.0 | 0.0 | 0.00 | 0.38 | 0.38 | 90 | 1007.4 |
| 20260509223147 | 13 | 0 | 0.0 | 0.0 | 0.00 | 0.38 | 0.38 | 90 | 1007.4 |
| 20260509223143 | 13 | 0 | 0.0 | 0.0 | 0.00 | 0.38 | 0.38 | 90 | 1007.4 |
| 20260509223032 | 13 | 360 | 0.0 | 0.0 | 0.00 | 0.38 | 0.38 | 90 | 1007.4 |
| 20260509222933 | 13 | 0 | 0.0 | 0.0 | 0.00 | 0.38 | 0.38 | 90 | 1007.5 |
| 20260509222833 | 13 | 0 | 0.0 | 0.0 | 0.00 | 0.38 | 0.38 | 90 | 1007.4 |
| 20260509222759 | 13 | 0 | 0.0 | 1.6 | 0.00 | 0.38 | 0.38 | 90 | 1007.5 |
| 20260509222755 | 13 | 0 | 0.0 | 1.6 | 0.00 | 0.38 | 0.38 | 90 | 1007.5 |
| 20260509222750 | 13 | 0 | 0.0 | 0.0 | 0.00 | 0.38 | 0.38 | 90 | 1007.4 |
| 20260509222518 | 13 | 360 | 0.0 | 1.6 | 0.00 | 0.38 | 0.38 | 90 | 1007.3 |
| 20260509222432 | 13 | 0 | 0.0 | 1.6 | 0.00 | 0.38 | 0.38 | 90 | 1007.4 |
| 20260509222331 | 13 | 0 | 0.0 | 1.6 | 0.00 | 0.38 | 0.38 | 89 | 1007.4 |
| 20260509222229 | 13 | 0 | 0.0 | 1.6 | 0.00 | 0.38 | 0.38 | 89 | 1007.4 |
| 20260509222220 | 13 | 0 | 0.0 | 3.2 | 0.00 | 0.38 | 0.38 | 89 | 1007.3 |
| 20260509222216 | 13 | 0 | 0.0 | 3.2 | 0.00 | 0.38 | 0.38 | 89 | 1007.3 |
| 20260509222211 | 13 | 0 | 0.0 | 3.2 | 0.00 | 0.38 | 0.38 | 89 | 1007.3 |
| 20260509222204 | 13 | 0 | 0.0 | 1.6 | 0.00 | 0.38 | 0.38 | 89 | 1007.4 |
| 20260509222035 | 13 | 360 | 0.0 | 3.2 | 0.00 | 0.38 | 0.38 | 89 | 1007.2 |
| 20260509221828 | 13 | 0 | 0.0 | 3.2 | 0.00 | 0.38 | 0.38 | 89 | 1007.3 |
| 20260509221742 | 13 | 0 | 0.0 | 3.2 | 0.00 | 0.38 | 0.38 | 90 | 1007.2 |
| 20260509221738 | 13 | 0 | 0.0 | 3.2 | 0.00 | 0.38 | 0.38 | 90 | 1007.3 |
| 20260509221527 | 13 | 0 | 0.0 | 3.2 | 0.00 | 0.38 | 0.38 | 90 | 1007.1 |
| 20260509221517 | 13 | 360 | 0.0 | 3.2 | 0.00 | 0.38 | 0.38 | 90 | 1007.0 |
| 20260509221427 | 13 | 0 | 0.0 | 3.2 | 0.00 | 0.38 | 0.38 | 90 | 1007.1 |
| 20260509221327 | 13 | 0 | 0.0 | 3.2 | 0.00 | 0.38 | 0.38 | 90 | 1007.1 |
| 20260509221227 | 13 | 0 | 0.0 | 3.2 | 0.00 | 0.38 | 0.38 | 89 | 1007.1 |
| 20260509221127 | 13 | 0 | 0.0 | 3.2 | 0.00 | 0.38 | 0.38 | 89 | 1007.1 |
| 20260509221025 | 13 | 0 | 0.0 | 3.2 | 0.00 | 0.38 | 0.38 | 89 | 1007.1 |
| 20260509221017 | 13 | 360 | 0.0 | 0.0 | 0.00 | 0.38 | 0.38 | 89 | 1006.9 |
| 20260509220925 | 13 | 0 | 0.0 | 0.0 | 0.00 | 0.38 | 0.38 | 89 | 1007.0 |
| 20260509220824 | 13 | 0 | 0.0 | 0.0 | 0.00 | 0.38 | 0.38 | 89 | 1007.0 |
| 20260509220737 | 13 | 0 | 0.0 | 0.0 | 0.00 | 0.38 | 0.38 | 89 | 1007.1 |
| 20260509220733 | 13 | 0 | 0.0 | 0.0 | 0.00 | 0.38 | 0.38 | 89 | 1007.0 |
| 20260509220551 | 13 | 0 | 0.0 | 0.0 | 0.00 | 0.38 | 0.38 | 89 | 1007.1 |
| 20260509220517 | 13 | 360 | 0.0 | 0.0 | 0.00 | 0.38 | 0.38 | 89 | 1007.0 |
| 20260509220437 | 13 | 0 | 0.0 | 0.0 | 0.00 | 0.38 | 0.38 | 89 | 1007.1 |
| 20260509220428 | 13 | 0 | 0.0 | 0.0 | 0.00 | 0.38 | 0.38 | 89 | 1007.1 |
| 20260509220221 | 13 | 0 | 0.0 | 0.0 | 0.00 | 0.38 | 0.38 | 89 | 1007.1 |
| 20260509220121 | 13 | 0 | 0.0 | 0.0 | 0.00 | 0.38 | 0.38 | 89 | 1007.1 |
| 20260509220022 | 13 | 0 | 0.0 | 0.0 | 0.00 | 0.38 | 0.38 | 89 | 1007.1 |
| 20260509220017 | 13 | 360 | 0.0 | 0.0 | 0.00 | 0.38 | 0.38 | 89 | 1007.0 |
| 20260509215920 | 13 | 0 | 0.0 | 0.0 | 0.00 | 0.38 | 0.38 | 89 | 1007.1 |
| 20260509215818 | 14 | 0 | 0.0 | 0.0 | 0.00 | 0.38 | 0.38 | 89 | 1007.1 |
| 20260509215718 | 14 | 0 | 0.0 | 0.0 | 0.00 | 0.38 | 0.38 | 89 | 1007.2 |
| 20260509215618 | 14 | 0 | 0.0 | 0.0 | 0.00 | 0.38 | 0.38 | 90 | 1007.1 |
| 20260509215517 | 14 | 360 | 0.0 | 0.0 | 0.00 | 0.38 | 0.38 | 90 | 1007.0 |
| 20260509215431 | 14 | 0 | 0.0 | 0.0 | 0.00 | 0.38 | 0.38 | 90 | 1007.1 |
| 20260509215422 | 14 | 0 | 0.0 | 0.0 | 0.00 | 0.38 | 0.38 | 90 | 1007.1 |
| 20260509215216 | 14 | 0 | 0.0 | 0.0 | 0.00 | 0.38 | 0.38 | 90 | 1007.1 |
| 20260509215116 | 14 | 0 | 0.0 | 0.0 | 0.00 | 0.38 | 0.38 | 90 | 1007.1 |
| 20260509215028 | 14 | 0 | 0.0 | 0.0 | 0.00 | 0.38 | 0.38 | 90 | 1007.2 |
| 20260509215024 | 14 | 0 | 0.0 | 0.0 | 0.00 | 0.38 | 0.38 | 90 | 1007.1 |
| 20260509215017 | 14 | 360 | 0.0 | 0.0 | 0.00 | 0.38 | 0.38 | 90 | 1007.1 |
| 20260509214814 | 14 | 0 | 0.0 | 0.0 | 0.00 | 0.38 | 0.38 | 90 | 1007.2 |
| 20260509214736 | 14 | 0 | 0.0 | 0.0 | 0.00 | 0.38 | 0.38 | 90 | 1007.2 |
| 20260509214623 | 14 | 0 | 0.0 | 0.0 | 0.00 | 0.38 | 0.38 | 90 | 1007.2 |
| 20260509214547 | 14 | 360 | 0.0 | 0.0 | 0.00 | 0.38 | 0.38 | 90 | 1007.2 |
| 20260509214414 | 14 | 0 | 0.0 | 0.0 | 0.00 | 0.38 | 0.38 | 90 | 1007.3 |
| 20260509214313 | 14 | 0 | 0.0 | 0.0 | 0.00 | 0.38 | 0.38 | 90 | 1007.3 |
| 20260509214212 | 14 | 0 | 0.0 | 0.0 | 0.00 | 0.38 | 0.38 | 90 | 1007.3 |
| 20260509214123 | 13 | 0 | 0.0 | 0.0 | 0.00 | 0.38 | 0.38 | 91 | 1007.3 |
| 20260509214119 | 13 | 0 | 0.0 | 0.0 | 0.00 | 0.38 | 0.38 | 91 | 1007.3 |
| 20260509214017 | 13 | 360 | 0.0 | 0.0 | 0.00 | 0.38 | 0.38 | 91 | 1007.2 |
| 20260509213937 | 13 | 0 | 0.0 | 0.0 | 0.00 | 0.38 | 0.38 | 90 | 1007.3 |
| 20260509213932 | 13 | 0 | 0.0 | 0.0 | 0.00 | 0.38 | 0.38 | 91 | 1007.2 |
| 20260509213924 | 13 | 0 | 0.0 | 0.0 | 0.00 | 0.38 | 0.38 | 90 | 1007.2 |
| 20260509213609 | 13 | 0 | 0.0 | 0.0 | 0.00 | 0.38 | 0.38 | 90 | 1007.3 |
| 20260509213517 | 13 | 360 | 0.0 | 0.0 | 0.00 | 0.38 | 0.38 | 90 | 1007.2 |
| 20260509213507 | 13 | 0 | 0.0 | 0.0 | 0.00 | 0.38 | 0.38 | 90 | 1007.3 |
| 20260509213407 | 13 | 0 | 0.0 | 0.0 | 0.00 | 0.38 | 0.38 | 90 | 1007.3 |
| 20260509213326 | 13 | 0 | 0.0 | 0.0 | 0.00 | 0.38 | 0.38 | 91 | 1007.3 |
| 20260509213306 | 13 | 0 | 0.0 | 0.0 | 0.00 | 0.38 | 0.38 | 91 | 1007.4 |
| 20260509213206 | 13 | 0 | 0.0 | 0.0 | 0.00 | 0.38 | 0.38 | 91 | 1007.3 |
| 20260509213106 | 13 | 0 | 0.0 | 0.0 | 0.00 | 0.38 | 0.38 | 90 | 1007.3 |
| 20260509213017 | 13 | 360 | 0.0 | 0.0 | 0.00 | 0.38 | 0.38 | 90 | 1007.3 |
| 20260509213006 | 13 | 0 | 0.0 | 0.0 | 0.00 | 0.38 | 0.38 | 90 | 1007.4 |
| 20260509212903 | 13 | 0 | 0.0 | 0.0 | 0.00 | 0.38 | 0.38 | 91 | 1007.3 |
| 20260509212826 | 13 | 0 | 0.0 | 0.0 | 0.00 | 0.38 | 0.38 | 91 | 1007.3 |
| 20260509212801 | 13 | 0 | 0.0 | 0.0 | 0.00 | 0.38 | 0.38 | 91 | 1007.5 |
| 20260509212702 | 13 | 0 | 0.0 | 0.0 | 0.00 | 0.38 | 0.38 | 91 | 1007.5 |
| 20260509212601 | 13 | 0 | 0.0 | 0.0 | 0.00 | 0.38 | 0.38 | 91 | 1007.5 |
| 20260509212517 | 13 | 360 | 0.0 | 0.0 | 0.00 | 0.38 | 0.38 | 91 | 1007.3 |
| 20260509212500 | 13 | 0 | 0.0 | 0.0 | 0.00 | 0.38 | 0.38 | 91 | 1007.4 |
| 20260509212400 | 13 | 0 | 0.0 | 0.0 | 0.00 | 0.38 | 0.38 | 91 | 1007.5 |
| 20260509212325 | 13 | 0 | 0.0 | 0.0 | 0.00 | 0.38 | 0.38 | 91 | 1007.5 |
| 20260509212300 | 13 | 0 | 0.0 | 0.0 | 0.00 | 0.38 | 0.38 | 91 | 1007.5 |
| 20260509212159 | 13 | 0 | 0.0 | 0.0 | 0.00 | 0.38 | 0.38 | 91 | 1007.5 |
| 20260509212059 | 13 | 0 | 0.0 | 0.0 | 0.00 | 0.38 | 0.38 | 90 | 1007.5 |
| 20260509212017 | 13 | 360 | 0.0 | 0.0 | 0.00 | 0.38 | 0.38 | 90 | 1007.4 |
| 20260509211959 | 13 | 0 | 0.0 | 0.0 | 0.00 | 0.38 | 0.38 | 90 | 1007.5 |
| 20260509211857 | 13 | 0 | 0.0 | 0.0 | 0.00 | 0.38 | 0.38 | 90 | 1007.6 |
| 20260509211823 | 13 | 0 | 0.0 | 0.0 | 0.00 | 0.38 | 0.38 | 90 | 1007.6 |
| 20260509211758 | 13 | 0 | 0.0 | 0.0 | 0.00 | 0.38 | 0.38 | 90 | 1007.5 |
| 20260509211656 | 13 | 0 | 0.0 | 0.0 | 0.00 | 0.38 | 0.38 | 90 | 1007.6 |
| 20260509211556 | 13 | 0 | 0.0 | 0.0 | 0.00 | 0.38 | 0.38 | 90 | 1007.5 |
| 20260509211517 | 14 | 360 | 0.0 | 0.0 | 0.00 | 0.38 | 0.38 | 91 | 1007.3 |
| 20260509211455 | 14 | 0 | 0.0 | 0.0 | 0.00 | 0.38 | 0.38 | 91 | 1007.4 |
| 20260509211355 | 14 | 0 | 0.0 | 0.0 | 0.00 | 0.38 | 0.38 | 91 | 1007.4 |
| 20260509211326 | 14 | 0 | 0.0 | 0.0 | 0.00 | 0.38 | 0.38 | 91 | 1007.4 |
| 20260509211254 | 14 | 0 | 0.0 | 0.0 | 0.00 | 0.38 | 0.38 | 91 | 1007.5 |
| 20260509211154 | 14 | 0 | 0.0 | 0.0 | 0.00 | 0.38 | 0.38 | 91 | 1007.4 |
| 20260509211054 | 14 | 0 | 0.0 | 0.0 | 0.00 | 0.38 | 0.38 | 92 | 1007.3 |
| 20260509211017 | 14 | 360 | 0.0 | 0.0 | 0.00 | 0.38 | 0.38 | 92 | 1007.2 |
| 20260509211006 | 14 | 0 | 0.0 | 0.0 | 0.00 | 0.38 | 0.38 | 93 | 1007.2 |
| 20260509211002 | 14 | 0 | 0.0 | 0.0 | 0.00 | 0.38 | 0.38 | 92 | 1007.3 |
| 20260509210823 | 14 | 0 | 0.0 | 0.0 | 0.00 | 0.38 | 0.38 | 93 | 1007.2 |
| 20260509210814 | 14 | 0 | 0.0 | 0.0 | 0.00 | 0.38 | 0.38 | 93 | 1007.2 |
| 20260509210701 | 14 | 0 | 0.0 | 0.0 | 0.00 | 0.38 | 0.38 | 93 | 1007.2 |
| 20260509210517 | 14 | 360 | 0.0 | 0.0 | 0.00 | 0.38 | 0.38 | 93 | 1007.2 |
| 20260509210452 | 14 | 0 | 0.0 | 0.0 | 0.00 | 0.38 | 0.38 | 93 | 1007.3 |
| 20260509210351 | 14 | 0 | 0.0 | 1.6 | 0.00 | 0.38 | 0.38 | 93 | 1007.3 |
| 20260509210322 | 14 | 0 | 0.0 | 3.2 | 0.00 | 0.38 | 0.38 | 93 | 1007.3 |
| 20260509210250 | 14 | 0 | 0.0 | 3.2 | 0.00 | 0.38 | 0.38 | 94 | 1007.3 |
| 20260509210151 | 14 | 0 | 0.0 | 3.2 | 0.00 | 0.38 | 0.38 | 94 | 1007.3 |
| 20260509210050 | 14 | 0 | 0.0 | 3.2 | 0.00 | 0.38 | 0.38 | 94 | 1007.3 |
| 20260509210044 | 14 | 0 | 0.0 | 3.2 | 0.00 | 0.38 | 0.38 | 94 | 1007.4 |
| 20260509210017 | 14 | 360 | 0.0 | 3.2 | 0.00 | 0.38 | 0.38 | 94 | 1007.3 |
| 20260509205949 | 14 | 0 | 0.0 | 3.2 | 0.00 | 0.38 | 0.38 | 94 | 1007.4 |
| 20260509205924 | 14 | 0 | 0.0 | 3.2 | 0.00 | 0.38 | 0.38 | 94 | 1007.4 |
| 20260509205747 | 14 | 0 | 0.0 | 3.2 | 0.00 | 0.38 | 0.38 | 94 | 1007.4 |
| 20260509205647 | 13 | 0 | 0.0 | 3.2 | 0.03 | 0.38 | 0.38 | 94 | 1007.4 |
| 20260509205547 | 13 | 0 | 0.0 | 3.2 | 0.03 | 0.38 | 0.38 | 94 | 1007.4 |
| 20260509205517 | 13 | 360 | 0.0 | 3.2 | 0.03 | 0.38 | 0.38 | 94 | 1007.3 |
| 20260509205446 | 13 | 0 | 0.0 | 3.2 | 0.03 | 0.38 | 0.38 | 94 | 1007.4 |
| 20260509205346 | 13 | 0 | 0.0 | 3.2 | 0.03 | 0.38 | 0.38 | 94 | 1007.4 |
| 20260509205318 | 13 | 0 | 0.0 | 1.6 | 0.03 | 0.38 | 0.38 | 94 | 1007.4 |
| 20260509205310 | 13 | 0 | 0.0 | 1.6 | 0.03 | 0.38 | 0.38 | 94 | 1007.3 |
| 20260509205307 | 13 | 0 | 0.0 | 1.6 | 0.03 | 0.38 | 0.38 | 94 | 1007.3 |
| 20260509205301 | 13 | 0 | 0.0 | 1.6 | 0.03 | 0.38 | 0.38 | 94 | 1007.4 |
| 20260509205017 | 13 | 360 | 0.0 | 1.6 | 0.03 | 0.38 | 0.38 | 94 | 1007.2 |
| 20260509204942 | 13 | 0 | 0.0 | 1.6 | 0.03 | 0.38 | 0.38 | 94 | 1007.3 |
| 20260509204817 | 13 | 0 | 0.0 | 1.6 | 0.03 | 0.38 | 0.38 | 94 | 1007.3 |
| 20260509204743 | 13 | 0 | 0.0 | 1.6 | 0.03 | 0.38 | 0.38 | 94 | 1007.4 |
| 20260509204642 | 13 | 0 | 0.0 | 1.6 | 0.03 | 0.38 | 0.38 | 94 | 1007.4 |
| 20260509204542 | 13 | 0 | 0.0 | 1.6 | 0.03 | 0.38 | 0.38 | 94 | 1007.4 |
| 20260509204517 | 13 | 360 | 0.0 | 0.0 | 0.03 | 0.38 | 0.38 | 94 | 1007.3 |
| 20260509204442 | 13 | 0 | 0.0 | 0.0 | 0.03 | 0.38 | 0.38 | 94 | 1007.4 |
| 20260509204402 | 13 | 0 | 0.0 | 0.0 | 0.03 | 0.38 | 0.38 | 94 | 1007.3 |
| 20260509204356 | 13 | 0 | 0.0 | 0.0 | 0.03 | 0.38 | 0.38 | 94 | 1007.4 |
| 20260509204351 | 13 | 0 | 0.0 | 0.0 | 0.03 | 0.38 | 0.38 | 94 | 1007.3 |
| 20260509204141 | 13 | 0 | 0.0 | 0.0 | 0.03 | 0.38 | 0.38 | 94 | 1007.2 |
| 20260509204041 | 13 | 0 | 0.0 | 0.0 | 0.05 | 0.38 | 0.38 | 94 | 1007.2 |
| 20260509204017 | 13 | 360 | 0.0 | 0.0 | 0.03 | 0.38 | 0.38 | 94 | 1007.1 |
| 20260509203940 | 13 | 0 | 0.0 | 0.0 | 0.05 | 0.38 | 0.38 | 94 | 1007.1 |
| 20260509203816 | 13 | 0 | 0.0 | 0.0 | 0.05 | 0.38 | 0.38 | 94 | 1007.1 |
| 20260509203739 | 13 | 0 | 0.0 | 0.0 | 0.05 | 0.38 | 0.38 | 94 | 1007.1 |
| 20260509203638 | 13 | 0 | 0.0 | 0.0 | 0.05 | 0.38 | 0.38 | 94 | 1007.1 |
| 20260509203538 | 13 | 0 | 0.0 | 0.0 | 0.05 | 0.38 | 0.38 | 94 | 1007.1 |
| 20260509203517 | 13 | 360 | 0.0 | 0.0 | 0.05 | 0.38 | 0.38 | 94 | 1007.0 |
| 20260509203438 | 13 | 0 | 0.0 | 0.0 | 0.05 | 0.38 | 0.38 | 94 | 1007.0 |
| 20260509203315 | 13 | 0 | 0.0 | 0.0 | 0.05 | 0.38 | 0.38 | 94 | 1007.1 |
| 20260509203238 | 13 | 0 | 0.0 | 0.0 | 0.05 | 0.38 | 0.38 | 94 | 1007.1 |
| 20260509203137 | 13 | 0 | 0.0 | 0.0 | 0.05 | 0.38 | 0.38 | 94 | 1007.1 |
| 20260509203037 | 13 | 0 | 0.0 | 0.0 | 0.05 | 0.38 | 0.38 | 94 | 1007.0 |
| 20260509203017 | 13 | 360 | 0.0 | 0.0 | 0.05 | 0.38 | 0.38 | 94 | 1007.0 |
| 20260509202936 | 13 | 0 | 0.0 | 0.0 | 0.05 | 0.38 | 0.38 | 94 | 1007.0 |
| 20260509202836 | 12 | 0 | 0.0 | 0.0 | 0.08 | 0.38 | 0.38 | 94 | 1006.9 |
| 20260509202814 | 12 | 0 | 0.0 | 0.0 | 0.08 | 0.38 | 0.38 | 94 | 1006.9 |
| 20260509202734 | 12 | 0 | 0.0 | 0.0 | 0.08 | 0.38 | 0.38 | 94 | 1007.0 |
| 20260509202634 | 12 | 0 | 0.0 | 0.0 | 0.08 | 0.38 | 0.38 | 94 | 1007.0 |
| 20260509202534 | 12 | 0 | 0.0 | 0.0 | 0.08 | 0.38 | 0.38 | 93 | 1007.0 |
| 20260509202517 | 12 | 360 | 0.0 | 0.0 | 0.08 | 0.38 | 0.38 | 93 | 1007.1 |
| 20260509202433 | 12 | 0 | 0.0 | 0.0 | 0.08 | 0.38 | 0.38 | 93 | 1007.1 |
| 20260509202333 | 12 | 0 | 0.0 | 0.0 | 0.08 | 0.38 | 0.38 | 93 | 1007.1 |
| 20260509202314 | 12 | 0 | 0.0 | 0.0 | 0.08 | 0.38 | 0.38 | 93 | 1007.1 |
| 20260509202232 | 12 | 0 | 0.0 | 0.0 | 0.08 | 0.38 | 0.38 | 93 | 1007.2 |
| 20260509202133 | 12 | 0 | 0.0 | 0.0 | 0.08 | 0.38 | 0.38 | 93 | 1007.2 |
| 20260509202032 | 12 | 0 | 0.0 | 0.0 | 0.08 | 0.38 | 0.38 | 93 | 1007.2 |
| 20260509202017 | 12 | 360 | 0.0 | 0.0 | 0.08 | 0.38 | 0.38 | 93 | 1007.2 |
| 20260509201932 | 12 | 0 | 0.0 | 0.0 | 0.08 | 0.38 | 0.38 | 93 | 1007.2 |
| 20260509201859 | 12 | 0 | 0.0 | 0.0 | 0.08 | 0.38 | 0.38 | 93 | 1007.2 |
| 20260509201855 | 12 | 0 | 0.0 | 0.0 | 0.08 | 0.38 | 0.38 | 93 | 1007.2 |
| 20260509201741 | 12 | 0 | 0.0 | 0.0 | 0.08 | 0.38 | 0.38 | 93 | 1007.3 |
| 20260509201547 | 12 | 360 | 0.0 | 0.0 | 0.08 | 0.38 | 0.38 | 93 | 1007.4 |
| 20260509201545 | 12 | 0 | 0.0 | 0.0 | 0.08 | 0.38 | 0.38 | 93 | 1007.4 |
| 20260509201540 | 12 | 0 | 0.0 | 0.0 | 0.08 | 0.38 | 0.38 | 93 | 1007.4 |
| 20260509201330 | 12 | 0 | 0.0 | 0.0 | 0.08 | 0.38 | 0.38 | 93 | 1007.4 |
| 20260509201313 | 12 | 0 | 0.0 | 0.0 | 0.08 | 0.38 | 0.38 | 93 | 1007.4 |
| 20260509201244 | 12 | 0 | 0.0 | 0.0 | 0.08 | 0.38 | 0.38 | 93 | 1007.5 |
| 20260509201238 | 12 | 0 | 0.0 | 0.0 | 0.08 | 0.38 | 0.38 | 93 | 1007.4 |
| 20260509201028 | 12 | 0 | 0.0 | 0.0 | 0.10 | 0.38 | 0.38 | 93 | 1007.5 |
| 20260509201017 | 12 | 360 | 0.0 | 0.0 | 0.10 | 0.38 | 0.38 | 93 | 1007.5 |
| 20260509200928 | 12 | 0 | 0.0 | 0.0 | 0.10 | 0.38 | 0.38 | 93 | 1007.5 |
| 20260509200855 | 12 | 0 | 0.0 | 0.0 | 0.10 | 0.38 | 0.38 | 93 | 1007.5 |
| 20260509200850 | 12 | 0 | 0.0 | 0.0 | 0.10 | 0.38 | 0.38 | 93 | 1007.6 |
| 20260509200736 | 12 | 0 | 0.0 | 0.0 | 0.10 | 0.38 | 0.38 | 93 | 1007.6 |
| 20260509200526 | 12 | 0 | 0.0 | 0.0 | 0.10 | 0.38 | 0.38 | 93 | 1007.5 |
| 20260509200517 | 12 | 360 | 0.0 | 0.0 | 0.10 | 0.38 | 0.38 | 93 | 1007.5 |
| 20260509200426 | 12 | 0 | 0.0 | 0.0 | 0.13 | 0.38 | 0.38 | 93 | 1007.5 |
| 20260509200325 | 12 | 0 | 0.0 | 0.0 | 0.15 | 0.38 | 0.38 | 93 | 1007.5 |
| 20260509200312 | 12 | 0 | 0.0 | 0.0 | 0.15 | 0.38 | 0.38 | 93 | 1007.4 |
| 20260509200240 | 12 | 0 | 0.0 | 0.0 | 0.18 | 0.38 | 0.38 | 93 | 1007.4 |
| 20260509200235 | 12 | 0 | 0.0 | 0.0 | 0.15 | 0.38 | 0.38 | 93 | 1007.4 |
| 20260509200025 | 12 | 0 | 0.0 | 0.0 | 0.18 | 0.38 | 0.38 | 93 | 1007.4 |
| 20260509200017 | 12 | 360 | 0.0 | 0.0 | 0.18 | 0.38 | 0.38 | 93 | 1007.3 |
| 20260509195925 | 12 | 0 | 0.0 | 0.0 | 0.18 | 0.38 | 0.38 | 93 | 1007.3 |
| 20260509195824 | 12 | 0 | 0.0 | 0.0 | 0.18 | 0.38 | 0.38 | 93 | 1007.3 |
| 20260509195812 | 12 | 0 | 0.0 | 0.0 | 0.18 | 0.38 | 0.38 | 93 | 1007.4 |
| 20260509195724 | 12 | 0 | 0.0 | 0.0 | 0.18 | 0.38 | 0.38 | 93 | 1007.4 |
| 20260509195623 | 12 | 0 | 0.0 | 0.0 | 0.15 | 0.36 | 0.36 | 93 | 1007.4 |
| 20260509195523 | 12 | 0 | 0.0 | 0.0 | 0.15 | 0.36 | 0.36 | 93 | 1007.5 |
| 20260509195517 | 12 | 360 | 0.0 | 0.0 | 0.15 | 0.36 | 0.36 | 93 | 1007.5 |
| 20260509195422 | 12 | 0 | 0.0 | 0.0 | 0.15 | 0.36 | 0.36 | 93 | 1007.5 |
| 20260509195321 | 12 | 0 | 0.0 | 0.0 | 0.15 | 0.36 | 0.36 | 93 | 1007.4 |
| 20260509195312 | 12 | 0 | 0.0 | 0.0 | 0.15 | 0.36 | 0.36 | 93 | 1007.5 |
| 20260509195221 | 12 | 0 | 0.0 | 0.0 | 0.15 | 0.36 | 0.36 | 93 | 1007.5 |
| 20260509195120 | 12 | 0 | 0.0 | 0.0 | 0.15 | 0.36 | 0.36 | 93 | 1007.6 |
| 20260509195032 | 13 | 360 | 0.0 | 0.0 | 0.15 | 0.36 | 0.36 | 93 | 1007.7 |
| 20260509195020 | 13 | 0 | 0.0 | 0.0 | 0.15 | 0.36 | 0.36 | 93 | 1007.7 |
| 20260509194920 | 13 | 0 | 0.0 | 0.0 | 0.15 | 0.36 | 0.36 | 93 | 1007.7 |
| 20260509194812 | 13 | 0 | 0.0 | 0.0 | 0.15 | 0.36 | 0.36 | 93 | 1007.7 |
| 20260509194719 | 13 | 0 | 0.0 | 0.0 | 0.15 | 0.36 | 0.36 | 93 | 1007.7 |
| 20260509194618 | 13 | 0 | 0.0 | 0.0 | 0.15 | 0.36 | 0.36 | 93 | 1007.7 |
| 20260509194518 | 13 | 0 | 0.0 | 0.0 | 0.15 | 0.36 | 0.36 | 93 | 1007.8 |
| 20260509194432 | 13 | 0 | 0.0 | 0.0 | 0.15 | 0.36 | 0.36 | 93 | 1007.7 |
| 20260509194426 | 13 | 0 | 0.0 | 0.0 | 0.15 | 0.36 | 0.36 | 92 | 1007.8 |
| 20260509194310 | 13 | 0 | 0.0 | 0.0 | 0.15 | 0.36 | 0.36 | 93 | 1007.8 |
| 20260509194217 | 13 | 0 | 0.0 | 0.0 | 0.15 | 0.36 | 0.36 | 93 | 1007.8 |
| 20260509194116 | 13 | 0 | 0.0 | 0.0 | 0.15 | 0.36 | 0.36 | 93 | 1007.8 |
| 20260509194017 | 13 | 360 | 0.0 | 0.0 | 0.15 | 0.36 | 0.36 | 93 | 1007.7 |
| 20260509193915 | 13 | 0 | 0.0 | 0.0 | 0.13 | 0.33 | 0.33 | 93 | 1007.7 |
| 20260509193842 | 13 | 0 | 0.0 | 0.0 | 0.13 | 0.33 | 0.33 | 93 | 1007.8 |
| 20260509193838 | 13 | 0 | 0.0 | 0.0 | 0.13 | 0.33 | 0.33 | 93 | 1007.8 |
| 20260509193724 | 13 | 0 | 0.0 | 0.0 | 0.13 | 0.33 | 0.33 | 93 | 1007.8 |
| 20260509193517 | 13 | 360 | 0.0 | 0.0 | 0.13 | 0.33 | 0.33 | 93 | 1007.8 |
| 20260509193514 | 13 | 0 | 0.0 | 0.0 | 0.13 | 0.33 | 0.33 | 93 | 1007.8 |
| 20260509193413 | 13 | 0 | 0.0 | 0.0 | 0.13 | 0.33 | 0.33 | 93 | 1007.8 |
| 20260509193310 | 13 | 0 | 0.0 | 0.0 | 0.13 | 0.33 | 0.33 | 92 | 1007.9 |
| 20260509193213 | 13 | 0 | 0.0 | 0.0 | 0.13 | 0.33 | 0.33 | 92 | 1007.9 |
| 20260509193112 | 13 | 0 | 0.0 | 0.0 | 0.13 | 0.33 | 0.33 | 93 | 1008.0 |
| 20260509193102 | 13 | 360 | 0.0 | 0.0 | 0.13 | 0.33 | 0.33 | 93 | 1008.0 |
| 20260509193012 | 13 | 0 | 0.0 | 0.0 | 0.13 | 0.33 | 0.33 | 93 | 1008.0 |
| 20260509192912 | 13 | 0 | 0.0 | 0.0 | 0.13 | 0.33 | 0.33 | 93 | 1008.0 |
| 20260509192809 | 13 | 0 | 0.0 | 0.0 | 0.10 | 0.30 | 0.30 | 93 | 1008.0 |
| 20260509192711 | 13 | 0 | 0.0 | 0.0 | 0.10 | 0.30 | 0.30 | 93 | 1008.0 |
| 20260509192611 | 13 | 0 | 0.0 | 0.0 | 0.10 | 0.30 | 0.30 | 93 | 1008.0 |
| 20260509192524 | 13 | 0 | 0.0 | 0.0 | 0.10 | 0.30 | 0.30 | 93 | 1008.0 |
| 20260509192519 | 13 | 0 | 0.0 | 0.0 | 0.10 | 0.30 | 0.30 | 93 | 1008.0 |
| 20260509192517 | 13 | 360 | 0.0 | 0.0 | 0.10 | 0.30 | 0.30 | 93 | 1008.0 |
| 20260509192307 | 13 | 0 | 0.0 | 3.2 | 0.10 | 0.30 | 0.30 | 93 | 1008.1 |
| 20260509192209 | 13 | 0 | 0.0 | 3.2 | 0.10 | 0.30 | 0.30 | 93 | 1008.1 |
| 20260509192108 | 13 | 0 | 0.0 | 3.2 | 0.10 | 0.30 | 0.30 | 93 | 1008.0 |
| 20260509192018 | 13 | 360 | 0.0 | 3.2 | 0.10 | 0.30 | 0.30 | 93 | 1008.0 |
| 20260509192007 | 13 | 0 | 0.0 | 3.2 | 0.10 | 0.30 | 0.30 | 93 | 1008.0 |
| 20260509191907 | 13 | 0 | 0.0 | 3.2 | 0.13 | 0.30 | 0.30 | 93 | 1008.0 |
| 20260509191808 | 13 | 0 | 0.0 | 3.2 | 0.13 | 0.30 | 0.30 | 92 | 1008.1 |
| 20260509191706 | 13 | 0 | 0.0 | 3.2 | 0.13 | 0.30 | 0.30 | 92 | 1008.1 |
| 20260509191621 | 13 | 0 | 0.0 | 3.2 | 0.13 | 0.30 | 0.30 | 92 | 1008.3 |
| 20260509191616 | 13 | 0 | 0.0 | 3.2 | 0.13 | 0.30 | 0.30 | 92 | 1008.2 |
| 20260509191548 | 13 | 360 | 0.0 | 3.2 | 0.13 | 0.30 | 0.30 | 92 | 1008.3 |
| 20260509191406 | 13 | 0 | 0.0 | 3.2 | 0.13 | 0.30 | 0.30 | 92 | 1008.4 |
| 20260509191319 | 13 | 0 | 0.0 | 6.4 | 0.13 | 0.30 | 0.30 | 92 | 1008.4 |
| 20260509191204 | 13 | 0 | 0.0 | 6.4 | 0.13 | 0.30 | 0.30 | 92 | 1008.4 |
| 20260509191104 | 13 | 0 | 0.0 | 6.4 | 0.13 | 0.30 | 0.30 | 92 | 1008.5 |
| 20260509191032 | 13 | 360 | 0.0 | 6.4 | 0.10 | 0.28 | 0.28 | 92 | 1008.5 |
| 20260509191004 | 13 | 0 | 0.0 | 6.4 | 0.10 | 0.28 | 0.28 | 92 | 1008.5 |
| 20260509190902 | 13 | 0 | 0.0 | 6.4 | 0.10 | 0.28 | 0.28 | 92 | 1008.3 |
| 20260509190803 | 13 | 0 | 0.0 | 6.4 | 0.10 | 0.28 | 0.28 | 92 | 1008.3 |
| 20260509190704 | 13 | 0 | 0.0 | 6.4 | 0.10 | 0.28 | 0.28 | 92 | 1008.3 |
| 20260509190645 | 13 | 0 | 0.0 | 6.4 | 0.10 | 0.28 | 0.28 | 92 | 1008.4 |
| 20260509190534 | 13 | 0 | 0.0 | 6.4 | 0.08 | 0.25 | 0.28 | 92 | 1008.5 |
| 20260509190527 | 13 | 0 | 0.0 | 6.4 | 0.10 | 0.28 | 0.28 | 92 | 1008.4 |
| 20260509190517 | 13 | 360 | 0.0 | 6.4 | 0.10 | 0.28 | 0.28 | 92 | 1008.4 |
| 20260509190303 | 13 | 0 | 0.0 | 1.6 | 0.05 | 0.23 | 0.25 | 92 | 1008.5 |
| 20260509190202 | 13 | 0 | 0.0 | 1.6 | 0.05 | 0.23 | 0.23 | 92 | 1008.4 |
| 20260509190018 | 13 | 360 | 0.0 | 0.0 | 0.05 | 0.20 | 0.20 | 92 | 1008.5 |
| 20260509190002 | 13 | 0 | 0.0 | 1.6 | 0.05 | 0.20 | 0.20 | 92 | 1008.5 |
| 20260509185921 | 13 | 0 | 0.0 | 0.0 | 0.05 | 0.20 | 0.20 | 92 | 1008.5 |
| 20260509185914 | 13 | 0 | 0.0 | 1.6 | 0.05 | 0.20 | 0.20 | 92 | 1008.6 |
| 20260509185905 | 13 | 0 | 0.0 | 0.0 | 0.05 | 0.20 | 0.20 | 92 | 1008.5 |
| 20260509185659 | 13 | 0 | 0.0 | 0.0 | 0.05 | 0.20 | 0.20 | 92 | 1008.5 |
| 20260509185559 | 13 | 0 | 0.0 | 0.0 | 0.05 | 0.20 | 0.20 | 92 | 1008.5 |
| 20260509185517 | 13 | 360 | 0.0 | 0.0 | 0.05 | 0.20 | 0.20 | 92 | 1008.5 |
| 20260509185458 | 13 | 0 | 0.0 | 0.0 | 0.05 | 0.20 | 0.20 | 92 | 1008.5 |
| 20260509185358 | 13 | 0 | 0.0 | 0.0 | 0.05 | 0.20 | 0.20 | 92 | 1008.5 |
| 20260509185306 | 13 | 0 | 0.0 | 0.0 | 0.05 | 0.20 | 0.20 | 92 | 1008.5 |
| 20260509185258 | 13 | 0 | 0.0 | 0.0 | 0.05 | 0.20 | 0.20 | 92 | 1008.5 |
| 20260509185210 | 13 | 0 | 0.0 | 0.0 | 0.05 | 0.20 | 0.20 | 92 | 1008.5 |
| 20260509185206 | 13 | 0 | 0.0 | 0.0 | 0.05 | 0.20 | 0.20 | 92 | 1008.5 |
| 20260509185017 | 13 | 360 | 0.0 | 0.0 | 0.05 | 0.20 | 0.20 | 92 | 1008.4 |
| 20260509184956 | 13 | 0 | 0.0 | 0.0 | 0.05 | 0.20 | 0.20 | 92 | 1008.4 |
| 20260509184856 | 13 | 0 | 0.0 | 0.0 | 0.05 | 0.20 | 0.20 | 92 | 1008.4 |
| 20260509184805 | 13 | 0 | 0.0 | 0.0 | 0.05 | 0.20 | 0.20 | 92 | 1008.4 |
| 20260509184757 | 13 | 0 | 0.0 | 0.0 | 0.05 | 0.20 | 0.20 | 92 | 1008.4 |
| 20260509184656 | 13 | 0 | 0.0 | 0.0 | 0.05 | 0.20 | 0.20 | 92 | 1008.4 |
| 20260509184607 | 13 | 0 | 0.0 | 0.0 | 0.05 | 0.20 | 0.20 | 92 | 1008.4 |
| 20260509184603 | 13 | 0 | 0.0 | 0.0 | 0.05 | 0.20 | 0.20 | 92 | 1008.5 |
| 20260509184532 | 13 | 360 | 0.0 | 0.0 | 0.05 | 0.20 | 0.20 | 92 | 1008.4 |
| 20260509184354 | 13 | 0 | 0.0 | 0.0 | 0.05 | 0.20 | 0.20 | 92 | 1008.3 |
| 20260509184303 | 13 | 0 | 0.0 | 0.0 | 0.08 | 0.20 | 0.20 | 92 | 1008.3 |
| 20260509184253 | 13 | 0 | 0.0 | 0.0 | 0.08 | 0.20 | 0.20 | 92 | 1008.3 |
| 20260509184153 | 13 | 0 | 0.0 | 0.0 | 0.08 | 0.20 | 0.20 | 92 | 1008.4 |
| 20260509184053 | 13 | 0 | 0.0 | 0.0 | 0.08 | 0.20 | 0.20 | 92 | 1008.4 |
| 20260509184018 | 13 | 360 | 0.0 | 0.0 | 0.08 | 0.20 | 0.20 | 92 | 1008.5 |
| 20260509183951 | 13 | 0 | 0.0 | 0.0 | 0.08 | 0.20 | 0.20 | 92 | 1008.5 |
| 20260509183852 | 13 | 0 | 0.0 | 0.0 | 0.08 | 0.20 | 0.20 | 92 | 1008.5 |
| 20260509183803 | 13 | 0 | 0.0 | 0.0 | 0.08 | 0.20 | 0.20 | 91 | 1008.5 |
| 20260509183750 | 13 | 0 | 0.0 | 0.0 | 0.08 | 0.20 | 0.20 | 91 | 1008.5 |
| 20260509183650 | 13 | 0 | 0.0 | 0.0 | 0.08 | 0.20 | 0.20 | 91 | 1008.5 |
| 20260509183550 | 13 | 0 | 0.0 | 0.0 | 0.08 | 0.20 | 0.20 | 91 | 1008.5 |
| 20260509183517 | 13 | 360 | 0.0 | 0.0 | 0.08 | 0.20 | 0.20 | 91 | 1008.5 |
| 20260509183450 | 13 | 0 | 0.0 | 0.0 | 0.08 | 0.20 | 0.20 | 91 | 1008.5 |
| 20260509183430 | 13 | 0 | 0.0 | 0.0 | 0.08 | 0.20 | 0.20 | 91 | 1008.5 |
| 20260509183320 | 13 | 0 | 0.0 | 0.0 | 0.08 | 0.20 | 0.20 | 91 | 1008.6 |
| 20260509183307 | 13 | 0 | 0.0 | 0.0 | 0.08 | 0.20 | 0.20 | 91 | 1008.6 |
| 20260509183017 | 13 | 360 | 0.0 | 0.0 | 0.08 | 0.20 | 0.20 | 91 | 1008.6 |
| 20260509182948 | 13 | 0 | 0.0 | 0.0 | 0.08 | 0.20 | 0.20 | 91 | 1008.6 |
| 20260509182848 | 13 | 0 | 0.0 | 0.0 | 0.08 | 0.20 | 0.20 | 91 | 1008.5 |
| 20260509182748 | 13 | 0 | 0.0 | 0.0 | 0.08 | 0.20 | 0.20 | 91 | 1008.5 |
| 20260509182647 | 13 | 0 | 0.0 | 0.0 | 0.08 | 0.20 | 0.20 | 91 | 1008.6 |
| 20260509182546 | 13 | 0 | 0.0 | 0.0 | 0.08 | 0.20 | 0.20 | 91 | 1008.5 |
| 20260509182518 | 13 | 360 | 0.0 | 0.0 | 0.08 | 0.20 | 0.20 | 91 | 1008.5 |
| 20260509182445 | 13 | 0 | 0.0 | 0.0 | 0.08 | 0.20 | 0.20 | 91 | 1008.5 |
| 20260509182344 | 13 | 0 | 0.0 | 0.0 | 0.08 | 0.20 | 0.20 | 91 | 1008.5 |
| 20260509182244 | 13 | 0 | 0.0 | 0.0 | 0.08 | 0.20 | 0.20 | 91 | 1008.6 |
| 20260509182143 | 13 | 0 | 0.0 | 0.0 | 0.08 | 0.20 | 0.20 | 91 | 1008.6 |
| 20260509182044 | 13 | 0 | 0.0 | 0.0 | 0.08 | 0.20 | 0.20 | 90 | 1008.6 |
| 20260509182017 | 13 | 360 | 0.0 | 0.0 | 0.08 | 0.20 | 0.20 | 90 | 1008.7 |
| 20260509181941 | 13 | 0 | 0.0 | 0.0 | 0.05 | 0.18 | 0.18 | 90 | 1008.7 |
| 20260509181839 | 13 | 0 | 0.0 | 0.0 | 0.05 | 0.18 | 0.18 | 91 | 1008.8 |
| 20260509181759 | 13 | 0 | 0.0 | 0.0 | 0.05 | 0.18 | 0.18 | 91 | 1008.8 |
| 20260509181738 | 13 | 0 | 0.0 | 0.0 | 0.05 | 0.18 | 0.18 | 91 | 1008.8 |
| 20260509181638 | 13 | 0 | 0.0 | 0.0 | 0.05 | 0.18 | 0.18 | 91 | 1008.8 |
| 20260509181537 | 13 | 0 | 0.0 | 0.0 | 0.05 | 0.18 | 0.18 | 91 | 1008.9 |
| 20260509181517 | 13 | 360 | 0.0 | 0.0 | 0.05 | 0.18 | 0.18 | 91 | 1008.8 |
| 20260509181435 | 13 | 0 | 0.0 | 0.0 | 0.05 | 0.18 | 0.18 | 91 | 1008.9 |
| 20260509181334 | 13 | 0 | 0.0 | 0.0 | 0.05 | 0.18 | 0.18 | 92 | 1008.9 |
| 20260509181258 | 13 | 0 | 0.0 | 0.0 | 0.05 | 0.18 | 0.18 | 92 | 1008.9 |
| 20260509181234 | 13 | 0 | 0.0 | 0.0 | 0.05 | 0.18 | 0.18 | 92 | 1008.9 |
| 20260509181147 | 13 | 0 | 0.0 | 0.0 | 0.05 | 0.18 | 0.18 | 92 | 1009.0 |
| 20260509181143 | 13 | 0 | 0.0 | 0.0 | 0.05 | 0.18 | 0.18 | 92 | 1009.0 |
| 20260509181017 | 13 | 360 | 0.0 | 0.0 | 0.05 | 0.18 | 0.18 | 92 | 1008.9 |
| 20260509180933 | 13 | 0 | 0.0 | 0.0 | 0.05 | 0.18 | 0.18 | 92 | 1009.0 |
| 20260509180832 | 13 | 0 | 0.0 | 0.0 | 0.08 | 0.18 | 0.18 | 92 | 1008.9 |
| 20260509180756 | 13 | 0 | 0.0 | 0.0 | 0.08 | 0.18 | 0.18 | 92 | 1008.9 |
| 20260509180744 | 13 | 0 | 0.0 | 0.0 | 0.08 | 0.18 | 0.18 | 91 | 1008.8 |
| 20260509180740 | 13 | 0 | 0.0 | 0.0 | 0.08 | 0.18 | 0.18 | 92 | 1008.8 |
| 20260509180530 | 13 | 0 | 0.0 | 0.0 | 0.08 | 0.18 | 0.18 | 91 | 1008.8 |
| 20260509180517 | 13 | 360 | 0.0 | 0.0 | 0.08 | 0.18 | 0.18 | 91 | 1008.8 |
| 20260509180430 | 13 | 0 | 0.0 | 0.0 | 0.08 | 0.18 | 0.18 | 91 | 1008.8 |
| 20260509180329 | 13 | 0 | 0.0 | 0.0 | 0.08 | 0.18 | 0.18 | 91 | 1008.8 |
| 20260509180256 | 13 | 0 | 0.0 | 0.0 | 0.08 | 0.18 | 0.18 | 91 | 1008.9 |
| 20260509180229 | 13 | 0 | 0.0 | 0.0 | 0.08 | 0.18 | 0.18 | 91 | 1008.8 |
| 20260509180142 | 13 | 0 | 0.0 | 0.0 | 0.05 | 0.15 | 0.15 | 91 | 1008.8 |
| 20260509180137 | 13 | 0 | 0.0 | 0.0 | 0.05 | 0.15 | 0.18 | 91 | 1008.8 |
| 20260509180021 | 13 | 0 | 0.0 | 0.0 | 0.05 | 0.15 | 0.15 | 91 | 1008.8 |
| 20260509180017 | 13 | 360 | 0.0 | 0.0 | 0.05 | 0.15 | 0.15 | 91 | 1008.8 |
| 20260509175927 | 13 | 0 | 0.0 | 0.0 | 0.05 | 0.15 | 0.15 | 91 | 1008.8 |
| 20260509175903 | 13 | 0 | 0.0 | 0.0 | 0.05 | 0.15 | 0.15 | 91 | 1008.8 |
| 20260509175726 | 13 | 0 | 0.0 | 0.0 | 0.05 | 0.15 | 0.15 | 91 | 1008.9 |
| 20260509175625 | 13 | 0 | 0.0 | 0.0 | 0.05 | 0.15 | 0.15 | 91 | 1008.9 |
| 20260509175533 | 13 | 360 | 0.0 | 0.0 | 0.05 | 0.15 | 0.15 | 91 | 1008.9 |
| 20260509175524 | 13 | 0 | 0.0 | 0.0 | 0.05 | 0.15 | 0.15 | 91 | 1008.8 |
| 20260509175424 | 13 | 0 | 0.0 | 0.0 | 0.05 | 0.15 | 0.15 | 91 | 1008.9 |
| 20260509175323 | 13 | 0 | 0.0 | 0.0 | 0.05 | 0.15 | 0.15 | 91 | 1008.9 |
| 20260509175257 | 13 | 0 | 0.0 | 0.0 | 0.05 | 0.15 | 0.15 | 91 | 1009.0 |
| 20260509175223 | 13 | 0 | 0.0 | 0.0 | 0.05 | 0.15 | 0.15 | 91 | 1009.0 |
| 20260509175122 | 13 | 0 | 0.0 | 1.6 | 0.05 | 0.15 | 0.15 | 90 | 1009.0 |
| 20260509175032 | 13 | 360 | 0.0 | 1.6 | 0.05 | 0.15 | 0.15 | 90 | 1008.9 |
| 20260509175021 | 13 | 0 | 0.0 | 1.6 | 0.05 | 0.15 | 0.15 | 90 | 1009.0 |
| 20260509174920 | 13 | 0 | 0.0 | 1.6 | 0.05 | 0.15 | 0.15 | 90 | 1009.0 |
| 20260509174820 | 13 | 0 | 0.0 | 1.6 | 0.05 | 0.15 | 0.15 | 90 | 1009.0 |
| 20260509174732 | 13 | 0 | 0.0 | 1.6 | 0.05 | 0.15 | 0.15 | 90 | 1008.9 |
| 20260509174727 | 13 | 0 | 0.0 | 1.6 | 0.05 | 0.15 | 0.15 | 90 | 1009.0 |
| 20260509174532 | 14 | 360 | 0.0 | 1.6 | 0.05 | 0.15 | 0.15 | 90 | 1008.9 |
| 20260509174516 | 14 | 0 | 0.0 | 1.6 | 0.05 | 0.15 | 0.15 | 90 | 1009.0 |
| 20260509174417 | 14 | 0 | 0.0 | 1.6 | 0.05 | 0.15 | 0.15 | 90 | 1009.0 |
| 20260509174316 | 14 | 0 | 0.0 | 1.6 | 0.05 | 0.15 | 0.15 | 90 | 1009.0 |
| 20260509174256 | 14 | 0 | 0.0 | 1.6 | 0.03 | 0.13 | 0.15 | 90 | 1009.0 |
| 20260509174215 | 14 | 0 | 0.0 | 1.6 | 0.05 | 0.13 | 0.15 | 90 | 1009.0 |
| 20260509174153 | 14 | 0 | 0.0 | 0.0 | 0.05 | 0.13 | 0.13 | 90 | 1008.8 |
| 20260509174145 | 14 | 0 | 0.0 | 1.6 | 0.05 | 0.13 | 0.13 | 90 | 1009.0 |
| 20260509174032 | 14 | 0 | 0.0 | 1.6 | 0.05 | 0.13 | 0.13 | 90 | 1008.9 |
| 20260509174017 | 14 | 360 | 0.0 | 1.6 | 0.05 | 0.13 | 0.13 | 90 | 1008.8 |
| 20260509173755 | 14 | 0 | 0.0 | 0.0 | 0.05 | 0.13 | 0.13 | 91 | 1008.9 |
| 20260509173713 | 14 | 0 | 0.0 | 0.0 | 0.05 | 0.13 | 0.13 | 91 | 1008.8 |
| 20260509173625 | 14 | 0 | 0.0 | 0.0 | 0.05 | 0.13 | 0.13 | 91 | 1008.7 |
| 20260509173621 | 14 | 0 | 0.0 | 0.0 | 0.05 | 0.13 | 0.13 | 91 | 1008.7 |
| 20260509173517 | 14 | 360 | 0.0 | 0.0 | 0.05 | 0.13 | 0.13 | 91 | 1008.6 |
| 20260509173410 | 14 | 0 | 0.0 | 0.0 | 0.05 | 0.13 | 0.13 | 91 | 1008.7 |
| 20260509173309 | 14 | 0 | 0.0 | 0.0 | 0.05 | 0.13 | 0.13 | 91 | 1008.6 |
| 20260509173255 | 14 | 0 | 0.0 | 0.0 | 0.08 | 0.13 | 0.13 | 91 | 1008.6 |
| 20260509173210 | 14 | 0 | 0.0 | 0.0 | 0.08 | 0.13 | 0.13 | 91 | 1008.6 |
| 20260509173109 | 14 | 0 | 0.0 | 0.0 | 0.08 | 0.13 | 0.13 | 91 | 1008.6 |
| 20260509173019 | 14 | 360 | 0.0 | 0.0 | 0.08 | 0.13 | 0.13 | 91 | 1008.5 |
| 20260509173007 | 14 | 0 | 0.0 | 0.0 | 0.08 | 0.13 | 0.13 | 91 | 1008.6 |
| 20260509172939 | 14 | 0 | 0.0 | 0.0 | 0.08 | 0.13 | 0.13 | 91 | 1008.6 |
| 20260509172935 | 14 | 0 | 0.0 | 0.0 | 0.08 | 0.13 | 0.13 | 91 | 1008.6 |
| 20260509172927 | 14 | 0 | 0.0 | 0.0 | 0.08 | 0.13 | 0.13 | 91 | 1008.6 |
| 20260509172813 | 14 | 0 | 0.0 | 0.0 | 0.08 | 0.13 | 0.13 | 91 | 1008.6 |
| 20260509172603 | 14 | 0 | 0.0 | 0.0 | 0.08 | 0.13 | 0.13 | 91 | 1008.6 |
| 20260509172532 | 14 | 360 | 0.0 | 0.0 | 0.08 | 0.13 | 0.13 | 91 | 1008.4 |
| 20260509172515 | 14 | 0 | 0.0 | 0.0 | 0.10 | 0.13 | 0.13 | 91 | 1008.5 |
| 20260509172511 | 14 | 0 | 0.0 | 0.0 | 0.08 | 0.13 | 0.13 | 91 | 1008.5 |
| 20260509172306 | 14 | 0 | 0.0 | 0.0 | 0.10 | 0.13 | 0.13 | 90 | 1008.4 |
| 20260509172255 | 14 | 0 | 0.0 | 0.0 | 0.10 | 0.13 | 0.13 | 90 | 1008.4 |
| 20260509172214 | 14 | 0 | 0.0 | 0.0 | 0.10 | 0.13 | 0.13 | 90 | 1008.3 |
| 20260509172210 | 14 | 0 | 0.0 | 0.0 | 0.10 | 0.13 | 0.13 | 90 | 1008.4 |
| 20260509172018 | 14 | 360 | 0.0 | 0.0 | 0.10 | 0.13 | 0.13 | 90 | 1008.2 |
| 20260509172000 | 14 | 0 | 0.0 | 0.0 | 0.10 | 0.13 | 0.13 | 90 | 1008.3 |
| 20260509171900 | 14 | 0 | 0.0 | 0.0 | 0.10 | 0.13 | 0.13 | 89 | 1008.3 |
| 20260509171818 | 14 | 0 | 0.0 | 0.0 | 0.13 | 0.13 | 0.13 | 89 | 1008.3 |
| 20260509171808 | 14 | 0 | 0.0 | 0.0 | 0.10 | 0.13 | 0.13 | 89 | 1008.3 |
| 20260509171559 | 14 | 0 | 0.0 | 0.0 | 0.13 | 0.13 | 0.13 | 89 | 1008.2 |
| 20260509171517 | 14 | 360 | 0.0 | 0.0 | 0.13 | 0.13 | 0.13 | 89 | 1008.2 |
| 20260509171510 | 14 | 0 | 0.0 | 0.0 | 0.13 | 0.13 | 0.13 | 89 | 1008.2 |
| 20260509171506 | 14 | 0 | 0.0 | 0.0 | 0.13 | 0.13 | 0.13 | 89 | 1008.3 |
| 20260509171316 | 14 | 0 | 0.0 | 0.0 | 0.13 | 0.13 | 0.13 | 89 | 1008.3 |
| 20260509171306 | 14 | 0 | 0.0 | 0.0 | 0.13 | 0.13 | 0.13 | 89 | 1008.3 |
| 20260509171056 | 14 | 0 | 0.0 | 0.0 | 0.13 | 0.13 | 0.13 | 89 | 1008.3 |
| 20260509171021 | 14 | 0 | 0.0 | 0.0 | 0.10 | 0.10 | 0.10 | 89 | 1008.3 |
| 20260509171017 | 14 | 360 | 0.0 | 0.0 | 0.13 | 0.13 | 0.13 | 89 | 1008.1 |
| 20260509170954 | 14 | 0 | 0.0 | 0.0 | 0.13 | 0.13 | 0.13 | 89 | 1008.2 |
| 20260509170906 | 14 | 0 | 0.0 | 0.0 | 0.10 | 0.10 | 0.10 | 89 | 1008.2 |
| 20260509170857 | 14 | 0 | 0.0 | 0.0 | 0.10 | 0.10 | 0.10 | 89 | 1008.3 |
| 20260509170652 | 14 | 0 | 0.0 | 0.0 | 0.10 | 0.10 | 0.10 | 89 | 1008.5 |
| 20260509170552 | 14 | 0 | 0.0 | 0.0 | 0.10 | 0.10 | 0.10 | 89 | 1008.5 |
| 20260509170518 | 14 | 360 | 0.0 | 0.0 | 0.10 | 0.10 | 0.10 | 88 | 1008.2 |
| 20260509170505 | 14 | 0 | 0.0 | 0.0 | 0.10 | 0.10 | 0.10 | 88 | 1008.2 |
| 20260509170501 | 14 | 0 | 0.0 | 0.0 | 0.10 | 0.10 | 0.10 | 88 | 1008.3 |
| 20260509170253 | 14 | 0 | 0.0 | 0.0 | 0.10 | 0.10 | 0.10 | 88 | 1008.3 |
| 20260509170150 | 15 | 0 | 0.0 | 0.0 | 0.10 | 0.10 | 0.10 | 88 | 1008.4 |
| 20260509170050 | 15 | 0 | 0.0 | 0.0 | 0.10 | 0.10 | 0.10 | 89 | 1008.5 |
| 20260509170019 | 15 | 0 | 0.0 | 0.0 | 0.10 | 0.10 | 0.10 | 88 | 1008.6 |
| 20260509170017 | 15 | 360 | 0.0 | 0.0 | 0.10 | 0.10 | 0.10 | 88 | 1008.5 |
| 20260509165949 | 15 | 0 | 0.0 | 0.0 | 0.10 | 0.10 | 0.10 | 88 | 1008.6 |
| 20260509165902 | 15 | 0 | 0.0 | 0.0 | 0.10 | 0.10 | 0.10 | 88 | 1008.7 |
| 20260509165748 | 15 | 0 | 0.0 | 0.0 | 0.10 | 0.10 | 0.10 | 88 | 1008.6 |
| 20260509165645 | 15 | 0 | 0.0 | 0.0 | 0.10 | 0.10 | 0.10 | 89 | 1008.5 |
| 20260509165546 | 15 | 0 | 0.0 | 0.0 | 0.10 | 0.10 | 0.10 | 89 | 1008.5 |
| 20260509165517 | 15 | 360 | 0.0 | 0.0 | 0.10 | 0.10 | 0.10 | 88 | 1008.4 |
| 20260509165446 | 15 | 0 | 0.0 | 0.0 | 0.10 | 0.10 | 0.10 | 88 | 1008.5 |
| 20260509165359 | 15 | 0 | 0.0 | 0.0 | 0.10 | 0.10 | 0.10 | 88 | 1008.5 |
| 20260509165350 | 15 | 0 | 0.0 | 0.0 | 0.10 | 0.10 | 0.10 | 88 | 1008.5 |
| 20260509165144 | 15 | 0 | 0.0 | 0.0 | 0.10 | 0.10 | 0.10 | 88 | 1008.5 |
| 20260509165044 | 15 | 0 | 0.0 | 0.0 | 0.10 | 0.10 | 0.10 | 88 | 1008.5 |
| 20260509165017 | 15 | 360 | 0.0 | 0.0 | 0.10 | 0.10 | 0.10 | 88 | 1008.5 |
| 20260509164942 | 15 | 0 | 0.0 | 0.0 | 0.10 | 0.10 | 0.10 | 88 | 1008.6 |
| 20260509164842 | 15 | 0 | 0.0 | 0.0 | 0.10 | 0.10 | 0.10 | 87 | 1008.6 |
| 20260509164742 | 15 | 0 | 0.0 | 0.0 | 0.10 | 0.10 | 0.10 | 87 | 1008.6 |
| 20260509164641 | 15 | 0 | 0.0 | 0.0 | 0.10 | 0.10 | 0.10 | 87 | 1008.6 |
| 20260509164539 | 15 | 0 | 0.0 | 0.0 | 0.10 | 0.10 | 0.10 | 86 | 1008.7 |
| 20260509164518 | 15 | 360 | 0.0 | 0.0 | 0.10 | 0.10 | 0.10 | 86 | 1008.6 |
| 20260509164438 | 15 | 0 | 0.0 | 3.2 | 0.10 | 0.10 | 0.10 | 86 | 1008.7 |
| 20260509164417 | 15 | 0 | 0.0 | 3.2 | 0.10 | 0.10 | 0.10 | 86 | 1008.6 |
| 20260509164307 | 15 | 0 | 0.0 | 3.2 | 0.08 | 0.08 | 0.08 | 85 | 1008.7 |
| 20260509164253 | 15 | 0 | 0.0 | 3.2 | 0.10 | 0.10 | 0.10 | 86 | 1008.6 |
| 20260509164018 | 15 | 360 | 0.0 | 3.2 | 0.08 | 0.08 | 0.08 | 85 | 1008.6 |
| 20260509163935 | 15 | 0 | 0.0 | 3.2 | 0.08 | 0.08 | 0.08 | 85 | 1008.7 |
| 20260509163834 | 15 | 0 | 0.0 | 3.2 | 0.08 | 0.08 | 0.08 | 85 | 1008.7 |
| 20260509163734 | 15 | 0 | 0.0 | 3.2 | 0.08 | 0.08 | 0.08 | 85 | 1008.7 |
| 20260509163633 | 15 | 0 | 0.0 | 3.2 | 0.08 | 0.08 | 0.08 | 84 | 1008.7 |
| 20260509163533 | 15 | 0 | 0.0 | 3.2 | 0.08 | 0.08 | 0.08 | 85 | 1008.8 |
| 20260509163517 | 15 | 360 | 0.0 | 3.2 | 0.08 | 0.08 | 0.08 | 85 | 1008.7 |
| 20260509163432 | 15 | 0 | 0.0 | 0.0 | 0.08 | 0.08 | 0.08 | 85 | 1008.8 |
| 20260509163332 | 15 | 0 | 0.0 | 0.0 | 0.08 | 0.08 | 0.08 | 85 | 1008.7 |
| 20260509163243 | 15 | 0 | 0.0 | 0.0 | 0.05 | 0.05 | 0.08 | 85 | 1008.7 |
| 20260509163232 | 15 | 0 | 0.0 | 0.0 | 0.05 | 0.05 | 0.08 | 85 | 1008.7 |
| 20260509163131 | 15 | 0 | 0.0 | 0.0 | 0.05 | 0.05 | 0.05 | 84 | 1008.7 |
| 20260509163032 | 15 | 360 | 0.0 | 0.0 | 0.05 | 0.05 | 0.05 | 84 | 1008.6 |
| 20260509163030 | 15 | 0 | 0.0 | 0.0 | 0.05 | 0.05 | 0.05 | 84 | 1008.8 |
| 20260509162931 | 15 | 0 | 0.0 | 0.0 | 0.05 | 0.05 | 0.05 | 84 | 1008.7 |
| 20260509162829 | 15 | 0 | 0.0 | 0.0 | 0.05 | 0.05 | 0.05 | 84 | 1008.8 |
| 20260509162729 | 15 | 0 | 0.0 | 0.0 | 0.05 | 0.05 | 0.05 | 83 | 1008.7 |
| 20260509162642 | 15 | 0 | 0.0 | 0.0 | 0.05 | 0.05 | 0.05 | 82 | 1008.8 |
| 20260509162637 | 15 | 0 | 0.0 | 0.0 | 0.05 | 0.05 | 0.05 | 83 | 1008.8 |
| 20260509162533 | 15 | 360 | 0.0 | 0.0 | 0.05 | 0.05 | 0.05 | 82 | 1008.6 |
| 20260509162455 | 15 | 0 | 0.0 | 0.0 | 0.03 | 0.03 | 0.05 | 82 | 1008.7 |
| 20260509162341 | 15 | 0 | 0.0 | 0.0 | 0.03 | 0.03 | 0.03 | 82 | 1008.8 |
| 20260509162332 | 15 | 0 | 0.0 | 0.0 | 0.03 | 0.03 | 0.03 | 82 | 1008.7 |
| 20260509162126 | 15 | 0 | 0.0 | 0.0 | 0.03 | 0.03 | 0.03 | 81 | 1008.7 |
| 20260509162026 | 15 | 0 | 0.0 | 0.0 | 0.03 | 0.03 | 0.03 | 80 | 1008.8 |
| 20260509162017 | 15 | 360 | 0.0 | 0.0 | 0.03 | 0.03 | 0.03 | 80 | 1008.6 |
| 20260509161924 | 15 | 0 | 0.0 | 0.0 | 0.03 | 0.03 | 0.03 | 80 | 1008.7 |
| 20260509161824 | 15 | 0 | 0.0 | 0.0 | 0.03 | 0.03 | 0.03 | 80 | 1008.7 |
| 20260509161749 | 15 | 0 | 0.0 | 0.0 | 0.03 | 0.03 | 0.03 | 80 | 1008.8 |
| 20260509161744 | 15 | 0 | 0.0 | 0.0 | 0.00 | 0.00 | 0.03 | 80 | 1008.8 |
| 20260509161630 | 15 | 0 | 0.0 | 3.2 | 0.00 | 0.00 | 0.00 | 79 | 1008.8 |
| 20260509161547 | 15 | 360 | 0.0 | 6.4 | 0.00 | 0.00 | 0.00 | 79 | 1008.8 |
| 20260509161434 | 15 | 0 | 1.6 | 12.9 | 0.00 | 0.00 | 0.00 | 77 | 1009.0 |
| 20260509161430 | 15 | 0 | 1.6 | 9.7 | 0.00 | 0.00 | 0.00 | 78 | 1008.9 |
| 20260509161234 | 15 | 0 | 1.6 | 12.9 | 0.00 | 0.00 | 0.00 | 76 | 1009.1 |
| 20260509161230 | 15 | 0 | 1.6 | 12.9 | 0.00 | 0.00 | 0.00 | 77 | 1009.1 |
| 20260509161019 | 16 | 0 | 1.6 | 12.9 | 0.00 | 0.00 | 0.00 | 76 | 1009.1 |
| 20260509161003 | 16 | 0 | 1.6 | 12.9 | 0.00 | 0.00 | 0.00 | 76 | 1009.2 |
| 20260509160919 | 16 | 0 | 1.6 | 12.9 | 0.00 | 0.00 | 0.00 | 75 | 1009.1 |
| 20260509160850 | 16 | 0 | 1.6 | 12.9 | 0.00 | 0.00 | 0.00 | 76 | 1009.2 |
| 20260509160718 | 16 | 0 | 1.6 | 12.9 | 0.00 | 0.00 | 0.00 | 76 | 1009.2 |
| 20260509160618 | 16 | 0 | 1.6 | 12.9 | 0.00 | 0.00 | 0.00 | 76 | 1009.2 |
| 20260509160518 | 16 | 0 | 1.6 | 12.9 | 0.00 | 0.00 | 0.00 | 76 | 1009.3 |
| 20260509160417 | 16 | 0 | 0.0 | 12.9 | 0.00 | 0.00 | 0.00 | 77 | 1009.2 |
| 20260509160344 | 16 | 0 | 0.0 | 3.2 | 0.00 | 0.00 | 0.00 | 77 | 1009.3 |
| 20260509160337 | 16 | 0 | 0.0 | 3.2 | 0.00 | 0.00 | 0.00 | 77 | 1009.3 |
| 20260509160225 | 16 | 0 | 0.0 | 3.2 | 0.00 | 0.00 | 0.00 | 76 | 1009.3 |
| 20260509160018 | 16 | 360 | 0.0 | 3.2 | 0.00 | 0.00 | 0.00 | 77 | 1009.2 |
| 20260509160016 | 16 | 0 | 0.0 | 3.2 | 0.00 | 0.00 | 0.00 | 77 | 1009.3 |
| 20260509155927 | 16 | 0 | 0.0 | 3.2 | 0.00 | 0.00 | 0.00 | 77 | 1009.1 |
| 20260509155923 | 16 | 0 | 0.0 | 3.2 | 0.00 | 0.00 | 0.00 | 77 | 1009.2 |
| 20260509155713 | 16 | 0 | 0.0 | 3.2 | 0.00 | 0.00 | 0.00 | 77 | 1009.0 |
| 20260509155612 | 16 | 0 | 0.0 | 3.2 | 0.00 | 0.00 | 0.00 | 78 | 1009.0 |
| 20260509155517 | 16 | 360 | 0.0 | 9.7 | 0.00 | 0.00 | 0.00 | 77 | 1009.0 |
| 20260509155512 | 16 | 0 | 0.0 | 9.7 | 0.00 | 0.00 | 0.00 | 77 | 1009.0 |
| 20260509155411 | 16 | 0 | 0.0 | 9.7 | 0.00 | 0.00 | 0.00 | 76 | 1009.0 |
| 20260509155311 | 16 | 0 | 0.0 | 9.7 | 0.00 | 0.00 | 0.00 | 75 | 1009.0 |
| 20260509155241 | 16 | 0 | 0.0 | 9.7 | 0.00 | 0.00 | 0.00 | 75 | 1009.0 |
| 20260509155210 | 16 | 0 | 0.0 | 9.7 | 0.00 | 0.00 | 0.00 | 75 | 1009.0 |
| 20260509155110 | 16 | 0 | 1.6 | 9.7 | 0.00 | 0.00 | 0.00 | 75 | 1009.0 |
| 20260509155023 | 16 | 0 | 1.6 | 9.7 | 0.00 | 0.00 | 0.00 | 75 | 1008.9 |
| 20260509155019 | 16 | 0 | 1.6 | 9.7 | 0.00 | 0.00 | 0.00 | 76 | 1009.0 |
| 20260509155017 | 16 | 360 | 0.0 | 9.7 | 0.00 | 0.00 | 0.00 | 76 | 1009.0 |
| 20260509154809 | 16 | 0 | 1.6 | 9.7 | 0.00 | 0.00 | 0.00 | 75 | 1008.9 |
| 20260509154741 | 16 | 0 | 1.6 | 9.7 | 0.00 | 0.00 | 0.00 | 75 | 1008.9 |
| 20260509154709 | 16 | 0 | 1.6 | 9.7 | 0.00 | 0.00 | 0.00 | 75 | 1009.0 |
| 20260509154608 | 16 | 0 | 1.6 | 9.7 | 0.00 | 0.00 | 0.00 | 74 | 1009.0 |
| 20260509154521 | 16 | 0 | 1.6 | 17.7 | 0.00 | 0.00 | 0.00 | 73 | 1009.1 |
| 20260509154517 | 16 | 360 | 0.0 | 9.7 | 0.00 | 0.00 | 0.00 | 74 | 1009.1 |
| 20260509154306 | 16 | 0 | 1.6 | 17.7 | 0.00 | 0.00 | 0.00 | 73 | 1009.2 |
| 20260509154239 | 16 | 0 | 1.6 | 17.7 | 0.00 | 0.00 | 0.00 | 73 | 1009.2 |
| 20260509154206 | 16 | 0 | 1.6 | 17.7 | 0.00 | 0.00 | 0.00 | 73 | 1009.3 |
| 20260509154105 | 16 | 0 | 1.6 | 17.7 | 0.00 | 0.00 | 0.00 | 72 | 1009.2 |
| 20260509154047 | 17 | 360 | 3.2 | 17.7 | 0.00 | 0.00 | 0.00 | 71 | 1009.2 |
| 20260509154005 | 16 | 0 | 1.6 | 17.7 | 0.00 | 0.00 | 0.00 | 71 | 1009.2 |
| 20260509153904 | 16 | 0 | 1.6 | 17.7 | 0.00 | 0.00 | 0.00 | 71 | 1009.2 |
| 20260509153822 | 16 | 0 | 1.6 | 17.7 | 0.00 | 0.00 | 0.00 | 70 | 1009.2 |
| 20260509153818 | 16 | 0 | 0.0 | 17.7 | 0.00 | 0.00 | 0.00 | 71 | 1009.2 |
| 20260509153812 | 16 | 0 | 0.0 | 17.7 | 0.00 | 0.00 | 0.00 | 70 | 1009.2 |
| 20260509153603 | 17 | 0 | 1.6 | 17.7 | 0.00 | 0.00 | 0.00 | 69 | 1009.2 |
| 20260509153517 | 17 | 360 | 0.0 | 17.7 | 0.00 | 0.00 | 0.00 | 69 | 1009.2 |
| 20260509153502 | 17 | 0 | 1.6 | 17.7 | 0.00 | 0.00 | 0.00 | 69 | 1009.2 |
| 20260509153402 | 17 | 0 | 1.6 | 12.9 | 0.00 | 0.00 | 0.00 | 69 | 1009.2 |
| 20260509153237 | 17 | 0 | 1.6 | 12.9 | 0.00 | 0.00 | 0.00 | 68 | 1009.1 |
| 20260509153159 | 17 | 0 | 1.6 | 12.9 | 0.00 | 0.00 | 0.00 | 68 | 1009.2 |
| 20260509153059 | 17 | 0 | 1.6 | 12.9 | 0.00 | 0.00 | 0.00 | 68 | 1009.3 |
| 20260509153032 | 17 | 360 | 0.0 | 12.9 | 0.00 | 0.00 | 0.00 | 68 | 1009.1 |
| 20260509153018 | 17 | 0 | 0.0 | 12.9 | 0.00 | 0.00 | 0.00 | 67 | 1009.0 |
| 20260509153012 | 17 | 0 | 0.0 | 12.9 | 0.00 | 0.00 | 0.00 | 68 | 1009.1 |
| 20260509153008 | 17 | 0 | 1.6 | 12.9 | 0.00 | 0.00 | 0.00 | 68 | 1009.1 |
| 20260509152841 | 17 | 0 | 0.0 | 12.9 | 0.00 | 0.00 | 0.00 | 67 | 1009.0 |
| 20260509152657 | 17 | 0 | 0.0 | 12.9 | 0.00 | 0.00 | 0.00 | 66 | 1009.0 |
| 20260509152610 | 17 | 0 | 0.0 | 6.4 | 0.00 | 0.00 | 0.00 | 67 | 1009.0 |
| 20260509152606 | 17 | 0 | 0.0 | 6.4 | 0.00 | 0.00 | 0.00 | 66 | 1009.0 |
| 20260509152518 | 17 | 360 | 0.0 | 4.8 | 0.00 | 0.00 | 0.00 | 66 | 1009.0 |
| 20260509152408 | 17 | 0 | 0.0 | 6.4 | 0.00 | 0.00 | 0.00 | 67 | 1009.1 |
| 20260509152404 | 17 | 0 | 0.0 | 6.4 | 0.00 | 0.00 | 0.00 | 67 | 1009.0 |
| 20260509152236 | 17 | 0 | 0.0 | 6.4 | 0.00 | 0.00 | 0.00 | 67 | 1009.1 |
| 20260509152154 | 17 | 0 | 0.0 | 6.4 | 0.00 | 0.00 | 0.00 | 66 | 1009.0 |
| 20260509152054 | 17 | 0 | 0.0 | 4.8 | 0.00 | 0.00 | 0.00 | 67 | 1009.1 |
| 20260509152018 | 17 | 239 | 0.0 | 4.8 | 0.00 | 0.00 | 0.00 | 69 | 1009.1 |
| 20260509152007 | 17 | 225 | 0.0 | 1.6 | 0.00 | 0.00 | 0.00 | 67 | 1009.1 |
| 20260509152002 | 17 | 202 | 0.0 | 1.6 | 0.00 | 0.00 | 0.00 | 69 | 1009.2 |
| 20260509151753 | 17 | 272 | 0.0 | 1.6 | 0.00 | 0.00 | 0.00 | 67 | 1009.1 |
| 20260509151733 | 17 | 225 | 0.0 | 1.6 | 0.00 | 0.00 | 0.00 | 67 | 1009.1 |
| 20260509151652 | 17 | 198 | 0.0 | 0.0 | 0.00 | 0.00 | 0.00 | 68 | 1009.1 |
| 20260509151552 | 17 | 237 | 0.0 | 0.0 | 0.00 | 0.00 | 0.00 | 68 | 1009.1 |
| 20260509151527 | 17 | 229 | 0.0 | 0.0 | 0.00 | 0.00 | 0.00 | 67 | 1009.1 |
| 20260509151517 | 17 | 225 | 0.0 | 0.0 | 0.00 | 0.00 | 0.00 | 68 | 1009.1 |
| 20260509151451 | 17 | 205 | 0.0 | 0.0 | 0.00 | 0.00 | 0.00 | 68 | 1009.1 |
| 20260509151422 | 17 | 225 | 0.0 | 0.0 | 0.00 | 0.00 | 0.00 | 68 | 1009.1 |
| 20260509151414 | 17 | 194 | 0.0 | 0.0 | 0.00 | 0.00 | 0.00 | 67 | 1009.1 |
| 20260509151405 | 17 | 202 | 0.0 | 0.0 | 0.00 | 0.00 | 0.00 | 67 | 1009.1 |
| 20260509151049 | 17 | 232 | 0.0 | 0.0 | 0.00 | 0.00 | 0.00 | 68 | 1009.0 |
| 20260509151017 | 17 | 232 | 0.0 | 0.0 | 0.00 | 0.00 | 0.00 | 68 | 1008.9 |
| 20260509150948 | 17 | 249 | 0.0 | 0.0 | 0.00 | 0.00 | 0.00 | 68 | 1008.9 |
| 20260509150848 | 17 | 257 | 0.0 | 0.0 | 0.00 | 0.00 | 0.00 | 69 | 1008.9 |
| 20260509150748 | 17 | 226 | 0.0 | 0.0 | 0.00 | 0.00 | 0.00 | 68 | 1008.7 |
| 20260509150732 | 17 | 244 | 0.0 | 0.0 | 0.00 | 0.00 | 0.00 | 68 | 1008.7 |
| 20260509150701 | 17 | 231 | 0.0 | 0.0 | 0.00 | 0.00 | 0.00 | 69 | 1008.8 |
| 20260509150658 | 17 | 251 | 0.0 | 0.0 | 0.00 | 0.00 | 0.00 | 69 | 1008.7 |
| 20260509150517 | 17 | 224 | 0.0 | 0.0 | 0.00 | 0.00 | 0.00 | 69 | 1008.9 |
| 20260509150446 | 17 | 229 | 0.0 | 0.0 | 0.00 | 0.00 | 0.00 | 69 | 1008.9 |
| 20260509150346 | 17 | 216 | 0.0 | 1.6 | 0.00 | 0.00 | 0.00 | 69 | 1008.9 |
| 20260509150246 | 17 | 269 | 0.0 | 1.6 | 0.00 | 0.00 | 0.00 | 71 | 1009.0 |
| 20260509150232 | 17 | 229 | 0.0 | 1.6 | 0.00 | 0.00 | 0.00 | 71 | 1009.0 |
| 20260509150145 | 17 | 228 | 0.0 | 1.6 | 0.00 | 0.00 | 0.00 | 72 | 1009.0 |
| 20260509150045 | 17 | 227 | 0.0 | 1.6 | 0.00 | 0.00 | 0.00 | 71 | 1008.9 |
| 20260509150017 | 17 | 360 | 0.0 | 1.6 | 0.00 | 0.00 | 0.00 | 70 | 1008.7 |
| 20260509145957 | 16 | 0 | 0.0 | 1.6 | 0.00 | 0.00 | 0.00 | 70 | 1008.6 |
| 20260509145953 | 16 | 0 | 0.0 | 1.6 | 0.00 | 0.00 | 0.00 | 70 | 1008.7 |
| 20260509145802 | 16 | 0 | 0.0 | 3.2 | 0.00 | 0.00 | 0.00 | 69 | 1008.7 |
| 20260509145757 | 16 | 0 | 0.0 | 3.2 | 0.00 | 0.00 | 0.00 | 70 | 1008.7 |
| 20260509145752 | 16 | 0 | 0.0 | 3.2 | 0.00 | 0.00 | 0.00 | 69 | 1008.7 |
| 20260509145542 | 16 | 0 | 0.0 | 3.2 | 0.00 | 0.00 | 0.00 | 69 | 1008.8 |
| 20260509145532 | 16 | 360 | 0.0 | 6.4 | 0.00 | 0.00 | 0.00 | 69 | 1008.9 |
| 20260509145443 | 16 | 0 | 0.0 | 6.4 | 0.00 | 0.00 | 0.00 | 69 | 1008.9 |
| 20260509145343 | 16 | 0 | 0.0 | 6.4 | 0.00 | 0.00 | 0.00 | 69 | 1009.0 |
| 20260509145242 | 16 | 0 | 0.0 | 6.4 | 0.00 | 0.00 | 0.00 | 70 | 1008.9 |
| 20260509145229 | 16 | 0 | 0.0 | 6.4 | 0.00 | 0.00 | 0.00 | 71 | 1008.9 |
| 20260509145142 | 16 | 0 | 1.6 | 6.4 | 0.00 | 0.00 | 0.00 | 71 | 1008.9 |
| 20260509145041 | 16 | 0 | 1.6 | 6.4 | 0.00 | 0.00 | 0.00 | 71 | 1008.9 |
| 20260509145032 | 16 | 360 | 0.0 | 6.4 | 0.00 | 0.00 | 0.00 | 71 | 1009.0 |
| 20260509144940 | 16 | 0 | 1.6 | 6.4 | 0.00 | 0.00 | 0.00 | 70 | 1009.0 |
| 20260509144729 | 16 | 0 | 1.6 | 6.4 | 0.00 | 0.00 | 0.00 | 70 | 1008.9 |
| 20260509144639 | 16 | 0 | 1.6 | 6.4 | 0.00 | 0.00 | 0.00 | 70 | 1008.9 |
| 20260509144538 | 16 | 0 | 0.0 | 6.4 | 0.00 | 0.00 | 0.00 | 72 | 1008.9 |
| 20260509144517 | 16 | 360 | 1.6 | 4.8 | 0.00 | 0.00 | 0.00 | 72 | 1009.0 |
| 20260509144438 | 16 | 0 | 0.0 | 4.8 | 0.00 | 0.00 | 0.00 | 72 | 1009.0 |
| 20260509144337 | 16 | 0 | 0.0 | 4.8 | 0.00 | 0.00 | 0.00 | 72 | 1009.1 |
| 20260509144228 | 16 | 0 | 0.0 | 4.8 | 0.00 | 0.00 | 0.00 | 72 | 1009.0 |
| 20260509144135 | 16 | 0 | 0.0 | 4.8 | 0.00 | 0.00 | 0.00 | 71 | 1008.9 |
| 20260509144108 | 16 | 0 | 0.0 | 4.8 | 0.00 | 0.00 | 0.00 | 72 | 1008.8 |
| 20260509144017 | 16 | 360 | 0.0 | 4.8 | 0.00 | 0.00 | 0.00 | 72 | 1008.8 |
| 20260509143955 | 16 | 0 | 0.0 | 4.8 | 0.00 | 0.00 | 0.00 | 73 | 1008.9 |
| 20260509143950 | 16 | 0 | 0.0 | 4.8 | 0.00 | 0.00 | 0.00 | 72 | 1008.8 |
| 20260509143832 | 16 | 0 | 0.0 | 4.8 | 0.00 | 0.00 | 0.00 | 73 | 1008.9 |
| 20260509143634 | 16 | 0 | 0.0 | 4.8 | 0.00 | 0.00 | 0.00 | 72 | 1008.9 |
| 20260509143534 | 16 | 0 | 0.0 | 4.8 | 0.00 | 0.00 | 0.00 | 72 | 1009.0 |
| 20260509143517 | 16 | 360 | 0.0 | 4.8 | 0.00 | 0.00 | 0.00 | 72 | 1009.0 |
| 20260509143433 | 16 | 0 | 0.0 | 4.8 | 0.00 | 0.00 | 0.00 | 72 | 1009.0 |
| 20260509143333 | 16 | 0 | 0.0 | 4.8 | 0.00 | 0.00 | 0.00 | 73 | 1009.0 |
| 20260509143225 | 16 | 0 | 0.0 | 0.0 | 0.00 | 0.00 | 0.00 | 74 | 1009.0 |
| 20260509143132 | 16 | 0 | 0.0 | 1.6 | 0.00 | 0.00 | 0.00 | 74 | 1008.9 |
| 20260509143032 | 16 | 360 | 0.0 | 1.6 | 0.00 | 0.00 | 0.00 | 73 | 1008.9 |
| 20260509142950 | 16 | 0 | 0.0 | 1.6 | 0.00 | 0.00 | 0.00 | 74 | 1008.8 |
| 20260509142946 | 16 | 0 | 0.0 | 1.6 | 0.00 | 0.00 | 0.00 | 73 | 1008.9 |
| 20260509142937 | 16 | 0 | 0.0 | 1.6 | 0.00 | 0.00 | 0.00 | 73 | 1008.8 |
| 20260509142630 | 16 | 0 | 0.0 | 1.6 | 0.00 | 0.00 | 0.00 | 74 | 1008.9 |
| 20260509142547 | 16 | 360 | 0.0 | 1.6 | 0.00 | 0.00 | 0.00 | 74 | 1009.2 |
| 20260509142529 | 16 | 0 | 0.0 | 1.6 | 0.00 | 0.00 | 0.00 | 73 | 1009.1 |
| 20260509142429 | 16 | 0 | 0.0 | 1.6 | 0.00 | 0.00 | 0.00 | 74 | 1009.2 |
| 20260509142327 | 16 | 0 | 0.0 | 1.6 | 0.00 | 0.00 | 0.00 | 74 | 1009.0 |
| 20260509142224 | 16 | 0 | 0.0 | 1.6 | 0.00 | 0.00 | 0.00 | 74 | 1008.9 |
| 20260509142127 | 16 | 0 | 0.0 | 6.4 | 0.00 | 0.00 | 0.00 | 74 | 1008.8 |
| 20260509142043 | 16 | 0 | 0.0 | 6.4 | 0.00 | 0.00 | 0.00 | 73 | 1008.9 |
| 20260509142039 | 16 | 0 | 0.0 | 6.4 | 0.00 | 0.00 | 0.00 | 73 | 1008.9 |
| 20260509142035 | 16 | 0 | 0.0 | 6.4 | 0.00 | 0.00 | 0.00 | 73 | 1008.9 |
| 20260509142017 | 16 | 360 | 0.0 | 6.4 | 0.00 | 0.00 | 0.00 | 73 | 1008.9 |
| 20260509141835 | 16 | 0 | 0.0 | 6.4 | 0.00 | 0.00 | 0.00 | 73 | 1008.9 |
| 20260509141826 | 16 | 0 | 0.0 | 6.4 | 0.00 | 0.00 | 0.00 | 73 | 1008.9 |
| 20260509141625 | 16 | 0 | 0.0 | 6.4 | 0.00 | 0.00 | 0.00 | 73 | 1008.8 |
| 20260509141525 | 16 | 0 | 0.0 | 6.4 | 0.00 | 0.00 | 0.00 | 73 | 1008.8 |
| 20260509141518 | 16 | 360 | 0.0 | 6.4 | 0.00 | 0.00 | 0.00 | 73 | 1008.7 |
| 20260509141423 | 16 | 0 | 0.0 | 6.4 | 0.00 | 0.00 | 0.00 | 73 | 1008.7 |
| 20260509141327 | 16 | 0 | 0.0 | 6.4 | 0.00 | 0.00 | 0.00 | 73 | 1008.9 |
| 20260509141218 | 16 | 0 | 0.0 | 6.4 | 0.00 | 0.00 | 0.00 | 74 | 1008.8 |
| 20260509141120 | 16 | 0 | 0.0 | 3.2 | 0.00 | 0.00 | 0.00 | 74 | 1008.9 |
| 20260509141103 | 16 | 360 | 0.0 | 3.2 | 0.00 | 0.00 | 0.00 | 74 | 1009.0 |
| 20260509141020 | 16 | 0 | 0.0 | 3.2 | 0.00 | 0.00 | 0.00 | 74 | 1008.9 |
| 20260509140919 | 16 | 0 | 0.0 | 3.2 | 0.00 | 0.00 | 0.00 | 74 | 1009.0 |
| 20260509140819 | 16 | 0 | 0.0 | 3.2 | 0.00 | 0.00 | 0.00 | 75 | 1009.1 |
| 20260509140716 | 16 | 0 | 0.0 | 3.2 | 0.00 | 0.00 | 0.00 | 75 | 1009.0 |
| 20260509140618 | 16 | 0 | 0.0 | 1.6 | 0.00 | 0.00 | 0.00 | 75 | 1009.0 |
| 20260509140530 | 16 | 0 | 0.0 | 12.9 | 0.00 | 0.00 | 0.00 | 74 | 1008.9 |
| 20260509140526 | 16 | 0 | 0.0 | 8.0 | 0.00 | 0.00 | 0.00 | 75 | 1009.1 |
| 20260509140518 | 16 | 360 | 0.0 | 12.9 | 0.00 | 0.00 | 0.00 | 75 | 1008.9 |
| 20260509140333 | 16 | 0 | 0.0 | 12.9 | 0.00 | 0.00 | 0.00 | 75 | 1008.9 |
| 20260509140319 | 16 | 0 | 0.0 | 12.9 | 0.00 | 0.00 | 0.00 | 74 | 1008.9 |
| 20260509140208 | 15 | 0 | 1.6 | 12.9 | 0.00 | 0.00 | 0.00 | 74 | 1008.7 |
| 20260509140200 | 16 | 0 | 0.0 | 12.9 | 0.00 | 0.00 | 0.00 | 74 | 1008.8 |
| 20260509140018 | 16 | 360 | 0.0 | 12.9 | 0.00 | 0.00 | 0.00 | 74 | 1008.8 |
| 20260509135937 | 15 | 0 | 0.0 | 12.9 | 0.00 | 0.00 | 0.00 | 74 | 1008.8 |
| 20260509135928 | 15 | 0 | 1.6 | 12.9 | 0.00 | 0.00 | 0.00 | 74 | 1008.7 |
| 20260509135613 | 15 | 0 | 1.6 | 12.9 | 0.00 | 0.00 | 0.00 | 75 | 1008.7 |
| 20260509135518 | 15 | 360 | 8.0 | 12.9 | 0.00 | 0.00 | 0.00 | 75 | 1008.6 |
| 20260509135512 | 15 | 0 | 0.0 | 12.9 | 0.00 | 0.00 | 0.00 | 75 | 1008.6 |
| 20260509135412 | 15 | 0 | 0.0 | 12.9 | 0.00 | 0.00 | 0.00 | 75 | 1008.6 |
| 20260509135311 | 15 | 0 | 0.0 | 12.9 | 0.00 | 0.00 | 0.00 | 75 | 1008.6 |
| 20260509135217 | 15 | 0 | 0.0 | 12.9 | 0.00 | 0.00 | 0.00 | 75 | 1008.6 |
| 20260509135211 | 15 | 0 | 0.0 | 12.9 | 0.00 | 0.00 | 0.00 | 75 | 1008.6 |
| 20260509135111 | 15 | 0 | 0.0 | 12.9 | 0.00 | 0.00 | 0.00 | 75 | 1008.7 |
| 20260509135018 | 15 | 360 | 0.0 | 12.9 | 0.00 | 0.00 | 0.00 | 75 | 1008.7 |
| 20260509135011 | 15 | 0 | 0.0 | 12.9 | 0.00 | 0.00 | 0.00 | 75 | 1008.7 |
| 20260509134946 | 15 | 0 | 0.0 | 12.9 | 0.00 | 0.00 | 0.00 | 75 | 1008.7 |
| 20260509134942 | 15 | 0 | 1.6 | 12.9 | 0.00 | 0.00 | 0.00 | 75 | 1008.6 |
| 20260509134934 | 15 | 0 | 0.0 | 12.9 | 0.00 | 0.00 | 0.00 | 75 | 1008.7 |
| 20260509134815 | 15 | 0 | 0.0 | 12.9 | 0.00 | 0.00 | 0.00 | 75 | 1008.7 |
| 20260509134610 | 15 | 0 | 1.6 | 12.9 | 0.00 | 0.00 | 0.00 | 75 | 1008.6 |
| 20260509134517 | 15 | 360 | 0.0 | 12.9 | 0.00 | 0.00 | 0.00 | 76 | 1008.7 |
| 20260509134508 | 15 | 0 | 1.6 | 12.9 | 0.00 | 0.00 | 0.00 | 76 | 1008.7 |
| 20260509134443 | 15 | 0 | 1.6 | 12.9 | 0.00 | 0.00 | 0.00 | 77 | 1008.8 |
| 20260509134438 | 15 | 0 | 1.6 | 12.9 | 0.00 | 0.00 | 0.00 | 77 | 1008.9 |
| 20260509134430 | 15 | 0 | 1.6 | 12.9 | 0.00 | 0.00 | 0.00 | 77 | 1008.7 |
| 20260509134312 | 15 | 0 | 1.6 | 12.9 | 0.00 | 0.00 | 0.00 | 77 | 1008.8 |
| 20260509134107 | 15 | 0 | 3.2 | 12.9 | 0.00 | 0.00 | 0.00 | 77 | 1008.9 |
| 20260509134102 | 15 | 360 | 0.0 | 12.9 | 0.00 | 0.00 | 0.00 | 76 | 1008.8 |
| 20260509134024 | 15 | 0 | 3.2 | 12.9 | 0.00 | 0.00 | 0.00 | 76 | 1008.7 |
| 20260509134019 | 15 | 0 | 3.2 | 12.9 | 0.00 | 0.00 | 0.00 | 76 | 1008.7 |
| 20260509134015 | 15 | 0 | 3.2 | 12.9 | 0.00 | 0.00 | 0.00 | 76 | 1008.8 |
| 20260509133825 | 15 | 0 | 3.2 | 12.9 | 0.00 | 0.00 | 0.00 | 76 | 1008.7 |
| 20260509133704 | 15 | 0 | 3.2 | 12.9 | 0.00 | 0.00 | 0.00 | 76 | 1008.4 |
| 20260509133603 | 15 | 0 | 1.6 | 12.9 | 0.00 | 0.00 | 0.00 | 76 | 1008.3 |
| 20260509133518 | 15 | 360 | 0.0 | 12.9 | 0.00 | 0.00 | 0.00 | 76 | 1008.5 |
| 20260509133504 | 15 | 0 | 1.6 | 12.9 | 0.00 | 0.00 | 0.00 | 76 | 1008.5 |
| 20260509133402 | 15 | 0 | 1.6 | 14.5 | 0.00 | 0.00 | 0.00 | 76 | 1008.6 |
| 20260509133303 | 15 | 0 | 1.6 | 14.5 | 0.00 | 0.00 | 0.00 | 76 | 1008.5 |
| 20260509133220 | 15 | 0 | 0.0 | 14.5 | 0.00 | 0.00 | 0.00 | 77 | 1008.6 |
| 20260509133211 | 15 | 0 | 1.6 | 14.5 | 0.00 | 0.00 | 0.00 | 76 | 1008.5 |
| 20260509133018 | 15 | 360 | 4.8 | 14.5 | 0.00 | 0.00 | 0.00 | 77 | 1008.7 |
| 20260509133001 | 15 | 0 | 0.0 | 14.5 | 0.00 | 0.00 | 0.00 | 77 | 1008.7 |
| 20260509132900 | 15 | 0 | 0.0 | 14.5 | 0.00 | 0.00 | 0.00 | 76 | 1008.7 |
| 20260509132828 | 15 | 0 | 0.0 | 14.5 | 0.00 | 0.00 | 0.00 | 76 | 1008.7 |
| 20260509132714 | 15 | 0 | 0.0 | 14.5 | 0.00 | 0.00 | 0.00 | 77 | 1008.7 |
| 20260509132709 | 15 | 0 | 0.0 | 14.5 | 0.00 | 0.00 | 0.00 | 76 | 1008.7 |
| 20260509132517 | 15 | 360 | 0.0 | 14.5 | 0.00 | 0.00 | 0.00 | 76 | 1008.8 |
| 20260509132459 | 15 | 0 | 0.0 | 14.5 | 0.00 | 0.00 | 0.00 | 76 | 1008.8 |
| 20260509132358 | 15 | 0 | 0.0 | 4.8 | 0.00 | 0.00 | 0.00 | 77 | 1008.8 |
| 20260509132258 | 15 | 0 | 0.0 | 0.0 | 0.00 | 0.00 | 0.00 | 77 | 1008.9 |
| 20260509132212 | 15 | 0 | 0.0 | 0.0 | 0.00 | 0.00 | 0.00 | 77 | 1008.7 |
| 20260509132157 | 15 | 0 | 0.0 | 0.0 | 0.00 | 0.00 | 0.00 | 77 | 1008.7 |
| 20260509132058 | 15 | 0 | 0.0 | 0.0 | 0.00 | 0.00 | 0.00 | 77 | 1008.8 |
| 20260509132018 | 15 | 360 | 0.0 | 0.0 | 0.00 | 0.00 | 0.00 | 77 | 1008.7 |
| 20260509131957 | 15 | 0 | 0.0 | 0.0 | 0.00 | 0.00 | 0.00 | 77 | 1008.7 |
| 20260509131857 | 15 | 0 | 0.0 | 0.0 | 0.00 | 0.00 | 0.00 | 77 | 1008.7 |
| 20260509131824 | 15 | 0 | 0.0 | 0.0 | 0.00 | 0.00 | 0.00 | 78 | 1008.7 |
| 20260509131814 | 15 | 0 | 0.0 | 1.6 | 0.00 | 0.00 | 0.00 | 78 | 1008.7 |
| 20260509131705 | 15 | 0 | 0.0 | 1.6 | 0.00 | 0.00 | 0.00 | 78 | 1008.7 |
| 20260509131517 | 15 | 360 | 0.0 | 1.6 | 0.00 | 0.00 | 0.00 | 78 | 1008.8 |
| 20260509131455 | 15 | 0 | 0.0 | 1.6 | 0.00 | 0.00 | 0.00 | 78 | 1008.8 |
| 20260509131354 | 15 | 0 | 0.0 | 1.6 | 0.00 | 0.00 | 0.00 | 78 | 1008.8 |
| 20260509131330 | 15 | 0 | 0.0 | 4.8 | 0.00 | 0.00 | 0.00 | 78 | 1008.8 |
| 20260509131326 | 15 | 0 | 0.0 | 4.8 | 0.00 | 0.00 | 0.00 | 78 | 1008.8 |
| 20260509131308 | 15 | 0 | 0.0 | 1.6 | 0.00 | 0.00 | 0.00 | 78 | 1008.8 |